GFSSGP_sfc_rhum_039.txt.gz
RH
63 49 51 49 59 63 64 44 30 29 26 29 24 22 30 45 62 73 66 72 75 86 84 84 86 87 89 89 87 88 87 87 84 77 74 74 72 66 72 76 74 75 74 70 69 69 68 67 66
62 46 54 58 69 71 57 39 26 30 26 27 23 23 42 72 63 67 67 68 70 78 80 84 89 89 89 90 88 87 86 85 81 76 72 73 68 64 77 78 78 76 74 70 67 67 68 69 69
52 45 63 68 72 69 56 34 27 27 22 26 30 23 51 61 64 65 64 63 64 67 69 79 88 89 88 90 88 84 82 83 80 77 71 70 64 70 77 77 78 75 72 70 69 70 72 73 71
55 57 54 69 72 52 45 37 28 25 24 22 26 61 58 59 61 62 58 60 64 71 80 79 81 82 85 86 85 81 82 79 77 76 72 66 66 74 78 77 76 75 73 72 73 75 76 74 72
70 71 76 74 60 50 36 23 25 26 25 25 26 62 76 66 60 59 56 57 72 74 72 72 77 76 80 83 83 83 84 80 78 72 68 66 67 74 76 76 76 75 74 74 74 73 72 72 71
89 88 85 76 59 44 36 23 24 28 25 26 45 67 80 67 61 58 55 70 67 70 70 67 70 67 78 79 80 85 86 82 76 74 69 68 70 73 76 75 74 74 74 75 71 67 67 69 73
83 92 91 70 59 46 36 24 27 28 28 27 27 74 85 81 64 60 58 69 67 68 72 76 67 74 79 79 78 85 85 82 78 77 76 77 75 73 74 73 72 75 78 74 67 65 65 68 70
71 88 84 67 64 56 38 24 23 24 29 20 29 73 93 83 76 64 65 64 68 70 71 82 86 84 87 84 80 83 85 84 80 82 84 84 83 80 80 84 82 79 82 70 65 63 66 68 68
62 89 88 76 66 54 44 41 29 23 24 30 51 72 81 75 75 80 78 79 75 71 73 76 84 87 85 87 84 83 88 87 85 86 87 87 91 90 89 89 87 86 84 70 64 62 66 74 75
87 90 77 53 53 57 52 45 32 28 29 30 75 85 78 81 84 90 85 89 88 77 76 72 76 75 76 64 92 93 87 90 85 88 89 89 90 90 81 90 88 87 86 77 68 64 65 66 58
76 80 57 50 46 72 62 56 31 29 37 28 68 90 85 88 90 91 90 88 89 86 85 79 68 65 66 72 88 93 98 96 87 86 87 85 77 86 93 98 98 98 93 88 81 78 71 64 60
63 54 51 49 73 74 63 41 28 30 33 33 40 67 81 87 90 90 91 88 86 85 84 83 84 74 73 76 80 80 92 93 91 88 82 85 88 85 94 97 98 98 98 96 95 91 76 67 52
62 49 43 47 58 61 60 48 35 30 34 31 34 49 74 80 84 84 83 83 89 85 79 80 85 87 80 75 74 72 75 81 83 81 78 76 86 77 81 87 91 97 97 96 96 89 76 62 42
50 49 45 39 48 45 58 38 36 33 33 32 31 35 37 45 69 78 82 78 85 81 81 79 81 86 88 87 75 72 61 67 68 76 75 73 82 74 82 88 81 84 88 87 82 79 64 51 45
48 54 48 46 46 43 41 43 44 35 31 33 34 32 29 28 30 58 72 74 72 78 74 78 76 83 88 89 88 83 76 68 67 68 69 70 77 84 78 88 96 90 87 79 68 60 61 52 46
57 55 70 48 46 42 36 56 41 35 44 38 35 35 30 28 24 25 29 51 64 70 80 76 69 80 87 89 88 86 78 77 66 63 69 66 65 77 85 86 90 91 94 88 86 66 59 58 52
78 78 71 54 44 44 47 60 40 35 37 38 38 36 34 29 26 25 24 26 28 39 68 81 79 84 85 90 88 92 85 83 83 81 76 70 67 68 74 76 84 91 88 91 87 82 58 59 58
79 68 60 60 50 45 54 55 44 34 38 39 36 33 30 28 25 23 27 32 30 32 34 34 61 85 86 86 87 94 95 95 94 95 92 79 76 72 70 75 79 88 90 90 96 94 71 63 60
61 59 58 54 43 53 58 52 42 42 41 39 36 34 32 28 25 32 30 30 29 32 34 37 36 38 45 64 95 97 93 96 97 97 93 94 90 75 88 90 89 89 87 83 92 94 80 72 61
57 61 57 48 45 51 55 55 45 42 40 38 37 37 34 32 29 26 29 35 42 46 48 45 42 40 40 47 52 85 97 97 95 95 94 92 95 94 86 82 93 95 91 92 95 93 87 74 63
57 54 54 54 52 49 50 51 44 40 36 36 39 35 30 28 27 31 44 49 54 57 57 51 50 46 41 40 44 48 57 79 96 96 97 94 93 93 94 95 92 91 92 93 94 95 92 83 80
61 44 48 57 60 66 44 58 40 40 38 38 36 33 31 31 38 42 45 50 58 64 64 60 57 50 43 39 42 46 51 56 75 95 95 95 94 92 91 93 95 97 97 95 93 91 87 92 87
52 51 58 60 67 67 61 71 50 42 46 39 36 40 37 39 43 46 45 50 59 61 65 63 56 51 51 52 52 51 52 57 61 67 76 94 96 93 93 92 95 97 97 96 97 97 93 88 87
50 58 62 66 71 91 67 66 55 50 41 40 47 46 44 46 48 51 52 55 61 62 63 60 58 56 57 58 56 56 60 59 61 62 67 73 88 95 95 94 94 92 96 98 98 98 96 91 85
60 73 97 95 96 92 60 68 50 38 36 42 45 45 44 46 57 60 61 61 62 65 66 60 66 64 65 66 66 66 66 66 69 72 71 69 78 91 92 94 95 94 92 94 97 99 98 97 93
79 68 88 89 97 89 55 74 51 35 32 34 39 44 47 59 63 62 61 64 66 67 71 72 70 69 69 69 68 69 69 73 72 72 72 76 88 91 86 89 92 91 91 94 95 98 98 98 96
79 82 61 75 74 88 68 54 38 37 43 41 44 47 54 62 63 61 61 64 71 73 74 74 73 73 72 70 70 68 69 73 77 74 74 73 74 79 86 90 91 92 94 94 95 98 98 99 97
75 58 85 93 92 75 67 56 53 44 43 42 41 43 51 59 63 62 64 67 72 74 76 75 75 76 73 70 71 72 82 83 85 85 86 86 87 88 91 91 91 91 92 95 97 98 97 98 99
86 87 76 76 87 91 64 51 39 37 35 38 38 35 44 64 64 63 65 70 76 78 78 80 78 76 71 70 78 84 84 83 83 82 83 90 92 92 92 91 91 91 92 94 95 96 97 98 97
72 79 69 89 83 80 87 63 37 38 36 34 34 38 49 63 63 61 61 72 77 83 84 85 80 79 74 77 82 80 82 82 81 79 70 70 84 84 88 89 89 90 94 94 96 96 96 96 96

GFSSGP_sfc_rhum_042.txt.gz
RH
64 53 57 51 59 67 74 52 35 32 32 30 27 47 58 65 61 53 80 82 90 94 88 86 87 88 88 88 86 89 88 86 83 77 76 73 68 69 75 72 75 73 70 70 69 68 67 66 66
59 46 56 61 71 78 65 47 37 29 27 27 26 31 60 82 70 93 93 81 84 88 88 88 89 89 89 89 88 89 86 83 81 77 76 71 65 77 75 75 77 72 71 68 66 67 67 66 63
48 46 63 66 77 72 61 43 31 28 27 27 27 42 61 76 71 77 82 77 83 89 89 90 90 90 89 88 87 89 86 80 79 76 73 66 67 77 76 77 76 74 71 69 68 70 71 70 68
48 59 60 74 76 58 55 48 33 28 29 25 46 71 71 70 68 74 75 75 79 86 91 93 90 90 91 89 87 85 83 77 76 75 70 67 74 77 78 78 76 74 72 70 73 74 74 73 71
73 72 86 80 66 57 47 39 31 28 30 28 42 80 83 70 70 71 73 69 78 85 84 78 84 88 89 87 83 84 83 79 77 73 67 68 74 78 78 77 77 75 74 74 74 74 73 72 71
88 87 95 91 65 49 44 39 32 29 30 38 73 81 84 75 69 71 69 74 72 77 73 71 79 84 84 83 84 86 86 80 76 72 69 69 68 71 76 77 76 75 75 74 71 70 70 72 72
70 91 92 83 71 58 44 45 32 29 31 29 61 87 87 81 69 76 74 76 73 72 76 77 73 79 84 82 84 87 86 81 79 77 76 77 76 73 73 75 75 75 76 72 68 66 67 70 71
59 75 81 75 67 66 52 49 42 26 30 27 57 91 92 84 76 81 79 75 78 77 77 82 80 80 85 84 85 87 88 84 81 82 84 84 83 82 78 82 81 80 79 69 67 64 67 69 68
68 93 85 78 68 64 51 61 48 25 45 62 85 87 80 80 80 84 87 89 89 80 81 88 90 91 90 86 84 88 89 88 86 88 88 88 94 92 91 91 87 86 81 70 66 64 68 76 77
84 84 75 54 54 64 62 66 59 35 36 77 94 87 83 84 84 89 90 94 93 93 89 84 91 92 91 74 91 94 90 93 92 92 92 96 94 96 90 94 92 90 84 77 69 65 70 74 64
87 79 56 50 48 79 72 66 55 48 33 64 88 91 90 94 94 92 92 91 90 90 89 88 89 88 87 79 97 98 99 98 95 93 94 93 90 96 97 98 97 97 93 90 82 82 79 70 62
84 61 51 56 79 71 74 66 64 43 31 29 76 86 88 94 94 92 92 90 91 90 91 85 81 81 81 88 91 93 98 98 98 93 91 93 95 96 97 99 98 99 98 96 95 91 81 69 62
63 59 55 62 75 77 74 72 69 60 37 37 78 82 88 89 92 91 89 86 88 86 86 91 92 83 81 92 85 89 94 96 92 91 87 88 92 91 96 97 99 99 99 98 97 97 91 81 68
60 52 56 68 71 71 81 73 71 41 32 45 53 78 87 87 86 90 92 90 91 85 81 82 88 92 85 89 88 81 84 91 94 89 84 83 85 84 84 91 94 98 98 97 97 96 90 76 60
53 63 57 55 56 55 57 78 68 43 35 37 36 35 39 51 79 88 83 86 87 86 79 81 82 86 94 91 82 85 82 77 83 82 85 80 82 85 79 84 86 85 91 95 95 94 85 68 54
61 59 72 53 51 46 50 62 51 38 42 37 36 36 32 32 30 60 81 82 85 87 87 81 72 82 91 93 93 91 88 84 68 70 75 78 75 82 84 84 89 86 88 86 92 85 79 67 57
85 83 70 59 48 48 43 52 41 36 40 39 40 38 35 36 31 30 34 64 58 81 89 90 85 84 88 92 92 94 90 92 83 66 66 72 73 76 79 81 81 94 93 92 89 93 78 72 65
80 80 59 57 53 49 56 56 42 43 41 41 42 41 36 31 28 27 30 34 36 37 46 57 84 90 92 94 95 96 97 96 95 95 90 84 80 78 78 81 83 91 93 95 97 93 86 72 67
67 61 67 60 49 51 51 57 47 45 47 45 40 37 35 31 34 34 33 34 38 40 39 38 38 40 80 97 98 98 97 97 97 97 95 95 94 92 92 93 91 95 93 90 94 96 95 91 84
64 65 65 53 47 52 57 56 49 48 49 42 38 39 37 34 31 32 40 49 50 52 51 50 47 41 40 51 58 91 97 97 97 96 95 95 95 95 95 95 95 91 93 96 96 97 97 96 88
75 72 62 56 53 50 52 55 51 47 47 40 41 39 38 32 29 39 55 56 60 64 64 60 58 52 48 41 45 50 53 70 94 96 97 96 95 94 96 96 96 96 94 92 93 96 96 95 96
79 49 51 57 62 74 48 70 44 42 44 43 43 41 36 31 34 49 53 60 63 69 69 63 58 54 50 53 51 48 50 52 61 86 93 93 94 95 95 96 96 97 97 96 97 97 96 97 96
58 51 62 64 68 68 62 64 49 47 52 46 49 38 36 38 50 51 55 62 63 66 70 66 60 61 62 62 61 64 63 61 62 66 65 70 81 93 96 95 96 97 98 98 97 97 98 97 93
57 63 67 76 74 88 68 67 64 52 48 50 45 42 40 51 55 57 64 65 66 67 67 69 66 68 69 71 72 72 75 74 72 72 72 73 78 84 91 96 97 97 98 98 98 98 98 98 97
62 70 94 92 94 86 65 76 51 45 42 41 48 53 54 56 64 66 68 70 70 72 75 68 71 72 71 71 70 72 76 79 79 79 80 79 85 92 92 94 98 98 96 93 94 97 99 99 98
75 67 89 86 97 87 65 74 55 40 36 38 42 45 50 60 70 69 70 72 75 76 78 77 76 77 73 71 70 71 75 81 81 83 81 80 82 93 92 93 95 94 93 93 93 96 97 98 99
82 86 69 78 82 91 73 61 40 45 51 48 47 49 54 68 72 70 69 73 78 79 80 80 79 77 73 73 76 85 89 92 93 93 91 91 91 85 91 92 90 92 92 95 95 98 98 98 98
80 64 84 93 89 79 68 70 55 50 51 48 49 54 64 68 70 69 74 78 81 79 82 80 77 75 73 78 83 85 89 86 89 91 92 96 95 94 93 93 93 93 94 96 97 98 98 98 99
88 96 87 84 82 90 78 60 44 42 46 47 47 50 59 68 70 70 75 81 84 86 85 82 80 78 76 83 84 87 87 85 83 79 77 84 91 93 94 94 94 95 96 96 96 97 97 97 96
75 87 68 92 93 88 89 64 40 38 42 44 41 38 44 64 67 69 78 85 88 92 90 88 84 82 82 84 85 88 87 86 87 83 75 74 80 77 79 82 84 91 94 94 95 96 96 93 93

GFSSGP_sfc_rhum_048.txt.gz
RH
74 62 59 50 54 68 68 50 55 40 32 30 31 36 42 72 54 51 92 95 95 92 86 88 87 87 87 88 85 86 85 84 80 75 74 71 70 72 76 72 72 71 69 67 68 68 68 68 73
74 55 54 64 68 72 60 55 46 39 34 64 52 64 74 82 87 98 98 90 87 95 93 91 89 90 89 89 87 87 84 81 78 76 73 69 72 73 77 74 71 72 66 66 66 66 66 69 71
58 48 55 67 79 69 53 52 50 41 33 34 62 76 80 86 93 95 93 88 90 96 97 92 91 90 89 89 89 86 83 80 80 76 70 72 77 74 78 75 75 71 68 68 69 68 66 68 67
58 51 61 75 79 63 55 57 49 43 32 33 66 79 83 84 88 88 90 91 96 99 97 93 92 91 91 90 89 86 81 81 79 73 69 79 76 78 79 78 76 73 71 72 72 72 71 70 70
70 62 75 85 76 69 61 50 56 45 39 37 73 85 88 85 93 94 94 93 83 97 96 96 92 91 92 91 90 86 81 78 76 69 69 79 80 81 80 78 76 73 72 74 73 73 73 73 71
78 79 82 86 77 67 63 62 61 55 35 60 82 90 91 92 96 94 94 97 88 96 97 94 93 92 92 91 90 87 84 80 74 73 76 79 79 78 76 77 76 74 74 74 72 72 71 72 72
83 85 84 82 77 69 62 62 66 68 47 38 82 93 93 96 94 92 94 95 96 97 97 95 88 95 92 92 90 88 86 81 78 77 79 81 79 81 78 78 76 75 76 73 70 69 69 72 72
76 81 89 85 73 67 67 63 65 71 60 47 81 88 94 90 93 94 94 95 94 93 91 94 94 94 94 87 92 91 89 86 83 83 84 84 82 80 79 84 83 78 76 72 69 66 68 70 69
85 90 88 80 72 66 68 68 65 61 62 59 95 96 93 95 95 96 96 96 94 89 91 92 93 93 93 92 88 88 89 88 87 89 90 91 94 92 90 90 87 86 81 71 68 64 68 74 73
94 92 80 57 62 70 67 70 72 67 66 67 57 61 94 95 95 97 97 97 96 94 93 92 93 93 92 79 93 90 90 96 95 94 93 96 95 96 92 94 91 88 85 80 70 66 72 73 65
95 84 66 54 52 68 70 68 68 73 70 60 70 59 70 98 98 97 97 95 92 93 94 94 94 94 93 92 98 99 99 98 97 95 95 95 95 98 98 98 98 98 96 95 89 89 85 76 64
88 79 63 57 65 66 66 68 80 82 65 63 58 52 71 96 98 97 96 96 96 94 93 94 94 95 94 97 98 99 99 98 98 97 95 97 98 98 99 99 98 99 99 98 95 96 91 82 70
86 70 61 59 70 74 66 69 86 83 65 55 50 58 74 93 97 96 94 95 94 94 94 94 95 95 96 95 98 98 99 98 97 97 96 97 97 98 97 98 98 99 98 99 98 97 96 94 88
74 65 72 73 76 72 67 75 70 46 58 58 56 50 92 97 96 97 96 96 95 93 94 94 94 94 95 96 96 98 98 98 98 98 97 96 96 96 97 97 98 98 99 98 99 98 98 97 95
74 80 86 79 79 80 69 70 78 59 56 63 60 52 55 88 95 93 95 94 94 94 92 94 93 93 93 94 95 97 98 95 99 98 96 95 94 95 91 96 97 97 98 98 99 98 98 98 94
82 89 98 86 76 86 69 80 68 63 65 71 64 52 39 45 83 92 89 93 92 92 92 92 82 93 93 91 94 94 93 97 98 98 98 96 92 93 95 94 96 96 98 98 99 98 98 98 98
89 98 89 98 70 87 76 80 54 70 78 68 59 50 42 38 34 43 78 90 90 92 92 92 91 95 95 94 94 95 91 95 92 96 97 95 95 93 93 92 88 95 97 98 96 97 97 97 97
95 93 86 84 87 85 87 69 59 70 78 72 56 45 45 42 37 32 31 43 90 86 92 93 94 93 95 97 97 98 98 98 97 95 92 88 88 93 93 92 93 96 98 98 98 96 98 97 96
76 78 87 70 64 80 81 68 60 64 74 75 61 49 46 43 39 39 43 47 49 49 64 83 93 91 98 99 99 99 98 98 98 98 96 94 90 88 95 96 96 97 98 96 97 98 98 98 96
71 81 83 70 60 64 76 73 56 62 60 61 54 49 43 48 38 39 46 53 48 51 52 51 49 46 61 88 95 97 98 98 97 97 96 96 96 96 96 95 96 96 98 98 98 99 99 98 98
81 81 80 77 63 54 66 72 63 55 53 51 46 48 46 44 40 41 53 59 64 64 62 57 57 57 55 48 49 51 52 57 73 90 95 94 91 96 98 98 98 98 98 98 97 98 99 97 99
84 66 61 67 74 90 64 93 66 51 52 50 45 42 48 45 41 44 57 71 73 77 67 63 63 63 63 62 59 53 54 53 59 65 68 64 66 71 82 95 98 99 99 99 98 98 98 99 98
72 57 60 70 76 72 75 83 65 43 55 46 42 43 51 47 42 44 62 68 78 74 74 76 74 74 74 74 73 73 71 75 76 74 74 75 79 80 80 80 92 97 99 99 98 99 99 99 98
62 65 70 74 79 93 76 78 70 54 43 42 37 41 46 51 42 55 71 79 80 80 80 79 76 76 72 73 74 77 79 82 79 80 81 80 80 84 89 92 95 97 99 99 99 98 98 99 98
66 78 97 96 96 93 78 81 60 48 42 38 33 33 39 48 53 69 84 84 83 84 83 77 77 78 75 76 80 83 86 87 88 89 89 86 85 84 85 96 98 99 98 98 99 99 99 99 98
73 68 91 90 97 89 74 86 62 46 40 39 39 40 42 51 71 74 86 85 85 84 85 84 80 78 77 81 89 91 92 96 96 96 96 96 96 98 94 95 94 95 96 96 95 97 98 99 97
80 86 67 83 87 92 80 67 44 41 40 42 43 52 53 64 79 85 84 87 89 89 89 86 81 80 83 86 88 91 92 92 93 92 95 98 97 91 96 95 95 96 97 98 98 96 97 96 96
75 64 81 91 86 88 76 76 62 45 39 39 47 56 61 72 83 83 86 90 90 91 91 85 80 80 87 88 88 87 91 89 86 85 90 92 89 94 95 95 96 96 96 96 97 98 93 93 95
83 94 86 80 82 85 81 65 51 49 42 43 44 55 63 76 81 84 89 91 92 92 90 90 86 83 88 87 90 92 92 91 89 85 84 86 84 85 88 93 95 96 96 96 96 97 93 92 92
88 87 82 92 89 93 91 76 56 46 48 47 50 54 61 70 78 81 89 94 94 93 92 90 89 87 89 89 90 93 93 93 93 89 86 85 88 86 88 90 93 95 96 96 96 96 96 96 96

GFSSGP_sfc_rhum_051.txt.gz
RH
70 53 49 48 42 47 44 38 40 33 24 25 24 27 30 42 35 31 79 76 69 72 68 71 85 85 86 88 87 86 85 83 78 75 72 71 72 76 71 72 72 68 67 69 69 69 71 73 74
63 50 51 53 49 46 42 43 39 37 27 35 36 48 50 54 74 91 82 80 68 73 68 68 88 88 89 89 87 87 84 78 77 75 71 71 72 76 74 73 73 66 66 67 67 68 71 72 71
49 44 51 54 59 44 38 42 44 39 35 29 40 57 62 69 80 80 74 78 72 72 69 75 90 89 90 89 88 86 83 80 79 74 70 75 73 78 74 76 72 68 69 69 67 67 70 70 71
56 50 51 54 61 49 40 45 45 41 27 26 43 60 67 69 75 71 76 74 75 77 70 85 90 91 90 90 89 85 81 80 78 72 72 80 75 78 78 77 74 72 73 72 71 71 71 72 73
60 55 62 66 60 55 48 44 51 42 33 29 51 62 75 80 82 78 80 77 76 80 75 74 92 91 91 90 89 86 82 80 73 70 76 79 80 80 78 77 75 73 74 74 72 71 73 73 73
72 70 68 67 60 54 52 53 46 53 41 37 63 73 79 87 84 85 80 76 71 80 80 73 90 92 92 91 89 86 84 78 73 76 78 80 77 78 78 77 75 74 75 73 72 72 72 72 72
73 77 69 63 60 60 52 51 57 60 47 40 63 73 80 86 88 88 84 76 77 78 79 75 74 82 93 92 90 87 85 81 78 82 84 84 85 80 77 78 75 74 75 72 70 70 72 73 72
83 75 79 70 62 59 58 55 57 57 47 43 77 75 78 79 86 85 85 83 80 81 76 76 76 72 74 83 92 90 88 85 83 84 84 84 82 83 78 85 81 77 76 71 69 68 70 71 67
81 95 86 72 64 65 62 57 57 54 52 66 69 67 86 84 89 89 90 89 85 82 79 78 75 73 76 85 84 88 89 88 87 85 90 84 69 70 73 86 88 86 79 71 67 66 70 74 72
92 91 77 58 60 71 64 64 65 54 46 48 51 47 48 91 92 93 91 91 86 83 78 73 76 74 76 74 77 80 76 70 69 70 72 70 74 73 74 83 90 88 85 79 68 66 72 61 42
92 83 66 54 60 61 65 65 62 58 57 60 65 54 53 89 93 92 90 87 83 78 75 75 75 74 73 72 78 76 74 74 72 72 72 71 74 77 76 76 76 77 87 69 67 64 55 50 43
90 70 61 63 65 62 60 65 64 65 53 59 53 51 56 66 89 92 91 87 86 80 76 76 74 77 75 72 76 78 76 76 74 74 72 72 73 79 79 76 77 79 77 79 73 65 63 60 52
78 73 81 66 69 66 61 62 65 67 61 51 51 52 53 70 78 85 87 84 81 81 77 77 77 76 76 77 78 80 79 75 72 74 74 71 72 73 73 74 75 78 78 77 76 72 68 65 63
75 69 62 66 76 71 67 67 63 50 54 52 53 53 48 63 85 86 89 87 86 79 77 75 78 77 76 76 78 76 79 78 76 74 72 73 70 70 70 68 71 74 76 75 74 73 72 70 69
77 81 78 78 73 80 70 64 70 55 54 56 55 54 48 40 76 86 84 86 85 81 74 76 76 77 77 76 75 75 75 77 79 77 75 73 73 71 68 68 68 68 73 73 76 75 77 76 73
80 78 91 88 77 84 70 78 55 55 54 58 59 54 49 39 37 75 83 83 84 84 79 75 72 77 76 75 75 74 73 74 74 75 76 77 74 73 72 72 71 68 70 74 76 75 76 76 75
90 86 87 97 70 81 69 74 52 57 68 56 60 55 46 39 34 31 60 81 85 84 80 80 78 77 76 78 73 78 72 76 70 72 74 76 76 74 74 74 72 70 72 74 74 74 77 74 70
87 92 82 89 88 83 78 68 54 68 67 51 45 59 50 43 36 32 29 31 70 78 78 77 78 79 80 80 79 83 82 81 75 73 73 72 72 76 77 76 75 75 78 77 80 78 77 75 74
73 79 74 66 79 78 78 70 56 65 72 74 59 63 56 46 36 32 32 34 46 59 74 82 82 80 83 87 88 88 86 86 87 85 77 75 74 73 79 83 83 82 81 77 78 81 84 88 87
72 78 78 60 76 74 80 78 61 64 64 60 54 49 54 47 35 32 32 38 39 45 50 56 76 69 83 85 85 84 84 84 82 85 82 83 83 83 83 83 84 82 84 82 85 88 88 92 92
74 73 77 68 77 60 76 80 72 58 59 58 59 53 50 44 36 34 35 42 51 53 51 49 49 47 46 47 49 51 50 51 59 73 78 64 53 70 89 92 92 89 90 91 88 88 91 94 94
77 64 65 70 79 80 59 80 67 63 55 56 53 49 45 43 39 37 41 50 58 64 59 57 58 57 56 53 47 44 46 46 52 52 56 55 55 57 57 68 82 90 92 95 92 90 90 92 96
69 60 63 68 69 66 62 76 62 52 61 54 49 46 40 46 39 35 40 54 62 64 68 67 64 63 64 63 60 58 58 61 62 61 62 61 62 64 73 74 70 75 83 89 90 92 94 92 91
62 62 64 66 65 90 70 75 65 52 45 42 44 40 41 37 41 37 50 66 67 70 72 70 64 64 64 63 63 65 66 65 65 66 65 64 64 69 68 78 83 88 90 92 92 90 96 95 95
62 70 94 92 94 86 66 73 57 46 38 36 33 32 36 42 44 45 62 70 71 74 73 69 65 66 64 66 69 72 74 74 75 76 75 74 72 73 77 83 87 86 86 89 94 96 96 96 98
67 65 84 93 92 79 66 76 51 44 38 37 36 38 38 38 41 49 64 71 72 75 73 68 66 68 68 70 72 72 74 76 79 81 80 81 83 85 86 85 83 84 85 87 88 95 96 94 94
74 80 61 81 78 81 66 58 40 36 34 34 36 41 44 43 54 66 77 72 74 73 73 69 66 68 70 71 71 72 73 74 75 75 80 84 82 80 84 84 84 84 85 90 87 90 91 90 90
70 61 80 87 88 80 63 59 46 42 38 35 34 39 46 54 71 77 76 76 76 75 74 69 65 66 72 71 70 70 72 73 73 71 74 75 72 75 80 82 82 83 84 84 87 88 86 85 88
76 85 80 73 74 76 67 49 45 43 37 38 38 41 50 62 74 76 76 78 78 77 74 71 68 70 72 71 71 73 74 75 72 70 70 71 71 72 76 80 80 80 81 81 85 86 85 82 84
83 78 71 84 86 84 78 65 40 40 42 43 41 48 53 66 74 74 78 81 82 79 77 74 73 72 73 73 74 76 77 77 75 71 72 71 74 74 76 77 78 79 80 79 80 82 82 82 84

GFSSGP_sfc_rhum_054.txt.gz
RH
58 43 37 33 28 24 23 22 22 24 18 20 17 19 24 22 20 30 53 50 41 45 45 58 87 87 86 86 85 84 81 81 76 73 71 75 76 71 73 71 67 67 69 68 70 71 71 73 74
46 37 35 35 29 28 22 21 23 23 23 22 30 30 26 28 45 67 55 55 44 44 46 48 88 88 88 88 86 86 80 78 76 73 71 73 76 74 74 72 66 67 68 69 70 73 73 72 72
39 34 34 33 26 26 20 25 27 27 25 26 28 38 37 47 54 51 48 51 43 45 44 53 86 89 89 87 87 84 80 79 76 72 72 73 77 75 76 72 68 70 70 68 69 72 72 73 73
36 35 35 31 28 23 22 30 33 25 20 21 25 41 50 58 53 49 49 45 44 44 43 80 91 91 90 90 88 83 80 79 75 70 76 75 79 78 77 74 72 74 72 70 71 72 73 74 73
38 34 34 35 26 26 32 34 33 26 23 24 31 42 54 63 57 55 50 46 44 43 47 60 89 91 91 90 88 85 81 77 72 73 79 76 79 79 78 76 74 75 74 71 71 72 73 74 71
41 36 33 35 30 36 35 38 33 28 23 34 36 44 57 76 72 71 54 45 44 45 50 57 88 92 92 90 88 87 82 76 70 75 81 82 78 78 78 76 74 74 73 72 71 71 72 73 70
38 42 37 30 33 47 42 39 35 28 26 37 44 46 63 77 84 78 62 44 46 49 49 56 57 75 95 92 90 88 84 78 76 81 84 85 84 80 77 76 74 75 74 72 71 71 72 71 68
40 34 47 38 39 45 48 47 45 29 38 46 57 67 65 70 85 83 70 51 46 56 55 54 54 52 57 67 90 89 88 84 84 87 85 87 87 83 82 83 80 77 74 70 68 69 70 69 66
64 66 53 46 39 44 50 46 47 41 42 40 39 40 45 70 86 80 78 64 51 55 55 51 51 47 50 67 75 87 89 86 86 82 88 80 48 55 64 83 86 83 75 70 66 68 71 70 70
75 84 50 41 48 51 53 47 51 42 38 41 36 35 58 88 88 79 72 71 56 56 54 51 54 51 50 68 72 69 63 53 52 50 50 41 45 47 52 73 90 85 83 76 66 67 70 64 30
70 65 49 45 49 49 54 52 51 38 43 42 41 38 47 86 90 82 69 61 54 50 52 55 58 55 53 57 68 70 59 52 52 52 49 43 45 52 51 48 51 52 80 54 59 57 43 39 34
80 53 45 42 56 51 45 51 48 46 45 42 40 37 40 54 82 85 77 64 55 55 55 57 55 59 56 55 55 53 51 52 53 53 51 48 46 51 46 43 45 48 49 51 52 46 47 49 46
70 69 56 46 62 55 51 51 52 49 41 42 40 38 35 45 62 76 73 70 64 62 59 58 56 56 56 59 58 55 52 53 51 54 54 49 51 52 46 42 42 44 46 47 49 50 46 48 47
48 63 64 53 64 67 63 52 56 33 41 42 41 39 36 35 52 63 74 73 70 64 60 57 57 56 54 56 58 57 54 51 52 52 54 54 51 53 52 48 46 43 46 47 48 49 51 50 50
49 62 64 61 55 62 74 68 56 38 36 38 34 36 38 36 30 58 62 66 65 67 64 59 58 56 55 54 54 52 53 53 52 52 54 55 54 54 53 51 51 49 46 49 50 52 53 55 52
51 57 77 58 63 60 65 62 40 38 38 38 33 33 38 37 32 26 53 61 62 65 68 63 61 60 57 53 53 50 48 50 50 50 52 55 53 54 55 55 54 52 52 53 53 54 55 56 54
57 57 64 83 54 64 60 50 42 42 42 36 31 31 34 36 34 27 24 58 63 64 69 70 66 62 59 58 54 54 52 52 50 50 51 54 54 54 56 55 55 54 56 56 56 56 57 60 56
45 44 55 80 73 67 66 54 42 40 40 35 28 26 28 38 35 31 24 24 53 61 65 71 71 67 64 63 59 59 57 53 49 50 51 52 52 55 57 56 57 56 59 59 58 63 61 63 60
36 44 55 72 68 76 69 60 47 38 45 44 34 30 28 33 36 32 25 24 26 51 60 66 72 67 66 66 65 64 68 62 60 59 60 58 57 57 62 63 61 61 64 62 61 64 69 70 72
48 46 46 48 63 75 68 62 46 38 38 39 36 30 31 32 35 35 26 27 26 33 56 61 64 62 63 61 62 62 62 61 59 65 66 65 65 66 70 72 72 72 73 70 70 72 80 83 81
45 45 47 44 54 55 56 57 51 41 36 36 34 31 29 31 31 33 29 28 36 38 43 48 56 64 68 70 68 66 61 61 64 68 68 60 48 54 72 85 88 88 90 91 88 85 85 92 88
54 42 47 50 47 47 46 36 39 38 42 39 36 35 30 32 34 34 31 32 39 46 46 44 45 44 44 44 52 59 60 58 44 41 43 43 45 46 44 45 50 59 70 84 84 84 83 89 88
52 48 45 44 42 49 52 51 27 37 39 35 34 35 34 34 37 34 31 35 41 53 54 51 48 47 47 46 39 38 40 42 44 44 47 45 44 48 53 58 61 57 56 60 64 67 72 83 86
47 47 49 50 47 70 42 46 32 32 32 29 29 31 32 32 34 31 30 35 45 55 59 56 49 49 49 47 45 45 47 46 46 49 48 46 47 52 53 56 64 68 70 76 78 80 82 82 86
43 45 82 78 85 60 49 53 32 31 29 27 26 24 27 28 30 33 34 42 49 59 61 56 48 49 47 48 48 50 53 53 54 54 53 54 50 54 57 66 66 71 73 78 79 85 87 90 93
53 38 54 63 61 47 50 55 31 29 29 27 27 25 25 26 26 37 36 42 51 58 57 50 48 50 50 51 51 52 54 52 53 58 57 56 59 61 67 67 68 70 70 74 80 88 91 94 97
64 72 42 60 56 58 38 38 28 23 23 22 23 25 25 25 27 33 38 46 55 57 54 50 49 50 51 52 50 50 51 55 56 59 59 62 63 64 68 70 70 70 70 78 80 86 86 88 92
52 42 61 74 80 54 39 38 23 27 25 22 22 25 26 30 35 38 46 50 52 52 52 50 47 49 52 52 51 51 53 55 56 55 58 61 59 62 66 68 68 69 69 71 78 78 77 79 83
60 61 58 50 56 52 36 25 24 26 26 26 26 30 32 34 41 48 51 54 55 55 54 51 50 53 53 52 52 52 52 55 55 54 54 56 58 59 62 65 65 66 66 67 75 76 76 74 74
54 47 45 60 72 57 52 33 24 25 26 29 29 31 35 41 45 50 55 58 60 59 56 54 52 52 52 52 52 54 55 57 57 55 56 55 57 58 60 62 63 63 65 64 66 71 73 72 71

GFSSGP_sfc_rhum_057.txt.gz
RH
58 37 32 32 30 22 25 22 15 22 18 15 15 21 22 22 20 46 36 33 35 41 51 65 87 86 85 85 84 83 81 80 76 72 74 73 72 73 70 67 68 69 69 70 75 72 71 73 73
40 32 34 30 31 25 23 17 21 20 16 18 21 21 24 35 37 47 43 34 33 38 48 54 89 86 87 85 84 83 80 77 75 72 74 75 74 71 71 66 68 70 71 72 73 73 73 73 72
40 29 31 31 27 22 21 17 17 19 22 21 19 29 27 46 42 40 36 34 33 37 42 62 88 89 88 86 85 81 79 78 75 73 73 78 77 75 71 67 70 70 69 72 73 73 74 74 73
32 33 28 33 28 18 15 17 16 20 18 21 20 29 46 49 45 39 38 33 34 36 38 80 90 90 90 89 86 81 80 76 74 74 74 78 80 76 73 71 73 72 72 71 73 74 74 74 73
34 27 31 32 27 18 15 23 25 18 17 21 25 38 50 65 48 43 39 33 35 35 48 59 91 90 91 90 88 84 80 74 72 77 78 78 79 78 75 74 75 74 71 72 72 73 74 73 69
40 29 34 33 26 19 20 27 25 20 17 26 28 33 64 70 65 44 38 35 34 37 50 56 89 92 90 90 89 86 79 71 73 78 80 81 79 78 77 74 75 74 72 71 70 72 72 73 66
40 43 36 30 27 25 28 32 27 20 18 34 35 31 64 75 81 68 40 35 35 38 42 56 62 77 93 92 90 88 81 75 74 85 86 84 84 80 77 74 74 74 73 72 71 71 71 71 66
38 45 41 32 30 36 33 41 39 25 28 42 43 44 63 72 81 77 50 38 37 41 46 56 56 56 61 67 91 90 87 83 88 87 88 88 87 85 83 80 79 76 72 69 68 70 71 69 66
42 79 69 44 32 36 40 38 39 35 35 37 35 38 42 67 81 86 67 43 42 58 53 63 55 46 53 58 73 88 87 85 88 82 87 86 48 59 65 85 86 81 72 68 65 68 70 68 69
67 84 53 45 36 43 43 34 38 37 36 36 34 37 68 79 88 76 73 56 42 60 63 65 64 40 55 60 66 60 57 53 50 46 52 42 40 43 53 73 88 84 79 74 65 67 69 66 33
65 59 45 44 39 41 48 46 39 35 40 35 38 39 71 90 85 73 66 54 45 53 54 59 64 54 64 61 65 63 56 51 47 45 42 35 38 48 48 51 57 57 85 59 64 62 49 38 36
67 45 48 44 53 42 42 41 40 36 40 34 34 32 46 79 80 83 74 55 47 45 44 44 57 64 62 60 64 64 54 44 48 47 46 43 41 47 42 41 42 45 48 48 48 44 42 45 44
90 49 46 67 48 44 49 44 45 42 36 36 33 32 34 51 70 77 72 70 61 52 51 51 51 53 60 66 62 61 54 44 43 46 48 44 46 49 41 37 38 38 40 42 43 46 44 44 44
63 58 50 45 48 50 53 50 55 36 33 35 37 33 32 35 52 64 73 73 67 62 59 57 54 54 55 59 64 62 58 42 42 44 47 48 47 49 48 44 42 38 40 43 44 46 48 48 46
54 69 58 52 46 45 54 59 52 39 33 34 32 30 31 33 32 51 58 67 61 59 58 57 56 52 54 54 50 50 50 42 43 44 46 48 48 48 48 48 48 47 42 43 45 48 49 51 50
72 83 87 55 49 42 49 55 39 36 38 36 34 28 30 31 31 28 40 52 52 56 58 55 53 51 49 48 49 47 44 45 44 44 45 48 46 49 51 52 52 50 49 50 51 51 52 52 52
51 72 67 53 42 47 53 41 35 32 33 36 34 28 27 29 31 28 24 45 53 54 58 59 60 58 54 52 50 49 46 46 45 44 46 49 49 48 52 52 52 51 54 54 55 56 56 58 61
43 30 39 50 54 52 62 51 39 36 38 35 32 30 27 26 30 27 26 23 47 53 54 61 62 62 60 60 56 54 53 49 46 47 47 48 49 51 53 53 53 55 60 61 64 62 65 66 62
27 26 37 38 49 62 61 54 45 35 34 35 33 30 27 24 24 30 27 23 24 50 56 60 65 64 64 68 69 65 64 57 52 51 50 52 52 52 57 62 60 62 62 60 59 63 66 72 70
26 29 42 48 54 63 60 63 45 37 34 33 30 27 26 24 23 33 28 25 24 31 53 57 61 64 65 67 66 64 65 62 53 65 60 60 60 63 74 77 78 80 79 72 73 75 83 87 84
34 31 33 50 60 57 60 79 57 38 32 30 29 27 24 24 24 30 30 28 30 30 41 54 56 58 58 64 65 76 69 70 69 67 72 72 55 57 67 81 89 89 94 93 90 92 94 96 95
41 29 34 39 52 54 44 41 37 36 36 33 30 29 27 28 26 27 30 29 36 35 42 47 50 60 61 66 71 73 72 74 64 52 49 46 42 44 43 47 50 54 66 82 81 80 84 91 92
40 37 38 39 42 29 43 44 25 26 31 29 29 28 27 28 28 28 31 32 33 52 53 48 45 46 46 48 51 59 59 48 47 43 44 42 42 46 48 53 58 62 60 58 60 64 70 77 82
43 40 39 38 36 60 40 37 27 22 27 24 22 22 24 25 27 30 32 30 37 53 58 54 46 44 44 44 42 42 46 45 50 51 46 43 44 48 51 52 56 63 67 70 76 78 79 80 77
40 44 72 68 81 60 36 36 28 25 25 23 24 23 21 22 24 28 32 32 39 54 58 55 48 47 45 44 44 45 48 48 50 51 49 48 46 49 52 62 61 63 68 71 74 79 80 87 88
47 37 52 55 53 42 41 48 27 23 22 22 23 22 21 22 21 27 31 35 40 53 55 49 46 45 44 45 46 47 50 50 50 53 53 52 52 54 58 62 63 64 66 69 81 89 93 93 95
48 57 38 50 39 46 36 29 24 21 22 20 20 20 21 22 22 25 29 34 41 53 52 46 43 44 46 47 46 45 47 51 51 53 53 56 58 59 61 64 67 67 68 70 77 88 88 90 93
45 37 52 66 72 42 33 28 23 23 22 21 24 25 25 25 27 27 28 34 43 50 50 47 44 46 48 47 46 47 48 50 52 52 53 55 55 58 62 64 66 67 67 68 75 77 75 79 85
56 59 50 43 51 54 30 25 20 24 24 26 27 28 28 28 29 33 35 39 46 50 52 49 47 50 52 48 48 48 49 51 51 51 50 52 54 56 59 61 65 64 64 65 72 74 73 72 73
47 42 41 55 65 44 45 34 20 22 24 26 27 27 26 30 34 38 41 44 48 52 53 51 50 52 50 47 47 49 51 52 53 51 52 52 54 55 58 59 61 62 63 63 65 72 73 72 71

GFSSGP_sfc_rhum_063.txt.gz
RH
71 71 76 58 61 68 61 35 30 40 34 29 30 34 69 62 70 70 71 83 86 88 81 82 86 86 85 85 84 86 84 82 81 75 72 71 66 67 69 66 70 73 71 68 70 71 71 71 68
77 68 58 63 72 72 46 30 28 42 35 25 29 41 67 70 53 64 86 80 80 83 81 83 87 87 86 86 84 84 80 78 82 79 72 72 67 68 70 71 68 67 69 72 73 73 73 72 70
72 70 65 71 68 67 50 26 24 27 25 25 31 50 78 80 58 64 72 72 79 83 82 85 88 87 88 86 84 80 78 78 83 82 80 73 67 68 70 72 74 72 75 75 75 75 75 74 71
78 83 62 62 51 48 39 32 24 29 28 24 33 72 83 82 75 70 64 71 77 80 91 91 89 89 89 88 84 79 77 77 81 85 82 75 69 70 72 73 75 76 76 75 75 75 76 75 72
90 80 85 73 57 39 30 29 28 26 28 32 30 70 74 85 74 52 61 62 84 93 92 88 90 90 89 88 85 82 77 77 79 84 80 77 74 73 74 74 76 76 75 74 75 73 72 75 74
93 84 73 71 53 38 39 37 35 32 26 34 44 73 87 89 83 78 58 78 80 91 89 86 91 91 90 89 87 83 80 80 82 86 82 79 76 73 76 76 75 73 73 74 74 74 71 70 74
89 90 84 58 48 42 46 34 52 50 44 63 50 70 92 80 87 80 74 75 80 86 90 95 92 92 93 92 88 84 84 87 88 88 85 85 82 76 74 76 75 74 73 74 74 73 73 68 65
89 89 78 76 44 49 45 42 51 47 64 44 52 90 96 76 88 81 77 82 81 84 91 97 97 93 94 93 89 87 92 91 91 92 91 91 89 84 81 86 82 75 74 73 74 74 71 68 64
83 91 86 67 56 49 47 46 48 45 47 58 57 76 81 77 79 86 84 84 82 80 86 92 96 95 94 94 87 88 93 90 89 90 91 93 94 90 87 89 86 82 76 71 71 71 69 73 74
86 88 76 59 62 49 49 43 44 51 50 76 90 88 85 92 64 64 84 88 84 87 90 87 86 88 88 76 92 90 90 96 92 90 92 93 92 92 83 91 89 84 80 77 71 71 73 72 72
79 87 70 68 60 50 50 51 45 53 59 54 92 91 92 97 95 69 83 86 84 89 86 79 78 81 82 81 92 87 86 86 86 92 91 88 83 92 96 98 96 97 89 87 81 82 79 72 68
93 66 57 63 68 60 55 48 58 54 53 44 70 84 88 96 94 88 72 80 91 82 78 75 75 78 88 79 88 83 80 82 79 74 72 70 84 86 95 98 96 97 96 96 91 91 84 76 69
81 87 66 71 70 69 56 59 58 56 45 40 51 79 88 86 89 92 82 85 86 87 82 73 76 88 82 85 86 85 82 77 76 66 69 63 72 76 76 84 89 90 92 94 94 89 80 76 70
85 85 84 77 83 70 67 64 55 56 47 43 43 49 76 81 83 88 89 85 86 85 82 78 75 81 84 85 87 77 84 76 75 76 71 66 72 69 71 71 69 70 74 73 72 73 77 79 79
80 89 86 92 87 87 75 73 67 54 45 47 44 47 45 63 82 78 88 87 85 80 82 78 70 72 78 86 79 78 78 68 65 74 70 68 73 73 71 76 71 66 65 64 72 75 79 80 76
85 91 94 80 82 69 67 74 56 49 52 52 48 50 46 44 58 70 80 82 87 87 80 75 68 77 78 76 76 74 70 74 66 69 72 68 67 70 75 77 81 76 73 72 77 80 82 85 83
84 98 93 80 85 83 62 70 52 49 49 51 52 48 42 43 43 39 69 84 76 78 80 81 75 84 75 72 74 75 71 68 71 70 72 68 66 67 76 80 80 78 81 79 75 74 72 71 74
94 96 86 81 87 74 80 67 53 43 48 51 50 48 46 43 43 36 33 64 83 83 78 84 77 77 74 75 76 78 76 71 71 71 73 68 68 67 76 78 79 70 74 74 75 76 78 82 80
65 72 70 74 71 91 81 65 59 53 52 52 54 49 44 42 40 40 34 34 70 80 89 90 82 79 80 86 88 88 86 84 80 76 66 67 67 67 72 80 72 74 75 76 75 78 81 86 89
63 66 66 58 58 79 71 69 62 57 55 53 50 52 46 41 37 44 37 36 36 70 86 92 88 89 82 84 87 87 87 85 79 79 73 74 78 82 83 82 86 88 89 86 88 90 92 91 90
70 67 64 67 68 69 68 82 76 59 59 54 48 46 45 44 42 48 42 37 37 42 89 83 91 85 89 87 90 95 93 94 93 90 88 74 63 61 70 82 91 94 96 96 96 96 96 96 94
65 52 58 68 87 92 74 90 82 62 65 58 56 52 46 42 40 46 40 40 39 39 54 85 92 88 86 88 93 93 96 97 97 93 74 62 58 60 58 63 64 64 72 81 96 96 96 98 99
72 48 64 78 74 83 84 85 61 71 74 62 53 53 46 41 39 45 44 38 41 49 62 77 92 89 91 96 97 98 96 95 81 74 69 71 62 61 64 68 68 76 85 84 79 80 87 97 97
56 78 80 69 69 83 77 74 62 69 62 57 53 47 43 42 39 43 47 51 63 69 70 69 70 66 82 82 87 95 90 81 80 80 75 68 67 68 67 69 76 78 83 88 93 93 92 95 96
57 66 98 96 91 82 54 60 53 42 38 35 35 36 36 35 46 52 53 60 67 68 72 68 66 65 69 79 73 77 76 78 76 71 71 68 68 73 79 81 83 86 85 86 90 94 94 94 95
66 61 85 86 95 81 53 66 48 39 36 33 31 33 32 34 36 39 55 56 60 66 74 70 67 65 63 64 68 64 68 72 71 68 69 70 74 79 82 80 83 85 86 88 92 96 98 96 97
66 81 54 73 71 86 65 55 41 35 34 35 38 40 41 38 39 41 55 62 76 79 76 69 67 65 64 64 65 65 66 66 69 70 74 78 80 73 78 82 85 86 87 87 89 90 94 96 97
60 48 72 89 72 69 70 55 50 43 48 45 45 45 46 46 45 46 44 52 76 82 81 71 65 59 62 62 61 59 65 66 67 68 70 72 73 72 74 79 83 84 85 87 89 89 89 92 93
70 74 68 68 81 88 64 53 37 41 44 47 46 46 51 53 52 52 55 55 71 80 81 75 69 66 68 64 66 66 67 64 66 69 71 68 70 71 74 76 78 82 83 84 87 86 84 85 88
73 67 59 85 76 79 79 58 37 41 43 44 43 42 51 54 53 55 57 63 77 82 80 77 74 72 70 69 67 69 71 69 69 68 68 66 68 70 69 71 74 78 81 82 87 86 84 83 83

GFSSGP_sfc_rhum_066.txt.gz
RH
69 74 84 66 61 77 73 45 38 42 42 31 34 48 70 66 68 70 88 85 85 91 86 84 86 85 84 83 81 81 82 81 78 72 68 67 68 69 71 74 71 68 70 71 69 68 65 66 68
76 70 70 70 70 79 55 37 34 39 49 42 35 60 67 74 70 94 90 85 84 86 86 85 87 87 85 85 82 82 81 81 79 73 67 68 69 65 69 67 66 72 72 72 73 72 70 68 67
73 76 70 83 79 66 51 29 25 38 38 44 39 64 72 76 76 84 87 83 82 86 87 87 88 87 86 84 82 81 82 81 80 76 69 69 70 71 74 68 72 74 75 75 75 75 74 70 69
81 88 85 79 72 50 38 31 29 40 49 35 48 70 75 88 84 87 83 85 92 94 93 91 89 89 88 86 83 79 83 81 82 78 71 69 69 71 73 72 76 78 76 76 76 76 74 73 70
92 89 80 91 67 43 36 32 30 42 40 40 33 77 83 76 79 80 86 83 95 98 94 89 90 88 88 85 84 82 81 84 84 79 74 70 71 72 74 77 78 77 76 76 74 74 76 75 71
92 83 82 85 62 41 34 37 38 32 31 33 34 68 89 93 90 85 76 88 91 92 91 86 89 90 89 86 86 83 83 84 86 83 78 73 73 74 74 77 77 76 75 76 75 71 71 74 71
84 91 79 66 60 46 37 34 48 47 51 62 45 50 92 96 93 88 86 92 92 93 95 94 93 92 92 90 87 85 85 86 88 86 84 81 77 76 75 75 74 74 74 75 75 74 70 67 63
85 90 86 67 54 50 41 30 46 52 60 44 56 82 95 86 92 91 92 94 94 95 95 96 97 96 96 94 89 92 93 93 91 89 90 90 86 82 79 85 81 76 76 76 76 73 71 67 61
78 93 86 76 52 51 49 46 47 45 60 74 62 78 66 76 78 90 95 97 96 90 90 92 91 99 98 94 89 94 92 94 95 94 94 94 96 93 93 91 86 82 77 74 73 72 70 72 73
91 90 81 60 56 54 53 46 45 56 75 93 94 89 79 88 80 84 92 96 97 96 97 98 98 99 97 78 93 98 93 95 92 94 96 97 96 95 86 94 88 83 81 78 73 71 74 72 73
85 84 69 66 69 62 53 50 49 57 65 71 90 92 89 96 81 67 92 95 96 92 94 95 95 94 94 92 97 96 99 98 96 94 96 95 91 96 98 98 96 96 88 88 83 85 83 76 70
90 73 73 69 71 72 55 52 63 58 56 61 84 84 89 91 90 78 76 93 94 96 92 90 88 91 94 90 90 90 88 93 96 96 94 91 98 98 98 99 98 98 97 94 94 94 88 83 74
88 74 77 68 78 77 63 63 64 58 49 66 85 84 95 92 95 88 76 79 86 92 92 91 88 89 87 89 97 93 90 85 84 79 80 76 90 96 97 97 97 97 97 97 97 96 93 90 84
86 76 72 77 83 86 70 68 60 58 49 64 76 89 93 94 90 95 88 87 87 82 87 94 89 88 85 82 90 83 88 81 84 82 76 67 75 78 81 80 91 92 92 96 92 96 90 85 83
88 91 86 84 86 88 84 72 71 64 52 51 53 65 83 86 87 85 86 88 86 86 82 92 90 90 88 82 83 85 83 77 81 80 77 69 69 70 73 78 75 76 75 76 80 80 84 86 83
89 85 97 80 82 87 84 82 71 60 56 55 52 55 58 72 83 82 83 86 90 90 86 84 72 86 89 86 86 80 78 78 72 76 76 74 72 71 76 80 81 74 71 72 78 83 85 86 86
94 99 93 93 86 88 84 80 65 56 53 56 55 56 49 52 59 76 71 86 86 88 87 82 85 86 84 82 83 84 84 75 74 77 72 75 72 73 78 81 81 81 82 80 75 75 75 74 73
92 99 96 96 89 82 91 86 61 55 55 55 54 53 53 49 46 44 59 84 86 88 88 89 87 83 79 81 78 79 87 82 80 77 72 75 73 73 79 83 82 80 79 79 78 77 81 81 81
66 77 86 83 86 87 87 82 74 56 61 61 61 57 51 48 44 44 40 68 88 90 95 92 87 84 81 86 86 88 88 82 77 74 69 72 65 68 78 83 80 81 76 75 76 79 80 84 89
59 63 74 78 80 78 87 82 65 60 59 59 53 59 54 46 46 45 42 41 84 86 89 95 89 92 77 75 83 85 87 89 83 82 78 74 73 74 77 80 83 84 86 84 84 86 90 91 90
69 60 71 75 74 78 86 90 78 62 60 55 55 54 55 50 44 49 48 42 45 80 91 86 86 86 84 86 95 96 95 95 94 93 90 81 79 86 90 92 92 94 95 95 96 96 96 97 96
77 60 64 66 81 87 79 91 74 63 64 62 62 62 55 52 49 47 47 41 43 44 79 91 88 86 89 94 96 95 96 96 97 98 90 68 69 70 68 65 65 62 68 73 86 97 97 98 98
65 60 82 80 89 89 91 90 63 76 73 58 56 63 59 52 49 46 50 40 39 44 52 91 96 96 96 94 93 95 98 97 95 94 92 94 91 87 83 81 76 76 86 86 84 82 85 97 98
68 85 88 82 91 98 80 84 61 73 73 72 65 62 56 52 49 46 54 51 59 68 71 84 96 94 92 96 98 98 97 96 93 91 93 90 86 82 79 78 78 81 83 89 92 94 95 96 97
68 76 99 98 98 86 70 76 60 46 46 54 47 46 46 43 52 50 60 60 65 67 72 74 82 85 88 91 93 97 93 89 87 88 90 79 78 81 82 81 83 86 86 88 92 94 96 96 97
62 66 94 88 90 74 58 74 49 43 39 38 38 41 42 44 45 52 62 63 68 69 71 71 74 74 74 90 87 94 93 87 84 82 78 76 77 80 81 81 81 83 86 90 92 96 97 98 99
64 79 54 77 72 82 67 59 46 40 48 48 48 48 50 48 46 47 56 67 71 76 75 74 73 71 70 71 76 78 86 87 82 80 76 78 80 77 77 81 83 86 89 90 91 96 95 96 98
59 52 72 84 78 74 71 67 56 52 54 48 50 52 54 57 54 53 49 53 78 82 82 77 71 70 71 71 72 66 71 70 70 70 73 74 75 73 79 80 84 86 88 88 90 94 93 95 96
71 72 71 71 81 81 68 54 43 47 51 49 52 49 54 54 55 57 57 56 68 81 84 84 77 71 72 70 67 68 68 68 68 70 74 78 74 73 76 77 81 84 85 85 89 90 86 88 91
74 72 68 82 75 84 78 58 45 50 52 50 51 51 54 53 57 60 64 67 73 78 82 84 83 78 75 73 68 66 66 68 70 73 75 74 76 77 78 79 80 83 83 85 88 87 91 86 88

GFSSGP_sfc_rhum_069.txt.gz
RH
67 74 79 80 72 81 66 60 41 53 45 35 42 56 77 76 65 68 93 89 90 92 87 84 84 83 82 82 80 80 81 79 72 68 71 74 77 77 76 72 70 70 69 65 66 71 71 70 69
76 68 84 92 84 76 59 47 38 68 54 44 38 69 75 80 91 94 92 89 88 89 86 84 86 84 83 81 81 83 81 75 70 68 68 71 72 75 73 72 70 70 71 70 68 70 70 69 69
71 71 89 94 93 65 57 36 32 38 43 53 47 69 79 92 83 87 90 85 88 92 88 86 87 86 85 81 82 83 81 76 71 71 72 72 68 69 66 74 73 74 75 75 73 72 71 70 69
84 92 88 90 90 66 41 29 29 60 70 61 50 59 90 93 89 93 82 86 95 98 95 89 87 87 88 86 85 83 79 78 73 70 71 72 72 68 68 74 75 77 77 76 75 73 72 72 70
94 91 88 91 83 59 44 35 45 54 72 63 48 54 90 83 89 84 88 90 95 98 95 89 88 86 86 85 85 86 84 81 76 70 70 72 72 72 71 74 77 77 77 76 75 73 72 72 69
90 87 95 98 72 53 39 38 50 45 62 68 63 55 84 92 92 92 90 95 89 94 93 88 89 89 88 86 86 87 88 84 79 74 71 71 72 74 76 77 77 76 76 73 73 74 74 72 67
91 89 86 83 69 56 38 37 43 44 56 63 52 50 92 94 94 92 93 95 91 97 95 96 94 93 91 90 88 87 89 87 85 82 78 77 77 76 75 77 77 76 76 75 73 70 70 68 63
91 84 89 84 70 56 38 50 47 48 50 38 41 64 89 92 87 95 96 94 96 98 94 98 98 98 97 96 91 90 90 90 89 88 87 87 86 83 79 84 81 76 76 76 75 73 68 64 61
80 96 93 83 67 51 45 50 50 53 60 73 43 69 70 82 88 95 96 92 94 94 88 88 90 99 97 95 95 95 94 95 94 94 92 92 95 93 93 92 86 84 80 77 75 72 70 74 72
89 93 76 64 54 49 52 46 54 63 79 85 94 79 80 86 84 92 97 96 96 98 94 87 86 98 97 81 98 98 97 98 96 97 96 97 96 97 92 94 88 85 83 80 74 72 74 74 74
77 91 66 59 68 72 54 47 54 68 76 73 67 74 82 91 78 83 88 97 96 95 94 91 90 98 96 92 99 100 99 99 98 97 97 96 94 97 98 98 96 95 89 90 87 88 87 78 74
82 75 65 56 80 78 60 50 63 59 55 53 80 75 82 88 90 75 79 92 94 96 96 93 96 96 96 92 93 98 98 99 99 98 96 98 99 98 98 99 98 97 97 93 93 96 90 88 80
82 78 74 75 83 83 74 63 62 63 60 84 86 81 82 83 80 82 75 82 84 90 88 94 97 94 91 90 93 90 90 94 95 98 96 96 97 98 98 98 98 97 96 97 96 96 94 94 92
70 74 76 82 88 89 79 72 65 58 64 91 88 88 82 88 89 80 85 89 84 71 72 86 92 96 93 86 93 92 85 80 85 86 90 87 92 97 98 98 97 96 96 96 96 96 96 92 88
80 88 90 87 86 87 94 79 78 64 68 78 91 92 89 89 91 84 81 87 84 79 77 85 90 97 97 92 96 93 90 85 87 84 78 73 80 87 87 86 87 93 91 89 94 86 87 91 88
85 92 96 87 83 86 89 90 75 68 62 62 59 66 90 90 91 89 85 82 84 80 80 86 81 92 95 96 96 95 85 82 78 84 81 72 68 73 79 83 82 76 76 79 83 86 89 89 89
88 100 95 92 80 91 90 86 75 64 59 62 62 57 54 62 67 86 89 90 86 76 78 85 82 80 82 91 94 94 94 85 82 78 82 77 71 71 78 84 85 85 81 79 77 81 75 84 76
94 98 89 94 92 89 88 83 68 64 61 60 61 63 58 54 53 65 72 91 90 88 84 80 87 89 87 92 94 94 93 94 88 81 86 73 74 77 81 86 85 86 89 88 80 77 82 82 80
77 95 95 87 87 86 87 88 75 74 61 62 59 58 55 51 47 47 46 77 94 93 96 91 94 93 94 98 95 94 95 89 88 91 77 76 74 73 80 88 88 89 90 86 79 80 82 84 88
78 93 97 88 87 78 86 88 80 83 73 58 56 55 56 53 50 45 46 43 90 93 96 92 90 90 82 87 85 89 95 95 80 80 74 76 76 73 76 81 88 83 85 82 87 87 88 89 90
71 91 96 93 88 84 88 89 87 84 72 61 58 55 55 53 49 47 47 45 44 89 96 92 86 85 84 84 94 97 96 96 92 89 85 85 83 82 84 86 90 93 95 94 94 95 95 96 96
74 60 66 82 79 94 84 95 75 72 69 66 68 68 61 56 53 50 48 50 45 49 89 94 94 94 94 96 97 95 97 96 95 95 96 90 85 88 88 86 88 87 82 79 83 95 96 98 99
79 70 63 69 89 90 92 95 70 69 71 65 62 62 63 59 55 51 49 50 47 43 56 92 95 96 95 96 94 96 97 97 99 98 93 92 92 92 92 93 91 85 84 83 82 84 83 96 98
69 83 90 86 97 99 88 87 64 67 73 62 57 62 61 59 58 52 48 53 52 60 67 85 93 96 96 98 97 97 95 98 98 98 98 98 97 96 92 86 78 75 80 85 90 93 95 96 97
70 75 99 98 99 97 82 86 67 50 47 60 64 56 47 47 52 53 53 59 61 66 64 79 94 94 94 96 98 99 98 96 93 95 96 96 95 91 85 82 82 82 85 89 92 93 95 96 97
78 72 89 90 95 90 73 88 53 44 46 44 46 49 49 49 51 56 69 66 71 69 73 77 81 85 83 92 94 93 98 98 97 95 94 91 87 84 85 84 81 81 82 88 92 96 97 98 99
86 84 61 75 79 81 69 61 47 48 52 52 53 54 56 55 55 52 54 73 74 74 75 74 73 73 74 74 79 90 94 94 93 93 89 85 84 85 83 82 84 86 87 91 92 96 96 96 97
60 54 72 85 80 74 70 71 63 58 58 54 58 58 59 60 60 62 64 65 78 82 83 80 78 74 74 76 80 79 81 80 81 83 86 83 81 80 82 82 87 89 89 89 90 94 95 97 97
68 73 72 73 79 82 74 58 50 48 58 60 60 58 62 63 66 69 71 72 78 84 87 86 81 76 76 78 78 79 78 75 71 71 73 76 75 77 78 81 85 86 84 88 90 91 92 95 94
86 80 68 80 77 84 76 61 51 56 54 57 64 62 63 63 64 66 69 71 73 80 86 87 87 86 81 80 77 75 75 76 71 70 75 74 75 75 80 83 84 86 87 88 89 90 90 95 94

GFSSGP_sfc_rhum_072.txt.gz
RH
72 82 81 84 91 76 81 70 61 50 53 46 47 68 72 82 66 70 85 88 94 91 88 84 84 84 83 81 78 82 79 76 74 76 80 80 80 76 75 71 72 66 65 69 70 72 72 71 72
77 78 90 94 92 89 68 54 46 56 68 51 43 76 74 91 90 94 92 90 88 90 89 85 85 84 82 79 80 82 75 71 71 76 78 79 78 74 71 72 71 68 67 72 73 72 72 72 75
74 81 94 88 83 81 65 48 42 54 53 64 52 72 87 97 85 86 94 84 92 94 92 86 86 85 82 79 83 80 75 71 71 76 78 78 78 74 74 72 72 73 72 73 74 72 72 71 76
85 94 90 91 80 70 55 48 47 68 69 75 74 62 82 90 94 91 83 89 97 98 96 89 87 85 85 86 84 78 76 71 71 74 75 76 72 73 74 73 76 77 76 73 73 72 72 72 72
95 98 92 96 74 73 53 36 42 60 70 63 66 63 65 86 92 87 88 95 96 99 96 90 88 86 85 86 84 82 78 72 72 72 72 70 69 71 70 74 78 78 76 74 71 71 70 70 70
94 90 98 96 82 63 56 41 43 58 59 55 76 75 69 96 95 94 88 95 95 96 95 88 89 88 87 86 86 86 84 75 72 73 72 74 68 72 73 76 78 77 76 74 73 72 70 69 64
96 95 85 88 82 74 52 44 63 64 66 59 60 67 70 92 93 96 93 92 96 96 96 97 95 93 90 90 89 87 86 81 77 77 76 78 78 75 74 77 77 77 76 74 73 73 71 66 61
95 88 84 80 80 79 49 45 49 57 59 52 46 72 70 93 93 89 96 91 98 98 98 96 98 98 97 96 91 90 90 88 85 83 85 86 85 82 79 84 82 78 78 78 75 71 68 65 62
87 95 83 79 76 67 46 46 56 60 53 55 45 57 68 93 89 90 96 97 95 94 97 98 94 98 98 97 95 92 93 94 93 92 91 93 96 93 92 92 86 84 80 77 74 71 69 69 69
94 90 74 58 65 64 43 50 54 78 68 86 54 76 87 85 86 92 90 97 97 98 95 87 87 98 97 89 98 98 97 94 98 97 96 97 96 97 93 94 89 86 85 83 74 71 73 72 76
87 88 61 70 58 61 48 58 56 73 70 79 56 80 76 79 85 87 91 95 96 95 95 92 88 98 96 94 100 100 100 98 94 97 98 97 96 98 98 98 97 96 90 94 89 90 87 79 76
92 70 67 60 57 71 68 60 63 65 56 58 52 74 80 82 82 84 92 92 95 98 96 93 92 99 96 96 99 99 99 100 96 98 97 98 99 98 98 99 97 96 96 92 93 95 91 88 86
93 77 65 62 64 79 83 76 77 65 74 74 65 73 78 67 78 79 84 81 90 90 93 98 97 98 97 94 96 99 99 99 98 98 97 98 98 98 98 98 98 98 97 96 96 96 94 93 92
82 75 66 70 64 74 80 79 86 70 68 86 72 80 82 77 81 82 78 79 85 80 90 86 86 93 96 98 95 95 97 96 98 98 98 96 97 98 98 98 98 97 97 96 96 96 96 96 92
65 86 86 74 72 76 91 82 86 73 84 94 73 76 82 84 85 85 79 80 81 79 81 81 71 87 95 95 97 97 96 90 91 92 93 94 90 95 96 98 98 97 96 94 96 95 92 93 90
90 83 95 71 83 95 81 86 83 78 80 84 90 86 76 78 84 84 86 77 81 75 75 78 70 80 89 96 98 96 97 97 96 92 83 80 78 85 90 92 88 85 94 92 90 92 92 94 94
89 96 100 91 83 90 85 93 87 77 76 68 72 77 92 93 82 82 78 81 84 76 80 85 85 87 91 96 96 97 95 98 96 96 92 82 72 75 80 84 84 82 81 80 81 85 90 88 89
94 98 95 97 89 85 92 90 72 80 76 77 74 73 72 74 83 85 89 88 86 83 84 81 83 85 90 94 95 95 95 98 97 95 89 82 73 74 75 83 85 89 88 87 87 83 83 82 81
73 79 100 94 86 86 91 84 77 76 87 74 74 66 69 65 61 69 83 92 95 93 87 79 83 86 86 88 91 90 92 91 96 92 79 81 78 78 74 77 86 90 93 91 83 82 83 88 88
74 83 93 87 86 82 84 88 81 82 91 88 71 62 56 58 52 60 66 72 94 94 98 88 79 81 77 77 75 84 84 87 86 90 87 81 79 77 78 79 85 89 92 85 85 87 90 90 91
84 89 95 99 87 84 87 92 92 79 82 82 67 63 56 51 49 50 51 49 51 90 97 96 84 83 85 85 96 98 97 98 98 94 88 86 79 81 84 85 89 89 93 94 92 93 91 93 96
88 74 78 93 84 97 81 98 89 90 81 82 83 69 59 57 55 52 51 49 50 46 75 94 96 96 97 98 99 98 98 98 99 99 98 97 94 94 96 97 98 98 97 96 96 97 96 97 98
92 70 75 79 88 91 93 96 80 80 90 73 72 67 61 59 57 52 51 49 50 51 51 81 94 96 96 97 91 94 93 92 97 99 98 98 98 97 96 95 96 96 93 86 84 79 82 96 96
75 85 87 92 93 96 92 84 65 68 62 64 62 60 59 60 58 54 50 51 54 58 61 76 88 93 96 98 98 97 98 98 99 99 98 98 98 98 98 96 95 90 88 87 86 89 91 94 96
78 87 99 98 98 97 80 88 83 49 49 53 58 52 52 56 62 64 62 60 64 68 66 75 88 91 94 96 97 98 99 98 96 97 98 98 98 97 96 95 89 87 84 86 90 92 95 96 97
78 71 88 90 95 96 90 88 59 47 54 54 52 54 55 57 57 57 74 74 77 75 76 74 77 82 79 87 93 94 96 98 98 98 98 98 97 97 96 97 94 86 82 88 91 95 96 97 98
80 83 66 77 72 94 80 57 47 52 56 58 58 60 68 68 68 70 70 76 87 87 86 81 74 72 72 73 76 83 93 95 96 96 97 98 97 96 95 94 90 86 89 91 92 94 94 96 96
71 60 72 85 82 84 77 66 63 60 66 62 64 68 70 71 72 72 72 75 79 86 90 88 82 78 77 77 78 78 84 89 91 94 94 94 92 87 89 86 86 87 88 90 92 94 94 96 97
68 73 72 74 82 79 75 56 56 57 65 67 71 72 74 75 75 76 73 74 77 76 84 86 88 87 83 81 81 82 80 78 78 80 81 82 82 81 83 83 85 86 87 89 90 91 90 94 96
83 81 67 83 75 81 73 63 65 59 64 69 75 75 76 78 79 79 80 80 80 83 84 84 85 88 88 87 86 82 80 80 80 78 79 80 80 77 78 81 82 81 82 86 89 89 90 92 94

GFSSGP_sfc_rhum_078.txt.gz
RH
56 48 50 58 48 42 41 34 28 27 32 27 33 34 34 44 34 45 60 55 45 46 49 63 83 81 81 81 81 82 80 80 79 79 80 79 79 77 74 70 69 68 68 70 74 68 71 73 76
53 51 56 54 56 42 36 28 35 28 26 31 36 48 49 50 56 61 72 62 51 46 51 53 83 81 81 80 82 82 78 80 81 82 83 81 80 76 72 70 69 70 71 72 72 74 74 76 77
50 54 63 70 52 43 33 25 28 24 31 37 42 48 59 61 60 62 65 55 53 48 50 55 83 85 82 82 82 78 77 80 82 84 84 82 79 74 71 70 75 70 73 74 76 78 80 78 78
53 70 60 72 48 35 30 22 25 24 34 40 37 52 59 67 61 80 59 53 55 48 50 77 85 85 84 87 83 75 73 78 82 83 84 82 78 71 70 74 81 82 79 76 75 78 81 83 81
58 59 61 62 50 34 25 23 23 26 25 33 44 46 62 67 56 69 72 54 52 50 50 61 86 85 85 87 83 78 73 77 80 83 81 80 75 70 71 73 77 78 76 74 74 72 72 78 80
62 49 55 58 39 31 30 28 26 28 25 24 35 38 53 73 66 84 81 59 50 50 53 56 82 86 88 87 83 79 77 74 76 81 82 80 76 72 71 74 75 77 76 72 71 70 68 68 67
64 55 51 39 36 33 30 26 32 31 28 27 25 41 33 73 81 91 75 83 55 51 56 58 62 69 90 87 84 81 79 78 79 79 80 80 78 75 71 72 73 75 73 72 72 70 67 66 65
60 57 53 40 38 35 26 29 31 33 30 21 24 41 37 45 78 87 90 92 67 62 60 61 61 51 62 68 89 84 82 83 80 82 82 87 81 79 79 78 76 77 77 76 75 71 65 63 63
53 77 60 43 36 32 24 34 30 29 29 26 28 32 29 50 82 91 91 97 91 80 68 66 63 53 48 64 74 86 88 87 84 83 89 80 59 58 65 79 86 85 80 76 73 70 67 71 73
61 64 50 31 27 28 25 35 34 36 34 33 34 31 51 73 68 87 93 92 94 88 81 76 65 53 48 54 69 63 61 54 49 52 58 48 49 48 50 74 90 88 85 83 74 70 68 64 31
48 63 37 34 32 31 29 33 31 39 42 31 32 34 56 67 73 85 92 96 96 94 96 78 70 56 48 50 68 75 63 56 51 46 46 44 49 57 52 53 58 54 79 47 56 53 36 34 33
75 46 36 37 37 40 40 32 36 40 31 26 30 42 53 70 70 71 80 90 92 96 95 80 75 62 50 46 58 70 77 64 62 53 48 51 54 56 50 48 49 49 45 42 40 35 35 37 38
59 51 43 37 42 45 42 41 38 38 34 27 30 39 53 66 58 66 73 84 91 94 97 97 85 69 58 54 50 61 69 73 61 56 54 49 51 54 50 47 46 43 41 38 37 37 37 40 44
45 51 49 47 47 49 47 45 44 38 30 36 33 38 51 62 63 65 69 76 82 83 95 97 97 80 66 59 60 55 58 67 75 69 59 56 54 57 53 49 48 46 42 39 39 42 46 45 46
71 78 61 52 48 55 42 57 56 42 39 37 37 41 49 62 59 60 66 72 74 77 89 95 87 90 82 70 68 67 66 63 69 71 70 64 61 57 54 51 52 49 46 39 43 45 49 49 47
76 79 95 51 50 46 56 58 38 37 46 42 38 44 57 66 60 61 61 65 70 80 80 78 81 77 68 76 74 74 69 70 69 71 73 74 65 60 53 51 52 49 49 46 48 51 51 48 46
93 98 87 57 42 46 58 68 39 43 52 45 38 48 72 83 67 64 59 65 69 72 74 77 89 78 60 68 78 74 70 73 67 67 62 69 65 62 58 53 52 52 52 52 50 49 46 47 49
99 86 69 62 46 49 53 56 63 56 50 48 46 56 84 83 76 73 71 78 72 66 78 82 85 80 70 71 80 82 85 78 73 67 60 59 57 58 57 55 52 51 53 50 52 48 46 48 48
100 96 91 58 68 54 87 68 75 70 62 57 61 64 67 81 92 95 82 87 79 70 80 77 81 79 69 81 83 84 85 83 77 72 66 63 63 64 67 72 62 53 52 50 47 48 52 56 59
98 95 96 90 71 57 88 83 76 72 69 61 63 63 83 92 93 92 94 90 86 90 85 84 80 78 80 87 76 79 82 85 72 67 66 66 70 71 71 77 86 71 64 54 52 56 63 66 67
96 83 79 97 84 75 78 92 88 75 74 74 70 62 71 76 86 89 95 90 98 96 96 89 87 81 79 80 88 91 87 89 90 83 77 72 74 76 85 87 90 88 86 78 67 71 70 72 72
86 66 90 96 98 97 83 92 98 88 82 83 67 65 75 74 61 66 70 73 82 83 83 83 85 79 76 73 80 89 95 96 98 97 95 97 90 92 94 96 98 99 95 94 85 78 74 72 77
77 78 80 86 68 79 95 95 92 85 89 84 76 77 74 72 65 56 48 49 51 55 55 64 81 82 81 82 84 83 88 95 97 96 93 99 97 97 99 99 99 99 99 99 96 93 93 84 77
79 64 72 68 66 91 99 92 90 78 53 68 67 74 69 65 60 53 53 52 57 61 65 66 67 82 87 84 78 82 81 92 97 96 96 97 95 97 97 99 98 96 96 96 96 98 96 93 88
84 65 96 90 96 94 95 76 91 47 46 50 74 68 74 64 59 59 61 58 62 64 60 62 66 73 75 84 86 86 85 84 89 87 90 92 93 96 97 97 97 98 97 97 96 96 98 96 94
70 67 66 70 84 95 57 86 86 48 52 74 73 74 65 68 57 62 59 59 60 63 61 53 54 58 55 59 69 76 83 87 86 85 90 87 88 88 90 93 92 91 90 95 97 96 95 96 97
64 69 48 70 76 63 70 57 48 48 54 66 78 77 80 63 54 54 54 52 51 52 55 55 52 51 54 56 56 57 65 78 78 80 81 84 85 88 87 88 89 91 89 90 87 90 89 89 89
50 42 60 70 78 77 68 53 57 53 58 56 60 66 68 60 58 56 52 52 52 51 48 47 48 50 51 52 56 55 57 59 68 74 79 82 82 86 88 91 93 89 84 82 82 79 77 78 80
55 51 51 48 58 52 56 57 40 49 50 54 58 56 54 54 50 46 43 42 42 45 49 50 49 50 50 49 53 54 55 57 56 59 66 74 77 85 90 90 86 80 74 72 74 73 74 73 74
64 53 42 48 57 53 42 48 44 42 49 52 56 52 49 49 45 45 43 40 41 41 42 48 52 53 54 51 50 49 53 55 57 55 57 60 66 72 83 84 79 72 68 66 66 70 70 68 73

GFSSGP_sfc_rhum_081.txt.gz
RH
56 41 39 47 50 38 38 32 21 20 17 16 21 26 26 22 36 52 52 43 40 39 55 65 85 82 82 82 81 82 81 80 79 81 78 78 79 78 75 72 69 69 71 70 63 68 70 74 77
48 42 45 46 50 42 33 22 24 19 19 17 28 34 36 35 44 57 62 56 46 37 56 56 85 84 83 84 81 81 81 80 79 81 81 80 79 77 73 71 70 73 73 73 66 70 73 78 79
47 45 50 45 48 44 30 20 20 17 18 26 31 44 41 44 59 62 54 49 53 49 54 63 84 84 83 84 81 79 80 80 82 81 82 82 80 75 72 70 75 69 78 74 74 76 77 78 78
41 52 52 47 36 32 28 19 16 17 19 21 36 36 50 50 55 61 75 50 52 56 54 82 84 85 84 87 83 78 79 78 82 82 83 83 79 73 71 77 72 80 72 77 79 82 80 81 78
41 40 45 43 40 30 20 19 17 18 19 25 26 38 43 53 55 58 68 65 56 57 63 62 86 85 86 88 84 78 79 80 80 83 83 83 78 71 73 80 80 80 78 77 77 80 81 81 80
50 39 43 42 32 24 22 19 18 17 19 18 25 33 34 48 53 68 80 76 76 57 63 58 82 86 87 86 83 80 80 81 82 83 83 81 76 72 68 79 80 77 76 75 73 72 73 77 78
53 43 38 32 27 23 21 17 20 20 19 20 18 24 31 57 56 71 88 88 85 85 64 64 62 74 92 88 84 82 80 82 84 85 85 81 80 76 71 73 74 76 75 73 72 69 68 67 66
43 44 42 32 28 26 17 18 17 18 22 17 17 28 29 42 66 73 88 97 92 84 81 80 68 59 59 70 87 85 84 85 84 88 86 88 84 75 75 70 75 78 78 76 74 70 67 66 65
39 75 56 38 31 25 17 18 16 16 22 21 20 20 22 45 68 79 86 90 94 84 83 89 79 61 52 64 70 84 88 86 88 86 89 80 63 62 70 74 78 84 82 77 74 69 68 73 72
48 54 46 28 22 23 19 18 17 21 24 27 25 20 22 59 70 77 84 89 88 90 78 93 93 74 58 60 70 55 53 56 50 57 61 56 53 51 50 78 87 88 85 82 74 71 70 67 35
43 49 30 26 23 22 24 22 18 23 30 25 28 26 30 48 59 72 78 87 88 91 94 90 88 88 59 60 72 52 49 43 45 49 53 44 45 52 54 65 68 65 83 58 64 62 45 34 30
56 40 37 31 26 28 32 28 25 23 24 20 22 27 36 45 52 67 80 90 90 94 89 89 88 91 61 54 71 66 47 42 42 45 44 43 48 56 47 50 52 50 51 43 44 41 35 33 32
39 38 34 33 35 30 30 34 30 27 23 22 24 37 31 54 58 59 65 75 82 88 91 91 89 94 70 48 76 76 67 48 46 43 42 44 51 57 49 46 45 46 42 40 41 36 32 33 34
34 35 35 35 36 37 35 34 34 30 23 24 27 29 32 33 57 58 58 59 73 78 91 91 93 96 91 47 62 77 74 67 57 50 49 44 47 52 48 45 44 43 42 41 36 35 36 36 39
44 56 52 44 44 45 41 48 41 28 26 29 28 30 30 37 49 53 56 53 69 79 82 84 89 95 94 54 52 63 74 74 69 58 50 50 50 50 47 48 52 51 48 37 36 36 39 42 40
57 60 84 44 45 45 48 65 32 26 29 34 33 31 33 38 46 54 54 51 61 77 84 82 86 92 89 76 68 57 54 66 81 75 71 60 57 53 53 56 55 53 46 45 39 42 46 48 45
65 86 67 54 42 46 53 54 32 24 28 34 35 35 35 38 49 58 56 57 60 70 76 87 89 91 90 67 79 68 62 69 59 63 67 68 64 60 56 50 52 49 51 49 46 48 48 50 47
79 95 74 60 46 48 51 45 39 47 45 32 37 34 39 48 67 80 74 70 61 69 73 82 85 88 86 71 79 83 73 71 62 65 63 64 67 63 59 57 58 56 58 54 53 51 49 48 47
81 98 96 82 44 45 49 45 36 61 58 54 36 33 41 54 83 88 90 81 73 72 78 83 85 87 84 82 84 87 84 85 84 72 65 65 60 60 66 69 68 63 64 55 51 51 51 54 57
79 96 95 76 52 53 42 53 38 57 63 63 59 45 52 86 94 97 95 94 90 88 88 93 90 90 85 84 82 83 83 83 80 74 67 64 64 67 69 76 78 76 80 75 70 55 56 56 59
94 83 84 100 73 59 61 91 75 54 56 59 62 60 71 78 94 96 96 95 98 92 96 87 88 92 91 90 91 82 82 88 90 86 81 78 71 73 78 81 81 86 91 94 91 89 66 77 78
94 69 89 95 71 86 60 87 88 71 68 80 72 73 80 84 85 89 92 97 98 92 95 96 96 94 93 89 92 90 92 91 93 89 90 88 81 84 89 88 90 91 93 94 95 93 95 82 85
96 68 71 85 96 87 78 72 88 89 84 92 88 88 83 84 84 88 91 85 82 82 95 92 90 91 89 88 91 94 94 94 97 99 96 94 92 93 86 94 92 96 97 98 97 100 99 100 97
75 81 84 85 95 95 98 75 96 98 96 80 84 84 71 66 83 88 74 64 67 66 66 68 73 81 80 81 87 88 94 96 96 95 98 96 95 96 96 97 96 97 98 98 99 99 99 99 98
84 78 97 100 99 98 98 65 96 93 65 78 90 84 76 72 75 85 78 70 67 66 67 72 71 72 75 86 87 85 82 91 92 84 90 88 87 92 91 92 94 97 98 98 98 98 99 98 98
86 62 84 94 91 92 67 91 93 87 82 88 80 79 81 78 78 75 65 68 62 63 59 56 56 56 54 58 65 71 84 94 86 84 86 84 86 87 86 91 93 94 94 97 97 98 98 98 98
60 66 44 56 45 62 77 87 70 73 84 81 81 79 78 82 77 67 67 50 49 49 50 51 51 53 53 54 54 55 59 72 78 77 84 90 89 93 92 94 97 97 95 95 95 98 97 94 95
54 40 63 64 77 74 62 62 68 71 81 81 86 86 80 68 60 56 47 47 47 46 46 44 45 47 48 51 52 53 58 57 59 68 73 73 77 84 92 94 94 95 94 94 94 91 84 86 85
53 46 40 41 52 49 56 61 40 48 52 60 64 67 67 63 49 43 40 38 37 38 44 46 47 49 50 47 46 49 52 56 57 56 58 66 71 77 90 95 96 95 92 89 86 82 81 79 79
53 40 35 50 53 43 43 56 36 42 44 48 50 48 46 45 44 41 39 37 39 40 40 43 46 47 48 48 47 47 47 51 53 55 55 55 62 69 84 90 92 91 88 79 76 77 75 75 76

GFSSGP_sfc_rhum_084.txt.gz
RH
58 48 46 59 83 65 60 51 35 35 28 18 17 29 39 39 60 85 62 56 46 68 70 78 84 83 83 83 84 85 82 81 84 81 79 79 80 78 75 71 70 71 68 67 70 71 70 74 74
57 46 54 70 75 69 52 33 33 28 22 18 25 35 40 64 59 68 75 61 53 59 72 70 85 84 84 85 84 85 83 81 83 82 81 81 80 77 73 70 71 76 71 67 67 72 78 77 77
54 46 75 72 68 68 52 31 25 21 19 20 47 43 61 73 67 69 78 56 56 63 64 70 85 85 85 86 84 83 82 82 82 82 82 82 81 75 72 72 76 76 74 68 71 75 81 80 78
52 62 67 79 54 46 43 34 27 22 19 21 36 51 59 64 66 72 69 63 66 64 60 85 86 86 86 87 85 82 81 81 82 82 82 82 80 76 72 78 69 78 72 74 78 78 80 83 79
54 58 68 61 52 39 29 28 26 24 21 23 26 48 68 65 59 73 82 78 72 67 77 78 86 85 87 88 85 83 81 82 84 83 82 81 79 76 76 73 72 70 76 80 82 79 80 81 79
70 57 67 63 46 32 29 25 25 23 20 19 27 34 67 67 65 80 87 91 88 90 78 73 83 87 88 88 85 83 84 83 85 84 84 82 79 76 76 68 71 77 79 78 78 81 79 81 79
74 65 62 49 42 32 25 21 23 23 23 21 24 35 47 74 71 82 89 88 90 90 89 88 86 85 90 89 85 84 86 85 84 83 84 83 80 78 70 77 74 75 78 77 76 73 73 74 76
55 60 65 52 42 34 22 19 19 22 22 18 19 31 40 60 77 86 92 94 92 94 93 90 90 82 84 89 86 86 88 87 86 87 90 88 83 79 78 72 84 72 80 80 78 73 70 70 69
45 74 73 56 43 35 23 23 18 16 20 18 20 24 24 62 81 88 93 94 96 93 94 96 89 89 89 88 84 88 89 90 93 93 90 84 71 63 72 81 87 83 83 81 76 73 74 76 74
58 71 62 39 34 32 25 23 21 20 20 22 25 25 29 78 85 92 94 95 94 92 87 90 93 89 87 84 89 82 84 87 80 83 78 66 68 68 66 84 83 87 86 84 78 74 76 73 68
54 65 44 35 29 30 29 26 23 29 28 22 26 28 27 64 83 86 88 90 93 90 93 91 86 93 90 89 95 69 72 75 75 77 73 63 68 76 86 95 94 98 92 90 86 86 77 66 58
64 49 44 42 36 35 32 27 32 32 31 22 23 24 46 62 72 82 86 91 91 93 92 90 90 92 94 94 93 79 62 61 61 69 65 73 69 72 80 86 90 87 89 80 80 76 64 58 48
43 41 34 34 35 36 35 39 33 34 28 24 24 26 40 51 70 75 84 85 89 91 88 90 92 92 93 94 94 87 56 53 59 63 61 63 73 77 72 69 72 72 68 67 65 64 53 49 45
44 43 41 39 38 38 40 39 39 30 30 29 27 31 33 45 56 79 79 85 86 83 87 90 92 94 94 95 96 85 91 62 55 60 62 62 71 72 68 66 66 64 62 58 57 54 52 50 51
49 60 54 50 44 46 40 50 51 34 28 31 31 28 31 47 42 58 69 77 76 79 86 92 93 93 94 94 96 85 92 84 74 68 60 58 64 66 64 63 66 62 60 54 54 50 50 56 57
67 70 83 51 49 46 48 68 45 40 36 33 32 33 35 44 43 63 69 64 81 81 87 88 83 93 94 95 95 84 86 92 89 67 63 64 64 63 66 70 69 67 66 60 59 56 59 68 67
76 94 78 63 43 46 51 61 45 36 34 32 32 38 42 47 45 63 68 75 74 84 84 90 88 94 89 90 89 89 80 87 87 91 88 73 69 67 71 72 72 67 67 66 62 59 64 71 69
86 85 87 89 59 60 57 59 43 44 48 54 31 32 48 50 68 84 88 90 81 83 82 89 89 90 93 96 88 85 90 85 87 89 88 80 79 75 75 71 69 67 70 71 67 66 66 69 68
73 77 82 72 58 78 75 63 50 55 69 80 73 57 51 62 92 88 94 92 95 89 89 92 93 85 90 98 90 92 96 95 92 88 84 81 85 86 79 82 85 81 77 69 67 67 66 72 70
87 82 88 72 66 75 83 63 49 49 76 72 75 76 70 86 90 91 94 93 94 96 89 94 90 91 84 94 93 87 91 94 92 92 82 80 81 80 82 86 89 87 90 83 83 88 80 72 72
91 78 91 97 89 76 68 69 61 63 63 61 60 77 86 88 91 91 90 95 98 96 97 96 97 92 94 97 94 91 92 94 94 92 95 94 89 87 87 88 92 95 96 98 94 93 95 97 89
98 72 76 99 96 94 80 98 72 80 73 65 78 80 91 93 94 93 94 97 99 98 97 98 97 97 94 97 96 97 96 94 98 97 98 98 91 93 93 93 94 96 98 98 98 97 98 98 94
95 73 91 89 93 87 87 97 92 84 85 84 93 90 91 90 91 93 95 93 93 95 98 98 97 98 96 97 97 97 98 98 98 98 99 98 98 96 94 96 96 97 97 98 97 98 98 99 98
73 80 89 95 98 90 87 89 98 97 97 89 90 89 92 93 92 93 91 91 92 94 95 96 97 94 95 95 96 97 98 97 98 98 98 98 97 97 97 96 97 96 98 99 99 98 98 98 98
84 95 99 99 99 99 94 78 95 91 90 85 92 94 93 92 92 94 94 92 85 85 83 75 76 79 90 92 92 94 94 96 95 93 94 96 95 96 96 97 98 98 97 99 99 99 99 98 98
85 96 99 97 98 98 76 95 98 94 90 85 90 90 90 92 82 84 91 88 74 67 67 65 65 65 64 68 82 84 91 96 94 95 94 93 92 96 94 96 96 97 96 98 99 98 99 98 99
73 94 72 99 67 93 98 99 96 94 92 90 92 91 92 89 87 82 72 63 61 56 55 55 58 59 61 63 65 67 69 78 85 90 91 97 95 96 95 96 96 97 98 98 99 99 99 99 98
60 46 76 91 98 95 85 93 99 98 96 91 89 91 85 78 80 62 60 61 54 55 57 57 57 60 58 57 60 63 67 67 68 70 80 84 87 86 95 98 98 98 98 98 98 99 97 97 98
63 61 54 55 69 81 82 95 58 89 86 91 90 82 64 67 54 48 47 45 46 48 54 57 58 59 61 60 59 60 62 64 66 67 67 72 80 86 91 96 98 98 99 98 98 97 96 96 96
63 50 46 82 67 69 75 80 51 57 56 55 58 57 50 48 49 48 48 48 51 53 54 58 60 62 62 61 61 62 63 64 64 66 66 66 70 74 90 94 97 98 97 96 97 96 94 93 92

GFSSGP_sfc_rhum_087.txt.gz
RH
63 61 67 72 91 93 94 78 60 50 40 31 26 28 55 78 68 72 74 67 80 82 82 81 84 84 84 83 80 82 84 87 84 82 79 77 80 78 73 71 70 70 68 65 73 74 72 73 70
73 57 70 84 96 94 87 61 50 40 31 27 40 51 55 86 75 82 82 66 73 77 82 82 86 86 85 85 82 82 79 83 84 82 82 83 80 76 72 70 72 73 73 71 66 76 75 76 70
65 55 86 94 96 92 76 49 40 30 28 27 56 55 68 88 76 85 84 71 67 78 79 83 87 86 86 86 84 81 80 81 86 83 82 83 81 78 70 75 78 75 76 78 71 82 79 78 72
64 71 78 91 92 69 60 50 38 36 30 27 44 71 73 69 76 85 82 73 74 81 76 87 88 87 87 87 86 82 83 79 84 83 83 83 80 79 75 79 79 67 68 68 72 83 81 80 75
70 76 94 93 82 61 50 40 37 36 33 26 34 60 83 75 82 88 92 84 86 89 84 86 87 86 88 87 87 85 82 83 83 83 83 82 81 79 78 77 70 65 68 78 78 80 81 81 76
80 75 93 94 70 49 41 33 34 33 30 26 26 61 78 76 83 95 94 94 92 92 89 83 86 84 88 86 86 86 84 82 85 84 83 82 82 80 77 72 66 71 78 82 79 79 80 81 77
89 91 90 78 63 49 39 29 31 31 29 26 27 36 73 82 89 95 96 92 93 92 90 88 88 85 92 91 86 87 86 83 86 85 84 84 83 78 69 68 73 78 81 81 84 81 81 81 78
68 73 84 84 73 60 36 28 24 26 25 21 22 32 51 73 93 96 95 94 94 95 93 89 88 84 84 88 90 89 90 87 84 85 88 88 87 80 76 81 84 82 83 82 81 78 76 76 75
52 84 91 79 66 55 35 34 26 23 25 21 25 25 48 84 92 96 98 97 96 95 97 95 94 90 87 84 82 82 93 90 94 94 92 89 74 76 78 82 87 84 84 82 78 76 77 79 76
64 88 75 57 51 47 37 34 33 32 29 31 25 30 86 88 93 94 94 96 97 96 98 97 96 94 91 84 89 85 89 97 92 91 88 79 67 66 71 86 88 87 87 84 79 77 79 76 75
66 73 55 50 44 42 41 37 31 34 38 37 34 31 70 94 94 94 95 93 93 92 93 94 94 94 92 92 94 94 90 98 88 91 84 77 67 68 80 90 81 95 94 96 89 88 82 79 71
73 57 54 51 46 45 43 37 40 39 36 30 31 29 43 89 88 89 92 92 95 93 89 92 93 92 93 96 96 95 94 89 90 84 91 79 76 82 87 91 98 98 98 96 96 95 81 70 61
60 58 49 46 44 43 39 42 40 39 37 29 27 31 46 66 69 76 84 91 93 94 91 90 95 94 92 94 97 96 90 84 84 83 80 84 79 87 87 94 95 98 97 93 93 87 74 67 59
55 58 55 51 47 43 46 42 44 41 35 36 30 32 36 50 59 77 91 92 94 92 93 93 96 94 95 95 96 97 91 74 69 77 73 73 76 80 85 88 88 85 80 79 76 74 70 62 56
63 73 65 58 54 57 47 54 50 40 37 40 36 30 33 36 50 55 70 86 86 87 91 95 95 94 95 93 96 96 93 70 64 70 70 66 69 71 73 73 74 72 69 66 64 61 59 60 54
74 80 96 60 59 57 60 70 41 40 43 41 40 37 33 39 48 52 58 67 83 89 93 94 85 92 92 94 91 97 98 89 75 62 62 63 64 66 70 70 72 68 68 64 65 62 63 69 69
89 98 88 67 54 61 64 69 48 39 40 46 42 39 36 40 51 57 76 81 91 90 95 95 92 91 93 93 94 97 94 96 88 84 74 65 65 69 73 76 73 70 74 69 64 65 64 70 70
94 98 81 82 60 59 71 91 68 42 48 44 42 38 38 49 82 94 93 90 90 96 95 93 94 89 92 93 94 96 96 95 95 82 85 70 65 70 73 80 77 76 75 73 71 64 70 72 70
86 89 88 71 59 68 85 85 76 50 61 75 74 68 71 66 91 95 97 96 96 95 94 95 94 92 98 97 96 96 97 98 96 86 80 80 78 80 85 85 85 81 77 73 69 71 70 75 75
91 97 90 77 64 82 88 89 80 56 62 69 82 88 87 89 95 92 98 98 98 98 97 97 93 91 94 98 95 93 95 97 95 92 89 88 89 89 89 90 91 90 90 84 85 83 86 78 77
88 96 90 87 72 84 90 94 81 61 72 73 75 83 87 89 89 92 97 98 96 98 98 96 94 94 96 96 96 96 94 96 96 96 99 98 96 92 94 94 95 95 96 97 96 95 92 94 94
99 88 95 93 98 97 88 97 84 89 80 82 93 96 98 94 94 96 96 97 98 98 96 98 98 99 96 96 97 97 97 96 99 99 99 99 97 96 95 95 96 95 96 96 95 95 97 98 97
97 84 84 92 95 98 95 100 94 79 87 91 92 95 96 94 94 96 96 94 95 96 97 97 97 99 98 98 98 99 98 99 99 99 98 97 97 97 96 96 98 98 98 97 97 98 97 94 96
75 91 94 93 97 100 85 95 96 92 92 86 85 94 92 93 95 94 90 89 94 95 98 97 96 97 96 98 99 99 98 98 99 99 99 98 98 98 97 97 97 97 98 99 99 98 98 99 98
88 99 99 99 99 99 92 89 97 90 84 83 91 96 96 94 96 94 94 93 91 93 91 92 93 94 93 95 96 98 97 98 98 97 97 97 98 97 97 98 98 98 97 98 98 99 99 99 99
95 98 98 97 98 98 79 97 99 93 88 89 92 94 95 95 92 93 89 87 83 66 64 67 75 75 76 79 88 90 92 98 99 96 98 97 95 96 94 97 97 96 97 98 99 99 99 99 99
82 98 88 100 87 97 97 99 96 94 93 90 93 93 96 93 91 88 80 84 72 60 60 60 60 60 60 62 68 71 82 84 84 89 94 99 99 98 96 97 97 97 97 97 98 98 99 99 98
68 57 82 96 98 96 97 98 99 100 98 94 93 94 92 88 86 77 71 64 56 55 57 60 61 62 62 61 62 62 68 70 73 81 81 86 91 94 96 97 99 99 99 99 98 99 98 98 99
72 72 62 59 77 85 91 97 94 95 94 95 88 85 85 86 73 61 52 51 52 54 56 59 62 62 64 64 64 66 66 66 65 67 68 70 72 76 91 94 96 98 99 99 99 99 98 98 98
68 69 58 81 70 82 87 95 71 78 79 76 74 64 53 58 54 52 54 56 59 61 60 63 63 64 66 67 68 70 70 69 69 70 69 67 70 71 77 92 95 97 98 99 99 99 99 98 98

GFSSGP_sfc_rhum_090.txt.gz
RH
74 69 78 74 92 95 97 86 77 64 50 41 30 36 41 81 72 72 76 76 84 86 85 83 84 83 84 84 83 87 87 86 85 82 76 74 79 76 72 70 72 74 77 77 73 71 71 68 66
75 62 74 90 94 96 92 80 66 54 43 32 32 49 71 88 83 89 86 83 80 82 85 83 86 85 83 82 80 83 85 84 84 84 81 80 80 77 72 70 70 73 73 77 75 74 72 69 72
66 61 83 94 97 97 87 60 57 45 36 37 35 57 76 88 83 87 84 77 83 86 83 85 88 87 86 83 82 79 79 84 84 84 83 82 80 78 70 72 75 72 72 80 78 77 75 70 72
70 73 79 90 94 82 73 62 52 44 36 32 34 44 75 72 78 81 80 76 85 92 90 90 89 88 89 88 85 81 78 78 84 84 83 83 79 78 72 78 79 78 76 75 81 79 78 73 71
76 82 90 99 94 82 66 51 43 40 38 36 31 39 75 76 91 92 91 83 92 92 91 89 85 87 90 87 88 85 84 80 83 84 82 82 79 79 79 82 80 77 70 73 83 80 78 75 71
83 80 96 97 75 60 49 42 41 40 36 33 30 50 74 83 93 96 96 98 94 96 92 87 87 86 88 84 86 87 84 82 83 86 84 83 81 78 81 81 64 70 74 76 80 81 80 76 71
89 92 93 88 80 63 49 38 40 36 34 29 29 34 61 91 95 96 98 97 95 93 90 86 86 83 86 88 85 86 86 84 83 87 85 86 82 80 77 72 72 76 75 82 82 81 81 79 74
79 82 90 88 83 74 49 42 35 37 33 24 25 33 35 83 97 95 97 97 96 95 92 90 85 84 86 83 78 80 84 90 86 88 87 89 84 82 77 79 78 81 86 86 86 81 82 82 80
57 89 96 85 75 66 43 44 37 33 33 32 28 30 73 96 98 96 98 98 95 96 95 93 93 91 87 85 84 79 77 81 93 92 93 95 86 74 75 76 84 84 87 85 83 83 84 84 81
67 91 80 65 64 60 47 46 42 38 37 36 40 35 65 89 98 98 98 99 98 98 98 98 98 96 93 85 93 88 73 82 88 96 96 92 85 73 69 80 90 86 88 85 82 80 83 80 81
71 80 62 54 50 52 53 50 42 45 45 41 37 35 36 56 96 94 94 96 96 96 98 97 98 98 96 95 97 96 88 92 88 93 96 92 88 88 80 79 82 86 93 96 91 92 89 85 75
78 62 59 60 53 53 53 46 47 43 42 38 37 34 38 55 93 95 93 93 95 94 91 95 97 97 96 97 96 94 93 87 95 93 96 98 93 96 90 84 82 92 97 98 97 98 90 80 71
63 60 55 53 52 50 44 47 47 44 38 38 36 34 40 48 58 83 85 90 93 94 92 94 96 95 93 98 97 95 93 81 84 90 92 94 97 91 81 82 84 91 95 98 98 97 88 78 70
64 68 64 61 58 55 54 49 50 42 37 36 36 37 40 42 53 72 89 90 95 93 93 92 97 96 95 98 96 94 93 83 70 88 88 92 96 91 93 85 87 90 92 90 95 93 86 75 68
66 72 70 58 58 62 55 62 57 40 36 38 36 36 41 43 44 55 70 86 91 93 91 92 96 97 98 97 96 95 94 91 80 72 84 86 90 94 83 85 88 87 86 90 88 84 79 72 63
74 80 96 64 63 59 64 72 51 42 41 40 38 41 39 44 44 49 62 76 90 95 94 88 85 96 97 96 95 94 94 94 85 72 80 80 79 85 84 83 84 82 81 77 77 75 70 68 68
91 99 91 76 56 61 71 82 64 55 57 46 40 38 47 46 45 52 60 74 92 94 93 90 95 96 93 93 93 94 87 96 96 88 79 74 73 73 85 80 74 75 75 71 68 70 67 74 78
93 88 89 88 66 61 69 72 58 56 67 59 49 52 47 52 52 78 90 91 95 96 96 95 95 92 90 95 96 98 90 95 94 97 90 70 68 67 69 71 71 68 71 70 68 68 74 73 72
87 96 94 78 64 71 75 75 73 68 72 67 71 76 72 65 55 94 97 95 97 97 98 96 97 95 93 98 97 97 95 94 95 95 90 82 72 72 72 76 72 69 69 67 66 70 72 80 78
92 89 88 76 65 74 81 85 72 69 71 66 73 82 86 87 96 95 98 98 93 95 95 97 97 95 93 97 93 94 98 96 93 92 89 80 76 76 76 83 85 85 84 75 72 78 84 79 83
87 85 83 98 84 78 80 82 83 73 74 80 88 91 91 92 90 96 97 98 97 97 97 95 94 95 96 97 97 96 98 99 99 99 96 92 87 86 86 86 90 93 90 90 92 92 89 94 95
96 73 89 99 97 96 83 96 94 90 87 90 89 97 94 97 98 96 97 96 97 96 95 95 95 97 96 97 99 96 97 96 96 98 99 99 99 98 98 98 98 97 98 97 95 96 97 97 97
84 84 93 89 91 96 96 99 85 87 88 92 82 86 90 94 95 97 96 95 93 96 97 96 95 96 97 98 99 99 98 99 98 98 99 99 100 98 99 99 98 98 99 99 99 99 99 99 96
74 84 96 96 97 98 91 93 96 96 91 82 80 92 96 94 94 94 92 90 91 93 96 95 94 96 97 97 98 99 99 100 100 100 99 100 100 100 99 98 99 99 99 99 99 99 99 98 98
87 99 99 99 99 98 87 89 95 89 82 83 89 94 96 94 93 94 95 94 92 93 92 89 88 92 94 96 96 96 98 99 99 99 99 99 100 99 98 98 99 99 98 99 99 99 99 99 99
96 99 99 97 97 98 91 95 96 90 87 89 91 94 93 94 94 95 95 94 92 88 86 86 86 84 80 84 91 92 92 97 98 98 99 99 98 98 97 97 96 96 96 97 98 99 99 99 99
93 100 92 100 91 96 97 100 97 95 89 89 92 94 97 96 94 94 91 90 85 80 71 74 69 66 66 66 65 69 79 87 92 91 91 96 96 97 99 98 98 98 98 98 98 99 99 99 99
84 67 94 98 98 96 96 98 99 100 99 96 93 94 94 92 90 90 87 88 75 68 65 61 61 64 64 64 64 64 67 67 74 80 83 79 81 85 92 95 98 99 99 99 98 98 97 99 98
76 82 70 67 86 96 87 99 96 98 97 98 91 92 92 92 86 86 81 80 66 59 60 61 63 64 67 69 69 69 70 69 69 70 70 71 71 72 77 91 94 97 98 99 99 99 99 98 98
67 75 63 80 73 89 88 95 86 90 90 86 84 74 77 82 72 65 60 61 62 64 67 70 70 69 70 72 74 74 74 74 76 77 77 76 78 75 76 82 94 94 96 97 99 99 99 98 98

GFSSGP_sfc_rhum_093.txt.gz
RH
72 73 80 73 91 94 97 83 82 74 61 47 36 38 37 48 52 66 79 81 88 90 88 84 84 84 85 85 87 89 89 88 85 81 73 80 79 73 70 76 77 76 77 74 71 70 69 71 73
76 66 75 86 91 94 76 85 75 65 51 40 36 45 76 77 88 86 88 91 85 85 88 86 86 85 83 84 87 88 86 85 86 82 79 79 79 74 70 75 76 78 79 74 72 70 67 69 71
67 65 73 94 96 95 74 69 67 50 41 42 38 50 79 86 86 89 88 88 88 91 89 87 88 87 85 83 83 86 84 84 85 84 82 82 79 76 71 71 78 82 83 80 75 71 72 75 75
69 75 76 93 91 87 77 70 61 50 38 35 34 36 53 79 86 90 85 90 94 96 94 92 89 88 88 87 84 78 82 83 83 85 84 83 80 78 73 78 80 78 85 80 78 73 73 78 77
75 79 89 96 95 88 75 59 48 46 45 38 35 35 61 83 93 94 98 89 95 97 97 92 90 89 89 87 87 84 79 79 84 85 81 81 80 79 78 80 82 76 79 81 78 75 74 74 75
86 77 85 86 82 68 58 51 43 43 41 32 32 34 61 90 92 98 97 98 95 97 96 90 86 88 89 87 88 88 86 83 84 87 84 82 82 80 81 82 81 75 70 81 80 76 73 73 73
88 87 85 89 87 71 54 46 46 46 41 36 30 35 32 80 94 96 96 96 97 97 95 95 93 91 86 84 86 86 88 88 88 86 87 86 83 80 80 83 77 75 75 72 85 80 76 74 73
88 86 94 90 85 69 54 46 43 39 41 30 30 42 68 89 95 95 95 95 95 96 97 95 93 88 86 84 79 79 78 78 81 88 92 90 87 84 80 82 76 69 71 80 86 83 79 78 79
63 91 96 86 81 71 51 52 42 37 40 38 34 51 67 91 88 93 97 96 97 95 97 96 94 93 93 90 83 77 75 76 82 93 93 93 95 85 78 79 80 78 82 85 86 85 88 89 86
74 93 83 72 71 66 54 58 53 49 47 46 40 34 34 44 85 91 92 96 91 97 97 95 97 96 94 90 92 89 78 80 76 84 94 97 96 84 73 80 83 81 86 90 88 86 90 90 92
75 82 68 59 53 55 61 56 50 52 54 44 44 40 38 41 52 91 90 97 97 92 95 97 98 98 97 96 97 97 93 91 82 81 91 96 97 92 77 72 71 79 90 90 92 94 96 91 83
84 67 65 64 59 60 60 51 50 49 48 40 41 41 41 44 49 70 95 92 95 98 98 98 98 97 96 95 96 94 93 89 92 89 96 96 99 98 91 78 78 90 92 93 95 98 95 90 77
68 65 61 60 60 57 51 54 52 49 40 38 40 40 44 48 48 54 76 92 93 95 95 95 98 98 97 97 98 96 96 81 80 88 94 96 97 98 96 93 90 92 94 90 94 92 94 89 79
66 71 67 64 61 59 60 53 55 48 38 37 35 37 42 47 49 51 62 82 94 94 93 93 94 97 95 98 98 98 98 95 81 85 90 90 92 94 99 96 95 94 91 87 87 88 88 86 76
67 71 70 64 59 63 59 62 66 45 42 43 39 35 34 49 48 47 52 65 83 91 93 92 92 95 96 97 97 98 97 94 94 75 88 88 92 91 92 99 97 90 91 86 87 87 83 83 73
79 82 94 64 64 60 54 64 48 44 48 51 48 44 41 47 49 46 52 55 61 85 94 92 83 93 94 96 98 98 97 97 96 87 73 84 87 86 93 95 98 95 92 88 84 82 79 83 78
86 98 92 80 62 64 72 82 65 54 55 54 55 58 46 48 51 55 56 61 64 85 94 94 94 96 97 97 97 97 96 96 93 94 84 76 85 85 87 92 96 90 92 86 80 79 73 79 77
89 96 84 94 68 65 71 67 56 54 62 68 71 69 52 57 56 51 59 83 84 93 95 95 96 96 97 97 98 98 96 95 93 92 91 78 80 85 87 90 90 88 83 79 75 73 74 74 72
81 92 94 78 65 73 80 79 70 62 77 82 82 75 70 74 64 64 88 97 98 98 97 97 96 96 98 98 100 99 98 97 96 94 92 89 83 83 90 91 89 88 77 72 70 68 75 78 80
94 96 90 78 69 80 84 88 72 65 72 80 72 78 83 89 96 97 91 92 92 98 97 97 97 97 97 98 97 97 97 96 92 92 94 92 91 88 86 88 90 84 78 71 72 70 84 75 85
92 92 84 90 83 86 94 88 83 78 86 89 91 94 91 97 97 93 90 92 94 96 98 97 96 96 96 97 98 97 95 99 99 96 93 93 92 94 91 88 86 87 82 85 84 81 84 88 94
96 67 72 86 98 99 85 98 84 90 90 89 91 96 92 94 86 87 92 91 98 98 95 95 95 94 93 97 98 98 97 94 94 94 93 95 96 97 96 94 97 95 93 92 91 92 91 95 94
83 77 86 90 98 90 93 94 86 88 90 92 94 93 93 95 95 95 95 95 96 97 98 96 94 94 94 97 96 98 98 94 99 99 99 96 98 99 99 98 98 99 99 99 99 99 99 99 98
73 84 85 96 99 99 89 91 91 92 89 89 81 93 94 94 92 92 90 89 92 93 93 92 90 94 94 95 96 98 99 99 99 99 99 99 98 99 99 98 98 98 99 99 99 99 99 99 99
89 98 98 99 99 94 94 91 92 86 84 86 94 94 94 94 92 93 93 95 93 95 92 91 87 88 88 91 94 96 97 98 98 100 99 99 99 99 99 99 99 99 99 99 99 99 99 99 99
88 99 99 98 98 98 95 97 95 88 83 88 90 92 91 93 92 94 95 95 94 93 93 89 87 85 82 86 90 91 94 97 97 97 97 98 99 99 99 99 99 98 99 98 99 99 99 99 99
96 100 94 100 92 97 98 100 97 93 88 88 90 89 94 94 94 95 93 94 93 89 86 83 80 79 70 69 77 82 84 90 93 94 94 95 95 93 98 99 99 99 98 98 97 97 98 99 98
90 88 98 99 98 97 95 98 99 100 100 97 96 96 93 92 92 92 93 91 87 78 65 62 62 67 68 67 67 68 69 69 76 82 81 81 84 87 92 96 96 96 99 99 98 98 98 99 98
89 95 95 81 97 97 89 92 91 99 99 98 96 94 92 93 92 93 90 82 64 63 67 69 69 70 72 72 72 73 73 73 72 73 74 75 73 73 75 81 92 94 94 98 99 99 99 99 99
72 79 78 86 77 87 81 92 85 94 94 88 94 90 91 91 91 85 71 68 69 77 77 79 74 76 79 79 79 79 79 79 80 80 79 79 82 79 80 80 81 86 92 95 98 99 99 99 99

GFSSGP_sfc_rhum_096.txt.gz
RH
73 75 79 71 76 93 94 74 86 76 71 52 43 43 40 44 41 55 72 88 96 95 94 87 87 87 86 86 87 89 88 86 82 75 72 73 76 73 74 74 76 72 76 74 71 68 66 73 70
78 67 74 84 94 75 52 85 81 71 55 46 42 47 72 75 87 88 87 88 88 91 94 89 87 87 86 85 86 88 87 85 84 79 74 73 76 71 74 74 77 77 77 72 70 70 71 74 70
69 65 71 89 95 81 58 74 79 55 48 44 40 43 75 86 86 90 92 91 92 95 94 90 88 87 87 86 88 86 86 84 84 81 81 81 77 73 72 76 81 83 80 77 72 71 74 74 75
69 72 77 86 92 84 78 75 66 51 42 36 38 41 44 82 88 96 94 91 97 98 95 92 88 88 88 88 87 86 84 83 84 83 83 83 79 75 72 80 84 86 83 77 72 72 76 80 78
74 71 91 93 90 85 84 71 56 46 46 40 37 34 44 84 84 95 98 91 96 98 97 94 87 88 89 87 86 84 86 84 84 83 80 80 80 77 78 80 84 87 85 79 73 74 77 77 76
85 76 65 74 86 77 65 55 51 46 45 35 35 36 47 88 85 91 92 92 96 95 98 95 88 89 90 89 89 87 84 80 84 86 84 82 82 80 80 82 83 85 84 78 74 74 76 75 76
83 67 68 85 84 80 61 50 51 49 48 42 37 40 36 60 94 92 93 91 95 96 98 97 96 92 91 91 90 87 84 82 82 87 86 86 85 82 80 83 82 78 78 82 79 75 75 75 76
90 78 96 91 86 67 58 49 45 40 44 34 38 44 60 61 90 92 92 93 94 95 98 98 97 89 88 87 82 78 76 79 81 87 89 91 91 85 84 85 84 78 72 82 86 81 76 78 80
70 85 90 82 87 73 58 58 50 44 45 42 39 51 43 37 72 83 90 91 92 93 95 97 98 95 92 90 88 80 75 75 82 92 94 96 95 92 89 86 86 80 77 75 86 85 83 85 86
78 84 74 78 79 75 57 65 61 57 53 54 44 37 34 41 47 64 87 94 92 92 94 94 95 96 96 88 89 84 78 80 73 88 93 96 96 95 84 86 87 80 79 77 82 86 90 92 97
77 80 73 64 59 62 66 64 54 58 61 51 48 43 41 44 52 58 77 92 88 91 95 95 95 97 96 95 96 93 89 89 85 74 88 95 97 97 96 87 75 75 86 89 88 94 98 97 95
84 72 69 68 62 61 61 56 55 53 53 43 43 44 47 49 53 56 61 80 94 97 92 96 97 97 97 98 98 97 94 91 91 85 89 97 99 98 96 94 81 81 97 98 98 98 97 92 89
70 70 64 64 63 61 58 62 60 55 46 40 41 43 48 49 48 49 57 64 91 96 96 97 97 97 97 97 98 98 97 85 80 87 90 96 98 97 95 96 89 92 95 93 98 94 90 90 79
72 72 70 63 59 58 58 51 58 49 43 38 37 38 42 48 50 51 50 50 80 93 95 95 97 96 97 97 97 97 97 90 84 86 93 93 96 95 94 93 95 94 94 92 88 96 89 83 78
69 70 71 64 61 60 57 58 70 52 47 49 45 42 43 46 48 44 45 53 60 82 91 94 92 95 98 96 96 97 98 94 92 86 92 95 96 95 93 94 95 94 95 93 90 91 91 92 80
81 79 83 55 67 62 58 69 52 54 56 55 53 50 47 50 53 42 46 47 49 67 90 92 84 93 97 97 97 98 98 98 97 98 90 94 96 95 95 95 94 94 98 98 97 96 89 85 85
82 95 91 78 64 68 72 80 68 58 51 51 52 52 57 61 57 58 56 60 53 62 69 93 95 95 96 96 98 98 98 99 98 98 94 94 93 92 95 92 93 93 94 96 97 96 87 80 80
77 95 82 88 67 66 74 71 57 52 60 61 61 66 69 70 64 52 51 58 62 77 86 94 96 95 97 98 99 98 98 98 96 96 94 91 87 83 93 89 85 95 92 88 95 93 87 82 71
83 92 94 78 66 72 81 80 72 66 74 83 81 76 79 72 63 66 64 65 91 96 96 96 96 96 98 100 95 92 96 89 96 93 85 89 90 84 86 87 91 90 89 85 89 90 85 81 79
94 96 86 77 71 71 85 85 78 73 80 86 93 91 94 93 93 89 91 90 89 93 98 97 97 97 98 99 98 98 98 98 96 94 94 92 94 94 86 84 92 89 87 77 80 86 86 76 80
85 89 89 87 76 78 91 86 74 82 87 86 93 87 86 94 93 93 88 86 90 98 99 90 94 98 97 97 98 98 96 97 97 95 97 95 92 95 98 96 92 93 91 92 90 85 77 79 89
91 68 72 81 97 97 81 96 80 87 88 86 95 90 94 94 92 92 93 95 95 97 98 96 93 96 94 97 91 91 94 98 93 92 95 96 93 95 96 96 98 98 95 88 89 87 83 88 89
76 67 75 81 95 98 92 96 85 88 86 79 87 85 91 94 96 96 96 95 94 95 96 94 91 91 93 95 97 98 98 97 93 92 96 94 92 91 96 96 98 98 98 98 96 93 88 88 91
67 81 86 88 99 99 88 91 91 91 89 87 84 90 93 91 91 90 90 88 92 92 92 91 88 91 91 92 94 97 98 98 97 98 99 98 99 99 99 99 99 99 99 99 99 99 97 94 97
88 99 97 96 100 94 92 94 88 83 86 87 92 94 92 91 92 93 94 94 92 94 93 89 90 88 86 91 93 93 97 96 98 98 98 97 98 99 99 99 99 99 99 99 99 99 99 99 99
97 98 99 98 98 96 97 98 97 87 84 87 89 89 89 91 92 93 94 94 94 93 94 91 91 86 79 80 85 88 90 94 94 96 96 96 97 98 98 99 99 98 99 99 99 99 99 99 99
96 100 93 100 99 97 96 97 97 93 93 86 88 87 94 94 94 93 93 93 91 90 89 90 86 84 73 69 72 76 81 84 89 87 90 94 94 91 95 96 97 99 99 99 99 99 98 99 98
91 87 99 99 98 97 96 96 99 100 100 98 98 97 94 92 92 92 90 89 86 81 79 78 72 71 70 71 71 71 72 73 78 80 83 81 82 84 87 87 93 95 94 97 99 99 98 99 99
96 93 95 94 99 97 95 96 96 98 98 98 98 95 93 93 93 93 91 83 74 70 69 70 71 74 76 75 74 77 78 77 78 79 79 80 78 79 79 79 79 83 90 92 95 96 98 99 99
77 81 83 90 79 89 85 92 88 93 94 94 96 93 91 92 90 89 85 70 73 78 79 82 80 82 82 84 81 79 78 78 79 81 82 81 83 82 83 84 84 83 82 84 91 94 94 96 98

GFSSGP_sfc_rhum_099.txt.gz
RH
68 65 60 54 50 60 56 46 66 59 51 38 38 34 32 31 32 42 62 72 79 77 77 69 87 86 86 85 86 86 87 85 84 81 78 80 80 76 72 72 72 74 76 71 67 69 66 67 76
65 60 59 61 56 31 25 63 62 56 43 39 34 33 51 54 68 73 73 76 76 76 77 70 87 86 86 87 86 86 85 85 82 75 78 76 78 72 71 73 73 76 76 75 72 71 73 72 71
60 56 62 67 70 38 31 57 57 46 38 33 28 29 48 81 72 85 79 80 79 77 76 72 88 86 86 87 88 87 86 85 84 82 76 78 77 74 72 76 79 82 80 78 76 76 78 72 70
62 56 59 62 60 60 48 52 53 40 32 30 31 28 45 52 54 73 80 78 83 85 76 82 90 88 88 89 89 87 85 84 85 84 82 82 78 75 76 81 83 84 81 78 73 75 77 79 77
63 53 65 63 62 66 66 57 48 36 34 29 28 28 33 56 64 78 81 81 91 90 81 76 87 87 88 88 89 88 87 86 85 83 80 78 79 76 78 82 86 85 82 76 72 73 75 78 78
70 51 49 44 56 61 52 50 40 34 33 29 28 30 30 57 60 76 85 86 87 91 89 78 84 87 89 88 88 87 86 86 86 86 83 81 80 80 80 82 85 85 81 75 73 75 75 78 76
67 44 40 50 57 59 50 42 37 37 36 30 28 31 27 41 45 72 78 82 85 89 92 86 78 77 91 91 90 88 86 82 80 85 87 86 85 84 80 81 84 84 84 80 77 79 79 77 78
73 61 78 72 65 48 50 43 39 37 36 30 28 33 36 38 38 57 65 76 80 88 91 95 90 83 82 81 87 84 82 79 80 84 90 91 91 88 84 85 83 84 86 83 81 81 80 80 82
60 62 59 58 73 54 49 50 43 40 40 36 32 33 32 30 40 47 57 67 77 83 89 92 94 86 84 80 76 79 78 78 87 86 92 90 75 73 71 77 85 83 82 85 84 82 82 84 87
64 51 50 61 63 59 52 55 50 46 43 40 36 32 31 34 38 49 58 66 64 70 83 90 92 89 86 85 80 77 67 70 69 82 84 81 79 75 73 78 90 87 80 78 85 85 85 85 65
66 60 64 57 56 54 57 54 49 50 52 44 38 36 34 38 40 48 53 55 61 63 82 87 92 91 85 85 84 87 79 80 79 75 87 90 91 85 82 71 72 66 77 60 62 78 69 64 66
67 65 62 61 57 56 54 49 49 48 42 37 36 37 40 39 43 49 47 48 53 61 73 83 90 93 88 87 87 85 70 79 82 84 80 93 88 94 83 76 74 69 69 72 63 63 68 75 73
59 63 59 58 59 58 54 56 51 48 40 36 37 39 40 43 41 40 42 44 52 59 70 84 88 93 88 87 88 84 81 72 71 79 79 92 96 96 92 84 73 67 81 79 84 68 68 69 71
62 64 64 58 56 53 54 51 50 41 37 41 37 37 36 40 41 44 42 42 45 46 62 82 89 88 89 88 87 87 86 77 73 69 70 73 82 95 96 93 89 81 72 76 86 92 81 81 73
62 60 62 54 52 58 48 46 61 42 41 44 42 40 40 41 41 39 42 45 42 45 51 67 82 88 90 88 88 88 86 80 71 65 66 67 69 80 85 88 93 85 83 76 87 93 86 84 72
72 64 58 44 60 56 54 57 39 39 53 52 47 43 43 46 46 43 44 41 42 49 48 52 66 82 86 87 88 87 86 85 78 70 69 70 68 71 78 84 88 86 90 87 93 94 96 89 84
67 74 74 64 56 60 62 68 55 51 50 48 45 46 50 52 52 53 53 51 42 46 48 55 68 76 84 85 86 85 83 86 85 83 75 74 73 70 74 82 81 80 92 93 90 92 90 94 92
78 80 75 77 60 65 74 74 59 53 57 56 54 56 61 65 66 60 57 55 54 54 55 60 68 76 83 87 88 90 89 88 88 86 82 74 74 75 77 79 79 78 90 93 91 89 90 87 88
78 86 96 77 63 73 77 76 68 61 69 74 76 77 79 83 80 74 71 68 64 61 69 81 84 85 88 94 91 88 88 85 87 86 81 76 77 79 83 83 80 82 85 84 86 82 78 85 90
87 90 88 74 67 68 74 77 68 69 77 85 79 80 80 83 83 82 80 80 81 78 87 91 88 89 89 90 90 86 88 88 86 85 83 81 80 81 84 84 85 84 90 83 82 85 85 81 84
88 86 85 88 71 74 83 84 65 69 76 70 83 78 85 91 89 91 88 90 92 94 84 83 87 88 86 90 92 92 93 93 95 92 90 86 82 85 86 86 87 89 90 90 86 83 80 89 89
89 66 69 80 92 94 82 92 72 73 77 71 81 78 84 90 90 90 93 93 97 96 94 91 88 90 86 88 94 90 93 93 84 89 86 84 78 85 88 88 89 96 95 92 90 86 86 85 90
79 60 71 76 98 99 95 97 73 76 76 78 81 83 85 87 92 93 94 93 92 92 93 89 85 86 88 90 93 96 93 94 92 90 93 91 88 86 88 88 88 94 97 99 99 99 96 94 90
64 80 85 90 99 97 85 87 76 84 87 80 81 87 89 87 89 88 88 86 90 91 91 89 85 86 87 89 92 96 97 96 96 95 96 96 94 95 87 91 93 94 94 97 97 95 95 95 95
82 99 97 93 95 92 77 89 74 78 72 83 91 91 89 89 89 90 92 92 91 93 92 87 86 83 79 82 94 94 94 94 96 96 97 96 96 96 97 98 99 99 99 99 99 97 96 96 92
97 99 94 99 96 91 93 91 88 84 84 85 85 86 87 90 90 92 91 93 93 92 93 89 91 88 78 82 83 86 89 92 89 88 91 92 95 95 94 96 98 99 99 98 99 99 99 98 98
96 97 89 99 86 96 85 95 95 92 95 93 95 94 91 93 93 92 91 92 91 92 93 93 88 87 83 84 82 79 82 84 84 80 83 88 90 88 91 92 92 93 95 96 98 99 99 99 98
83 81 96 100 98 92 87 93 98 100 100 98 99 97 95 92 91 91 91 89 86 87 87 88 84 73 66 65 66 68 71 71 75 77 80 78 79 79 86 88 87 88 91 93 94 95 96 98 97
93 93 89 94 98 94 91 87 96 99 98 98 97 95 95 92 92 92 87 80 79 75 71 70 70 71 67 62 63 60 63 65 61 62 65 67 69 71 75 77 77 80 80 84 92 93 93 94 96
71 73 76 87 79 84 81 76 87 92 91 95 93 94 90 90 87 83 70 68 70 68 70 70 74 72 70 62 58 61 62 61 62 62 62 61 61 61 63 65 70 74 78 79 82 83 83 86 90

GFSSGP_sfc_rhum_102.txt.gz
RH
50 43 38 38 30 26 16 21 31 37 35 28 27 26 24 23 26 38 54 60 62 58 51 58 85 84 86 86 87 88 88 86 84 83 80 80 80 77 74 71 72 77 78 75 74 74 72 74 73
44 45 39 34 26 15 14 30 36 36 31 27 25 24 31 39 52 57 59 59 61 58 53 54 85 85 86 87 87 88 87 86 84 81 82 79 80 76 73 71 72 77 76 76 73 73 74 75 76
46 41 40 32 20 15 18 33 35 34 25 23 24 22 35 52 39 45 50 58 70 63 56 55 84 86 84 86 86 86 86 85 84 81 78 78 77 76 72 74 77 80 80 80 76 77 76 74 73
43 40 33 32 20 29 28 33 35 31 25 21 22 24 41 39 38 47 58 62 74 77 61 70 84 84 85 86 86 85 85 85 85 84 79 79 76 74 77 78 82 84 84 80 75 77 74 75 72
38 35 30 26 24 32 34 36 36 29 25 22 21 24 30 33 30 36 56 66 76 76 72 60 84 84 85 85 87 87 86 84 84 83 79 77 76 76 79 81 83 85 82 77 74 76 75 76 76
39 29 23 22 21 29 30 33 33 28 24 22 22 23 26 29 28 34 37 55 71 80 80 67 77 84 84 85 86 86 86 85 84 84 82 79 79 79 80 82 85 83 79 75 74 75 76 78 77
29 23 19 21 25 26 31 30 25 25 25 22 22 24 22 29 26 35 33 42 61 72 80 79 59 68 89 89 88 87 84 84 84 84 86 86 85 84 81 83 85 86 82 79 79 79 78 79 77
32 23 28 28 26 27 38 33 31 29 26 23 22 20 22 27 25 30 32 36 42 64 75 84 83 61 59 63 91 90 89 84 82 84 88 92 92 88 84 84 84 85 87 83 81 82 81 80 83
43 22 22 28 33 32 37 35 32 30 29 24 22 23 20 18 23 28 35 37 36 40 60 76 86 77 66 63 69 86 87 87 82 85 90 89 60 56 60 70 83 86 85 86 83 84 84 86 87
31 26 22 36 37 36 38 39 34 29 24 22 19 17 16 19 23 30 35 37 38 35 38 62 79 83 77 72 68 64 62 65 54 61 60 60 54 49 52 66 87 88 86 86 86 85 86 86 49
45 32 37 43 43 43 38 33 31 30 28 22 22 17 17 22 24 27 29 35 34 32 33 38 65 80 83 75 70 71 81 81 63 64 66 83 63 58 56 51 58 58 78 57 66 66 61 50 41
39 46 44 46 46 43 37 30 28 26 24 17 18 19 21 25 25 27 27 28 28 34 35 37 47 73 82 76 69 61 60 71 75 65 64 77 95 78 71 50 56 55 51 56 53 50 53 58 43
39 47 46 42 43 39 34 34 28 25 20 18 20 23 24 26 24 23 26 26 28 33 36 37 43 66 79 84 75 63 56 50 49 55 57 65 82 90 92 76 51 56 65 52 63 50 45 50 53
43 44 38 38 36 34 38 30 37 19 21 22 27 27 25 26 27 29 27 25 26 27 31 35 40 56 71 84 82 69 61 54 53 52 55 52 54 60 70 89 89 70 50 51 52 54 49 58 50
46 38 35 38 38 40 40 35 40 23 26 32 31 29 30 29 28 29 30 32 29 30 31 34 33 41 67 74 74 75 71 62 55 53 52 50 47 50 53 59 63 69 71 56 59 62 59 69 72
42 39 34 34 43 48 45 31 25 22 34 37 35 33 34 34 34 33 32 30 31 33 32 31 27 34 51 71 71 73 71 69 66 59 52 50 46 46 51 54 57 58 68 71 77 74 79 83 91
38 58 43 39 44 47 48 44 32 31 38 41 39 37 38 41 45 45 45 42 37 33 31 32 33 35 41 53 57 64 67 66 61 57 52 50 48 48 50 53 54 56 75 84 86 86 81 88 88
56 58 53 52 43 48 55 51 37 37 43 48 49 51 54 57 61 57 57 58 55 48 37 38 33 35 39 47 59 62 64 64 61 59 55 52 49 52 55 54 56 54 62 72 87 90 89 86 83
63 63 73 54 48 60 56 53 44 40 51 56 65 64 61 59 54 54 58 60 61 55 53 42 36 35 48 66 78 71 67 64 63 62 62 60 57 55 58 60 61 65 62 58 63 66 84 89 84
64 66 68 52 52 56 53 55 45 47 59 58 60 69 70 66 58 62 71 78 74 68 61 59 51 59 64 76 74 66 65 65 64 66 66 64 63 64 62 64 66 64 71 63 65 74 85 86 83
59 58 62 80 58 53 59 49 51 51 59 52 54 64 69 79 81 77 80 84 86 86 88 86 88 87 86 82 83 79 81 84 86 80 75 71 71 71 71 72 74 74 74 76 70 77 84 90 88
71 51 57 68 75 79 60 79 51 50 53 54 55 64 71 72 76 78 88 88 92 92 93 90 88 86 81 81 83 82 79 76 70 75 73 68 66 66 68 74 75 79 82 82 83 86 87 87 92
61 52 59 66 77 88 65 95 50 51 52 53 57 64 71 75 84 87 90 87 87 89 90 84 79 81 84 84 88 93 83 80 86 85 85 79 83 83 80 74 75 80 85 86 92 97 96 94 92
53 63 72 67 81 94 62 73 51 58 63 62 65 76 82 83 84 83 83 83 86 85 80 77 71 73 74 82 87 93 96 96 94 94 93 91 90 90 89 90 84 85 85 91 93 93 92 96 97
69 86 92 91 94 83 60 73 54 63 80 85 88 86 85 85 87 87 89 91 90 90 86 78 76 74 73 78 88 92 95 94 94 92 92 90 94 93 94 93 96 96 93 94 95 96 94 95 95
84 98 95 92 76 73 66 84 66 89 85 81 86 86 84 88 88 90 90 92 93 91 90 86 86 83 80 83 83 84 93 95 93 93 91 88 91 92 90 90 93 94 95 96 99 99 98 96 95
96 99 83 98 73 88 64 78 87 88 94 94 94 93 94 90 89 92 90 92 92 92 92 92 87 83 76 75 82 82 80 81 85 83 75 82 80 80 89 91 90 92 93 94 94 97 97 98 96
70 67 92 97 92 76 62 73 90 99 99 96 97 96 95 91 88 89 89 90 85 86 86 88 78 61 60 64 51 52 61 62 52 48 51 47 50 59 64 76 84 85 85 88 92 94 92 94 97
80 74 72 73 77 74 62 59 86 98 96 97 95 95 95 91 88 88 81 67 62 72 60 61 56 50 44 43 44 41 40 43 40 38 38 41 39 37 41 45 54 64 71 77 82 87 87 90 91
53 54 51 67 69 59 58 53 68 85 86 93 90 90 91 83 77 65 62 58 58 54 49 54 55 44 45 36 34 37 34 33 33 36 34 32 33 35 35 36 38 42 50 53 59 64 67 72 76

GFSSGP_sfc_rhum_105.txt.gz
RH
48 34 31 33 31 22 18 15 16 21 24 20 21 21 19 19 22 47 58 51 49 56 57 62 85 84 85 85 85 86 86 86 84 83 80 79 78 75 72 69 71 75 76 76 75 75 75 74 77
32 36 35 28 33 19 14 18 23 25 24 22 21 21 22 33 40 45 56 47 51 55 54 55 85 85 85 86 86 87 86 84 83 83 81 80 78 78 75 71 70 76 77 78 78 76 76 76 72
40 38 33 28 17 17 20 21 28 26 22 21 20 19 30 41 31 36 41 51 58 58 64 53 82 82 85 85 86 85 85 85 84 82 83 80 78 77 74 72 73 79 79 79 80 77 78 78 74
38 37 29 28 18 22 22 24 27 26 23 20 20 22 35 33 32 29 35 49 60 62 66 74 82 82 84 85 85 83 83 82 82 81 80 78 76 73 75 79 81 83 82 79 79 78 76 76 74
37 30 27 23 18 22 24 26 26 22 22 20 20 22 30 27 24 25 28 39 59 63 64 77 82 82 84 83 83 85 84 83 83 81 77 75 74 74 77 80 82 85 82 79 76 78 75 73 73
37 27 25 23 18 21 22 26 24 21 20 18 20 21 26 26 25 28 27 31 52 65 68 69 78 84 84 84 84 84 84 82 82 82 80 78 78 78 79 80 82 83 80 78 76 77 77 76 77
30 24 19 17 17 20 22 22 18 18 18 18 19 20 26 31 23 28 26 27 33 58 65 67 70 67 87 85 86 86 85 85 85 85 83 82 85 84 80 82 82 83 82 81 80 80 78 78 78
26 20 20 17 18 23 28 25 24 22 17 18 17 15 16 23 18 23 25 29 28 34 55 66 70 75 62 59 90 90 90 90 87 88 86 87 91 88 87 87 85 85 86 84 82 82 82 82 82
28 24 20 21 20 27 28 25 25 24 22 17 16 16 16 14 15 21 28 31 30 30 32 41 68 70 75 80 72 89 91 88 86 83 89 87 62 60 65 72 82 85 87 86 84 84 84 86 86
25 25 21 26 26 27 27 28 23 23 18 17 15 13 12 13 16 24 28 30 30 31 29 28 46 74 74 67 72 63 54 58 56 58 59 60 52 48 49 65 84 87 87 88 85 85 87 88 56
29 28 27 33 32 32 27 24 21 24 24 16 15 14 13 15 18 22 24 28 28 27 30 29 31 52 75 78 71 66 58 58 56 56 58 59 55 60 52 51 60 64 84 65 74 72 65 58 46
32 32 29 34 37 33 28 23 21 18 18 14 15 16 16 18 19 22 23 25 26 31 30 31 29 35 65 70 80 71 59 57 60 72 74 79 74 78 78 48 51 64 57 60 65 60 59 58 48
27 34 35 32 34 29 25 26 22 20 16 14 15 17 18 20 19 19 20 21 23 27 33 36 34 32 45 76 77 79 67 53 50 51 55 67 78 85 80 87 85 74 68 64 75 61 55 58 54
32 34 28 28 28 27 29 23 25 16 17 21 23 23 22 23 23 24 23 22 23 23 25 32 33 34 39 70 76 84 73 65 53 47 49 46 51 56 61 64 64 62 70 63 57 58 60 52 60
33 30 29 29 29 31 33 34 32 19 18 25 26 25 26 26 26 25 27 29 26 25 26 29 33 36 38 50 77 80 85 76 65 54 48 49 46 49 50 56 59 55 53 55 70 60 60 65 72
32 32 33 29 34 38 41 27 21 19 26 30 28 29 30 31 29 30 31 31 29 29 28 27 26 31 33 39 65 78 82 82 68 59 53 48 48 48 48 50 54 53 55 53 57 66 73 77 78
31 60 33 33 35 38 42 35 24 24 30 31 32 34 39 42 41 41 42 44 45 42 38 33 31 30 32 34 45 73 75 79 68 60 54 50 47 46 45 46 48 48 55 60 70 75 75 82 83
47 47 40 37 36 39 45 42 31 27 31 35 36 41 45 45 45 43 46 49 48 47 47 47 37 32 28 36 40 48 57 70 60 54 52 49 46 45 47 48 49 48 53 57 70 73 76 81 80
43 41 46 39 38 52 45 44 36 30 32 41 40 41 46 54 55 59 56 57 60 58 59 51 45 37 31 36 40 50 57 58 58 58 56 53 52 51 53 53 52 52 54 55 56 64 73 77 83
48 47 52 43 43 49 46 48 37 34 40 45 47 47 55 63 59 61 70 71 72 75 77 75 59 45 34 38 55 60 65 68 65 59 58 58 58 60 58 61 62 60 61 59 63 66 74 73 74
46 44 46 67 52 44 53 45 47 41 45 46 42 46 51 62 72 73 76 80 83 86 87 87 86 84 83 85 82 84 80 85 84 77 73 67 62 66 74 72 72 67 68 71 71 73 74 82 80
58 42 50 60 67 74 47 74 45 40 42 46 43 50 58 66 71 74 81 84 87 90 87 86 88 90 88 89 88 90 84 79 66 70 71 70 76 77 83 88 83 76 78 80 78 76 80 82 88
55 48 52 57 70 79 58 86 45 41 40 43 52 60 66 72 79 82 83 84 83 87 90 90 86 85 88 88 90 95 95 94 94 86 83 80 80 80 83 88 90 91 82 80 82 84 86 87 89
46 55 62 62 70 86 56 59 48 49 54 63 66 71 78 79 78 78 79 80 84 86 83 78 75 78 80 85 88 93 94 92 93 91 90 87 85 88 85 86 91 92 93 86 84 86 87 90 92
60 80 95 91 93 81 49 59 48 46 81 82 84 84 83 83 80 84 87 87 87 90 85 75 71 72 70 74 78 79 85 89 90 92 91 89 91 92 92 91 93 93 93 93 94 91 89 89 92
78 85 92 85 75 72 56 80 58 69 78 78 84 88 80 84 84 87 88 90 89 90 90 84 79 77 67 71 77 80 74 84 85 92 94 95 90 86 84 89 91 89 90 92 93 96 96 99 99
85 93 70 98 61 84 63 60 66 75 78 75 84 88 94 88 86 87 84 87 89 89 90 93 81 75 77 65 63 71 77 73 76 75 67 66 64 57 63 74 85 88 88 91 92 94 95 94 96
56 62 90 99 91 76 65 63 76 90 98 95 93 94 95 85 86 86 84 83 77 82 76 77 64 47 50 58 43 42 46 47 46 41 36 35 37 39 41 45 52 63 74 84 90 90 88 90 94
68 66 64 58 65 81 57 58 63 78 94 95 91 92 90 88 87 84 80 60 52 59 50 49 45 41 37 33 35 33 32 32 32 31 30 29 29 30 30 32 33 37 40 43 54 66 74 78 85
47 49 42 59 61 53 54 51 57 69 73 86 83 86 87 83 72 63 56 49 46 41 40 42 45 36 38 31 30 32 30 29 29 28 28 29 29 27 29 32 33 32 37 41 41 41 43 45 50

GFSSGP_sfc_rhum_108.txt.gz
RH
55 43 43 53 62 50 40 30 23 30 31 28 25 28 32 51 66 90 62 55 58 59 65 67 86 85 85 86 86 86 86 86 85 84 82 80 78 75 70 69 71 72 70 71 72 76 76 78 73
52 34 52 55 60 42 31 27 29 32 29 26 26 28 27 55 39 53 57 55 60 60 69 69 84 84 85 87 86 85 85 85 83 84 82 81 80 76 74 71 69 73 75 77 78 78 78 76 72
51 40 64 59 40 39 41 30 36 28 27 28 27 27 43 48 38 43 39 53 62 65 69 75 83 85 84 83 87 87 85 84 83 81 81 81 79 77 77 73 76 80 82 79 81 83 81 80 74
48 60 53 52 36 33 31 35 31 28 27 24 25 46 44 35 37 34 32 43 65 68 72 81 82 82 84 85 84 86 85 84 83 82 83 82 80 76 75 79 81 83 83 80 81 80 81 81 78
56 56 50 39 32 30 32 30 28 30 28 24 24 30 49 33 31 32 34 34 61 65 71 77 82 83 85 84 84 84 83 85 84 82 81 80 79 77 77 81 83 86 84 82 80 78 77 77 75
62 48 49 46 29 29 30 27 28 26 24 23 26 26 48 33 35 38 36 36 43 71 69 70 80 84 85 84 84 84 83 84 84 84 83 81 81 80 80 82 82 85 82 82 79 79 77 75 74
63 48 39 30 30 28 29 27 27 26 23 27 26 29 48 36 35 36 36 38 40 49 64 70 76 77 86 85 86 86 86 86 86 87 86 84 85 84 82 84 84 85 85 84 82 83 80 78 78
49 38 34 26 26 39 32 30 27 27 27 25 25 25 31 29 24 32 35 41 39 40 48 46 73 79 84 82 87 89 89 87 86 86 88 89 89 86 87 88 87 86 87 86 85 84 84 83 84
41 48 37 34 30 39 32 31 32 30 30 23 21 22 19 17 21 32 42 43 44 41 42 42 54 78 82 84 83 92 91 91 91 90 92 92 90 82 84 86 86 87 88 88 86 85 85 87 88
45 46 43 32 34 36 30 31 28 28 25 24 22 19 17 19 23 32 40 46 45 43 42 40 44 53 84 74 82 88 81 86 84 80 78 84 76 69 67 79 86 89 87 90 87 86 87 90 90
42 48 35 35 39 33 30 28 25 30 33 26 22 20 20 23 25 30 35 41 42 39 44 41 42 46 68 88 87 86 88 85 79 70 74 77 74 83 80 78 80 92 92 89 90 90 88 93 85
44 36 31 39 42 36 33 28 27 24 25 19 20 20 21 23 26 29 32 35 36 42 43 43 42 46 50 87 94 84 88 82 81 77 79 91 96 92 86 86 86 87 88 86 83 83 84 80 72
39 38 36 36 40 34 28 32 28 25 21 19 19 22 26 28 28 30 32 31 33 38 42 46 46 48 47 65 89 89 82 90 75 74 74 83 90 96 92 90 92 92 86 92 93 83 75 79 71
39 44 37 36 34 31 34 32 29 23 22 24 26 32 31 32 34 36 34 34 35 35 39 41 44 48 49 53 88 92 93 79 83 68 68 67 81 89 89 81 84 81 80 85 93 91 85 78 84
38 43 39 37 37 38 41 44 40 26 23 24 30 30 34 35 36 38 40 42 42 42 40 41 43 46 48 50 66 92 86 84 85 73 63 64 65 72 70 81 80 76 72 68 81 89 92 90 78
42 45 52 39 41 46 49 41 31 22 26 37 34 36 43 47 49 49 50 53 54 56 55 51 41 43 47 49 56 87 80 86 86 80 70 60 58 64 69 72 76 76 75 76 80 84 89 93 94
44 84 53 48 40 47 51 51 33 31 32 39 41 48 49 53 53 58 59 62 62 63 60 62 60 58 47 45 50 64 90 91 93 88 90 70 60 57 67 69 70 66 75 79 82 89 93 94 96
71 64 52 48 48 47 54 50 39 35 34 43 58 53 55 59 64 63 64 67 69 74 74 74 72 69 54 51 52 58 87 94 93 91 90 82 65 67 68 67 67 66 73 78 86 92 94 95 96
51 50 64 49 43 60 58 54 46 39 40 48 64 57 61 68 64 66 68 70 74 73 77 76 83 81 77 58 56 63 74 76 87 90 85 76 71 70 75 76 74 72 75 75 74 80 88 88 92
53 55 64 52 46 54 59 58 50 45 51 54 59 63 67 70 62 65 70 74 77 81 82 79 79 86 87 93 71 60 78 84 86 89 86 73 73 76 77 84 87 82 83 78 78 79 81 86 93
56 54 58 73 58 54 60 67 58 51 53 52 51 58 66 72 75 69 74 82 82 85 90 86 86 87 88 90 93 88 89 96 97 96 95 88 82 86 89 89 91 92 89 84 82 83 85 87 84
70 46 52 61 79 94 64 96 66 59 56 51 54 70 80 83 75 72 79 83 87 88 89 86 86 88 86 90 94 96 98 97 97 97 94 93 85 86 88 90 89 91 92 92 90 84 89 90 89
64 54 59 65 67 80 73 93 74 52 52 56 73 82 86 84 75 79 83 82 84 87 89 86 83 84 88 91 93 96 96 96 94 94 92 88 87 85 84 86 89 90 92 93 94 95 89 90 92
48 60 66 65 75 90 76 82 78 71 69 75 76 85 86 80 78 77 78 79 84 87 84 82 79 78 76 86 91 94 94 94 94 92 92 90 87 87 85 86 90 89 90 92 93 92 94 91 91
61 79 91 94 96 93 67 76 72 71 84 88 88 86 83 84 82 84 87 88 87 90 91 81 80 78 70 75 83 84 90 91 91 94 94 89 87 88 90 88 93 92 92 91 91 91 92 94 96
79 85 98 88 88 91 65 90 78 81 80 82 78 79 81 83 83 86 88 88 90 89 91 90 86 78 72 65 70 83 80 84 85 89 93 84 82 84 76 80 85 87 87 90 92 91 91 92 95
89 96 73 93 78 93 86 76 85 83 81 74 79 82 87 89 85 86 84 86 86 89 89 91 87 73 71 62 62 63 70 68 70 65 63 65 60 50 59 61 65 75 80 81 83 88 91 90 92
65 64 92 98 96 92 87 84 91 96 90 85 86 85 85 87 85 87 85 83 78 81 74 71 58 49 44 46 40 38 41 41 39 37 35 36 38 43 47 50 53 55 58 60 66 83 85 88 90
68 70 66 63 75 84 89 87 77 89 85 81 77 75 80 82 85 87 83 76 67 61 56 55 49 43 44 38 37 38 37 36 35 35 35 35 34 34 35 36 38 39 42 48 57 60 59 62 72
61 63 58 82 81 78 76 79 68 80 82 83 76 74 78 81 81 81 80 68 60 55 52 49 56 47 46 41 39 40 38 36 35 36 35 35 36 35 34 35 37 38 39 40 46 50 52 53 56

GFSSGP_sfc_rhum_111.txt.gz
RH
62 57 66 65 56 61 60 33 40 35 37 38 34 35 62 62 82 92 62 68 66 64 70 71 86 86 86 86 84 84 87 86 85 82 81 77 76 74 69 72 71 70 69 70 74 75 78 76 73
61 52 63 72 70 51 39 43 46 40 37 32 27 30 51 58 50 52 54 47 66 63 72 76 81 83 86 87 84 83 84 85 84 82 81 80 78 75 73 70 70 72 76 77 78 80 80 75 74
57 52 73 74 58 51 51 52 38 33 29 30 32 49 51 54 40 48 39 44 70 68 74 77 82 80 82 86 87 86 84 83 83 83 84 82 78 77 77 75 75 79 81 80 83 83 82 77 75
59 68 62 59 56 40 47 49 34 34 28 26 34 60 47 40 40 43 36 40 71 67 72 84 84 80 80 81 83 85 85 84 83 83 83 83 78 74 77 80 81 82 84 81 82 82 81 81 78
68 70 59 47 41 48 44 35 30 32 32 27 28 46 48 40 36 38 39 37 58 77 71 73 85 81 82 83 83 83 83 82 84 84 82 80 77 77 79 83 84 85 85 82 79 81 81 80 80
70 56 59 57 43 43 36 30 31 29 28 28 28 41 53 41 37 41 41 39 48 58 70 70 78 83 83 84 85 83 82 82 84 84 83 83 80 80 81 83 84 86 83 81 80 80 79 78 76
73 52 49 41 40 39 39 31 36 33 32 32 31 38 48 44 39 39 40 38 42 50 48 45 71 76 84 84 84 86 85 86 86 86 84 85 85 85 82 84 85 85 86 86 85 84 80 78 75
52 42 39 30 34 51 37 34 35 36 36 25 26 30 58 33 33 39 37 42 42 43 50 44 53 80 83 89 86 88 90 88 85 86 88 90 89 88 88 88 88 87 88 88 87 87 86 83 83
45 49 46 48 42 43 36 37 32 33 35 28 27 25 24 24 28 33 42 43 45 44 45 41 50 46 80 86 84 90 91 91 92 93 92 93 93 89 88 91 91 90 89 90 88 87 88 89 89
47 59 51 44 46 41 34 31 30 31 31 30 26 21 20 24 27 34 38 43 45 42 38 42 43 50 53 78 88 90 86 93 93 92 89 88 89 88 77 87 92 91 89 90 90 88 89 92 97
45 51 41 52 42 37 34 31 28 34 35 30 27 23 22 24 28 32 36 40 40 37 44 44 42 43 51 68 95 97 97 92 88 86 83 88 82 90 85 87 85 93 91 90 91 92 91 97 97
44 40 40 47 45 41 41 31 32 34 29 27 27 29 26 26 28 32 33 36 37 41 43 45 47 46 50 57 90 97 96 90 86 79 83 91 97 96 96 94 90 93 96 97 98 98 97 97 96
42 46 39 42 40 41 35 37 37 30 25 25 28 29 30 31 32 36 38 39 41 43 46 46 48 51 49 52 69 96 96 90 84 80 79 84 95 97 96 95 93 90 92 96 98 93 94 95 88
48 44 39 37 38 36 39 41 39 26 25 26 28 36 38 40 43 44 44 46 52 52 57 50 51 49 51 55 55 87 97 96 80 90 82 75 85 93 94 95 91 86 86 91 97 97 92 92 90
40 43 47 45 40 44 50 48 47 30 25 25 36 38 49 50 52 58 66 71 72 71 69 70 66 64 54 54 56 68 96 90 87 85 92 73 76 84 85 91 88 86 82 82 90 95 97 98 96
47 45 56 46 44 51 49 29 39 30 25 38 42 51 54 67 73 73 74 75 76 78 79 75 70 75 77 68 58 58 87 95 90 82 87 89 66 81 84 83 86 82 82 81 84 90 94 96 96
55 86 59 55 44 52 56 50 39 35 38 40 50 56 55 70 73 75 74 77 79 79 82 79 77 83 81 80 62 58 63 95 95 90 89 83 80 72 73 76 82 74 80 84 85 90 94 95 97
72 68 56 54 52 54 60 60 48 41 43 45 61 63 72 73 75 71 75 73 78 78 80 82 79 80 83 85 77 64 68 87 93 94 87 84 87 88 84 82 91 82 79 82 88 92 95 95 95
56 55 66 56 53 60 64 64 55 50 48 58 70 76 76 73 73 75 75 79 80 78 76 73 73 78 81 83 92 87 69 73 91 96 85 78 89 91 95 94 90 86 85 84 82 86 93 96 96
56 59 70 64 55 58 65 65 54 54 59 63 63 76 82 82 77 72 76 76 86 78 80 84 81 85 82 84 88 97 87 88 87 93 97 94 93 92 94 96 97 98 98 96 94 92 93 94 96
64 63 74 77 66 65 66 72 65 60 62 56 58 79 83 86 87 81 72 82 83 85 88 85 85 89 86 88 90 92 95 93 95 97 96 92 88 92 91 91 91 94 96 89 87 92 96 97 89
73 56 60 70 82 93 70 87 77 63 66 66 79 92 92 89 84 74 84 86 87 88 88 85 83 83 78 85 92 94 95 97 97 96 94 94 89 91 89 91 88 89 92 94 93 88 95 96 93
73 60 66 71 80 88 82 95 78 70 66 75 92 91 92 91 88 86 86 81 84 87 89 86 80 79 79 84 88 94 94 95 93 95 94 95 92 87 87 88 88 89 90 93 92 95 93 93 96
59 68 76 73 78 98 80 85 85 74 64 80 90 93 93 92 90 80 81 81 85 87 85 80 78 77 72 76 83 90 93 93 94 92 92 88 85 84 80 81 88 88 91 94 96 94 94 92 91
68 87 98 93 99 93 76 87 77 71 90 88 92 93 92 92 91 87 91 89 89 90 89 78 79 72 68 66 70 74 81 84 86 89 90 84 78 74 74 80 87 90 88 87 94 92 91 93 93
80 82 96 94 99 93 75 87 73 87 88 88 86 88 79 87 85 87 87 88 90 88 89 87 84 69 64 60 65 70 70 79 79 77 78 76 74 76 69 66 68 70 77 87 89 93 93 90 94
90 92 78 95 90 96 90 76 82 90 91 89 86 83 88 85 84 87 85 86 87 88 85 86 76 69 64 54 55 54 58 58 64 59 58 63 58 44 55 59 58 59 61 66 72 88 90 88 91
68 68 88 96 97 83 88 85 87 94 91 88 90 88 83 88 86 86 87 84 82 84 75 71 57 50 52 49 43 40 42 42 40 37 36 36 37 42 46 49 53 56 57 60 69 73 77 79 87
72 81 78 70 78 87 94 84 80 81 89 89 88 82 80 83 85 84 85 86 84 79 64 58 62 50 48 47 45 44 44 42 39 40 42 41 39 40 40 40 41 44 46 50 61 64 62 63 67
68 71 72 88 86 76 87 80 70 82 87 86 86 82 80 79 86 88 91 89 82 68 58 55 61 54 50 47 46 45 44 45 46 47 47 46 46 44 42 42 43 44 45 49 56 58 60 60 60

GFSSGP_sfc_rhum_117.txt.gz
RH
66 63 75 63 41 51 54 46 64 49 44 49 63 73 81 75 83 76 74 45 71 79 73 78 82 80 81 82 82 84 85 84 82 79 78 75 74 71 72 70 72 71 70 71 75 76 72 74 78
66 59 68 67 42 40 46 56 52 48 42 61 56 64 62 68 55 52 55 42 70 74 76 82 82 80 81 82 83 84 85 84 83 81 79 78 78 73 72 72 72 75 76 77 76 78 77 77 79
58 60 70 62 66 45 59 54 48 41 37 39 61 55 52 60 47 49 45 48 76 77 80 84 80 80 79 82 83 82 81 84 84 84 84 80 78 78 76 74 74 77 80 80 80 83 81 79 77
65 66 56 53 64 62 64 58 43 40 32 34 58 63 46 47 49 47 45 50 58 63 60 81 86 80 80 83 82 81 81 81 83 84 84 82 79 78 78 80 84 83 84 81 82 84 83 82 80
72 59 55 61 66 55 45 38 38 38 35 38 50 61 53 44 46 43 42 46 55 52 42 52 73 81 84 80 80 81 81 82 84 83 80 81 79 78 79 83 86 85 83 82 81 83 81 80 79
72 58 54 62 64 49 45 39 37 37 37 34 48 58 55 48 42 45 44 45 52 55 49 45 52 56 74 84 86 83 81 82 83 84 82 81 81 81 81 84 85 86 82 82 82 83 82 82 80
64 60 59 61 54 49 43 40 42 40 41 33 42 66 53 46 46 44 41 42 43 50 45 41 47 48 58 73 84 88 86 85 84 83 83 84 85 85 81 85 86 85 85 86 88 87 87 84 83
56 46 41 64 50 49 43 39 39 38 37 33 32 62 64 39 43 36 37 40 40 41 42 41 44 50 57 58 74 83 90 91 88 88 89 90 91 89 88 89 89 88 88 89 89 89 88 88 87
45 54 56 52 48 47 42 41 35 37 33 31 30 31 28 32 31 34 41 41 42 41 42 46 50 47 54 56 66 73 84 89 93 93 94 94 96 95 92 92 93 92 89 90 90 90 90 90 91
51 63 54 54 50 45 38 36 38 34 35 33 28 26 27 28 34 39 41 46 44 46 52 59 59 58 54 42 62 78 75 84 84 88 92 97 96 97 90 94 93 92 92 92 92 91 90 93 98
54 56 53 54 43 38 38 38 35 34 37 34 31 31 31 35 37 42 46 51 55 58 77 76 74 70 66 62 68 68 87 91 91 85 88 91 91 97 96 98 94 97 98 96 95 97 97 98 99
50 48 47 52 45 38 40 37 34 38 36 28 29 30 36 38 42 53 71 80 80 86 86 83 83 84 82 76 77 70 76 85 92 89 86 92 96 94 98 99 98 98 98 97 98 98 97 98 98
52 53 48 46 39 40 35 39 40 36 31 33 28 36 43 54 77 83 87 87 88 88 87 86 84 86 84 88 87 81 77 84 82 92 94 88 89 91 93 93 98 98 99 99 98 98 98 98 98
53 53 46 40 41 42 38 44 45 30 32 28 32 49 69 80 88 90 90 88 84 81 85 84 82 84 88 88 91 91 87 78 85 94 95 93 93 87 88 90 96 97 96 98 98 99 99 98 98
46 47 47 45 45 50 51 39 44 34 34 30 47 69 88 90 87 91 88 88 88 84 85 84 78 80 86 87 87 92 92 77 80 86 90 91 93 95 86 90 94 90 96 95 97 99 99 99 99
44 48 44 48 48 55 38 21 36 39 33 34 54 80 89 89 87 85 86 88 86 86 89 85 75 83 84 86 88 88 90 88 84 85 92 89 89 93 95 92 94 93 97 97 97 98 99 99 100
56 65 54 56 50 58 53 38 44 38 35 47 53 82 91 90 88 88 85 85 88 89 88 84 78 77 85 85 84 86 90 95 92 91 94 93 91 92 96 96 93 96 96 98 97 96 96 98 98
55 76 57 59 57 58 64 60 50 48 44 49 62 78 90 88 88 86 83 80 84 90 89 80 71 81 79 72 72 74 81 93 95 97 94 89 86 89 92 94 95 96 96 97 98 98 97 97 95
55 62 62 68 60 66 66 66 59 52 55 60 64 83 91 89 88 85 82 85 88 89 90 88 86 89 85 81 86 83 85 82 90 92 87 89 93 92 93 94 94 95 98 97 96 96 98 97 97
58 66 79 74 63 71 73 72 63 63 65 64 71 89 89 89 86 84 87 90 92 91 94 91 86 87 86 84 86 87 89 91 93 92 88 90 91 92 89 93 94 93 95 93 95 94 96 96 96
74 75 81 73 72 74 74 55 69 70 75 77 78 85 88 88 87 88 86 92 94 94 96 92 90 88 85 89 92 93 86 88 91 91 92 89 86 87 90 91 93 94 95 96 95 96 95 97 92
77 68 71 76 78 68 73 66 61 72 79 78 92 94 92 89 88 88 91 92 94 94 94 92 86 84 71 84 95 94 94 94 92 92 89 86 80 82 82 84 86 92 95 96 94 93 95 95 97
74 69 75 78 86 87 79 91 70 80 76 77 89 94 93 91 90 90 91 91 92 93 94 93 84 76 72 75 83 92 88 89 88 86 83 82 77 70 73 78 82 83 85 90 92 94 94 94 94
65 76 76 88 86 85 79 89 78 77 70 74 89 93 93 93 91 90 91 90 91 90 91 89 78 70 69 71 72 76 80 79 79 76 76 74 71 71 66 66 72 74 82 84 86 86 88 90 91
73 84 89 71 91 77 82 92 78 59 65 72 80 93 92 92 93 92 93 93 91 91 90 85 82 67 64 63 66 67 72 73 75 78 78 71 69 66 67 68 71 73 74 77 83 86 86 90 94
89 80 84 53 97 94 82 94 70 69 86 88 86 87 89 90 92 92 92 91 92 89 90 87 85 77 67 59 62 65 64 74 74 70 74 72 69 68 62 62 62 61 59 68 72 84 80 85 93
83 93 80 91 93 96 92 76 65 88 87 91 90 91 90 91 93 93 91 91 91 88 89 86 85 60 59 56 58 58 61 59 61 57 59 61 60 45 60 62 63 63 61 66 67 77 74 83 87
78 76 88 91 93 95 89 85 82 81 81 84 92 93 90 90 92 92 93 92 92 90 88 84 80 60 54 56 52 50 52 50 51 53 53 52 52 53 54 55 57 59 60 68 71 76 74 75 82
88 90 86 84 88 94 92 67 67 70 73 68 80 88 89 90 91 91 92 92 91 90 89 86 72 65 54 53 52 51 51 51 53 55 56 56 52 52 50 51 52 53 54 58 67 69 70 72 74
82 84 83 89 82 90 89 78 63 78 72 79 76 80 87 88 88 90 91 91 92 91 89 88 69 70 61 54 52 51 52 53 56 58 58 55 53 53 54 52 54 55 56 56 64 65 69 72 73

GFSSGP_sfc_rhum_120.txt.gz
RH
68 67 75 56 29 41 54 49 66 55 70 76 73 78 85 81 76 69 74 50 59 81 73 81 82 79 80 81 82 84 82 81 80 79 79 75 71 70 69 70 71 72 71 72 73 76 70 75 76
67 62 63 63 38 34 44 61 53 50 64 68 62 67 66 72 58 55 63 44 76 76 78 86 82 78 78 81 82 83 82 80 81 80 79 78 77 72 72 71 72 74 75 79 79 77 75 79 80
62 59 62 64 49 32 58 60 48 43 43 47 64 54 55 61 50 52 47 50 58 49 58 83 86 80 78 79 80 81 80 79 82 81 81 80 80 79 75 74 74 77 78 81 80 83 83 80 80
68 64 54 48 63 69 63 59 47 42 35 46 60 62 49 49 52 50 46 53 51 48 37 56 70 82 83 83 80 77 79 79 82 83 82 78 80 79 79 80 84 85 83 82 81 81 82 84 81
68 56 58 68 72 67 55 42 42 40 44 49 57 61 54 47 46 46 46 47 54 51 43 43 51 53 67 83 86 84 80 79 82 82 80 79 79 79 79 84 84 86 82 81 81 81 82 82 81
68 55 60 71 67 52 53 44 39 40 40 36 57 56 57 50 46 47 45 44 50 51 44 42 48 52 53 56 71 83 86 85 83 82 82 80 81 80 81 85 85 85 82 80 82 82 84 83 81
61 59 60 70 57 54 44 44 42 41 41 36 51 64 55 46 51 44 40 41 43 47 44 45 49 49 52 53 62 66 76 85 89 86 85 84 86 86 81 86 87 86 86 87 88 87 86 86 86
55 47 60 70 55 51 45 42 41 38 38 35 43 57 56 43 42 37 37 41 41 45 55 56 55 58 60 60 59 63 69 77 83 91 91 92 92 90 89 90 90 89 89 89 89 89 89 89 89
46 51 59 54 50 46 44 40 37 37 33 32 31 37 34 34 33 36 43 47 53 61 70 74 74 67 68 58 56 64 62 68 79 86 93 95 97 96 94 94 93 91 90 90 89 89 90 91 92
52 57 49 51 49 46 39 37 39 34 35 32 29 28 29 31 39 46 52 62 71 75 82 85 84 81 76 61 78 79 64 73 73 71 84 88 92 96 92 96 95 93 92 92 91 91 92 94 98
56 54 51 52 45 38 37 38 38 34 38 34 29 30 31 40 46 57 73 76 86 88 88 85 87 89 91 85 84 81 86 87 80 79 71 82 86 93 95 99 97 97 96 94 94 97 97 98 99
54 53 51 50 45 37 37 36 35 39 35 28 30 31 40 49 66 87 92 92 92 90 89 87 87 91 92 93 92 93 86 85 82 78 87 95 96 93 91 92 97 98 98 98 98 98 97 99 98
55 58 51 44 41 40 33 39 39 36 33 35 30 41 53 77 91 93 91 88 88 88 88 88 89 92 89 94 95 95 96 93 84 83 85 95 96 97 95 90 95 95 96 99 99 99 98 98 98
57 53 46 42 42 45 35 44 45 31 33 32 34 58 75 88 90 91 90 90 86 84 89 88 87 88 90 92 95 96 98 96 85 87 83 85 94 97 98 97 92 90 91 95 98 98 98 96 96
47 46 46 47 43 51 53 37 38 34 35 36 54 80 92 93 90 93 90 89 91 87 88 88 80 84 87 93 94 96 96 92 96 90 89 85 87 94 96 97 97 94 95 97 96 98 98 94 95
43 46 41 47 46 56 37 19 38 40 34 41 65 90 93 91 91 91 90 90 88 89 91 86 75 84 85 91 93 90 91 96 98 97 97 94 92 95 98 98 98 97 96 93 95 98 99 97 96
55 63 57 54 51 56 51 37 42 44 36 40 58 89 93 92 92 92 85 85 89 92 92 90 83 84 86 83 81 86 90 96 91 91 91 85 82 81 91 96 97 98 98 97 97 96 98 98 99
53 68 55 63 57 58 64 58 50 48 42 42 57 76 95 93 89 87 83 82 86 92 93 90 85 88 88 85 88 84 76 87 91 93 90 87 87 88 94 89 95 94 97 96 97 98 97 98 97
60 59 60 75 62 73 66 67 59 54 58 58 56 69 94 93 91 88 84 86 89 89 92 93 90 91 89 92 94 90 87 88 91 91 85 86 86 87 90 93 91 93 94 93 90 94 98 98 96
58 63 80 76 66 76 75 74 62 64 65 63 60 68 90 92 93 85 88 90 92 92 94 93 88 89 87 91 86 90 93 91 92 89 87 82 80 84 83 90 93 92 94 92 94 96 96 95 96
80 71 79 71 72 76 75 52 53 74 76 79 77 80 90 92 92 88 85 91 92 93 95 91 88 85 84 87 96 96 93 94 88 88 85 77 72 78 81 81 85 91 92 94 93 94 95 98 96
70 74 76 75 73 64 75 64 47 70 72 81 87 90 92 91 89 88 88 91 92 94 93 90 83 79 71 81 92 93 93 97 95 93 86 78 67 69 73 78 81 83 88 90 91 90 94 94 96
77 72 78 80 86 85 80 86 58 80 71 72 85 92 92 92 91 91 90 88 92 92 92 90 78 73 75 76 82 88 85 89 87 86 81 81 78 69 66 67 69 78 84 86 84 87 88 94 90
69 77 71 84 84 81 79 88 68 69 68 74 82 88 92 93 93 91 89 91 92 91 89 86 73 68 68 71 73 78 80 80 80 79 81 79 74 73 70 66 75 73 79 78 87 87 88 89 91
72 83 82 67 86 75 81 94 73 59 65 74 74 82 92 93 94 93 92 92 92 91 89 85 81 66 65 62 66 68 72 72 74 78 78 74 77 76 74 72 74 73 70 70 76 82 80 88 90
87 77 79 41 83 91 86 96 71 70 85 85 86 86 91 93 94 93 91 92 93 92 91 88 86 72 62 58 62 64 62 71 71 70 73 73 71 70 66 67 68 68 70 74 77 82 82 85 90
88 90 79 91 96 93 91 75 63 72 81 88 88 90 90 91 91 93 92 92 92 93 91 89 86 65 60 56 59 58 60 58 60 58 60 62 62 46 61 63 63 64 65 70 73 79 78 80 84
79 75 87 93 84 88 86 83 79 77 80 82 87 91 90 89 91 93 92 92 92 91 91 90 85 75 55 59 54 51 54 53 54 55 55 54 54 56 57 59 61 62 62 68 72 77 76 76 82
91 90 88 86 87 91 89 58 67 70 73 64 70 81 86 88 90 91 92 91 91 92 93 91 83 76 60 55 55 54 53 53 55 57 59 57 53 54 53 54 55 57 58 60 69 71 72 74 76
82 83 83 87 80 92 91 76 62 76 75 74 71 74 82 87 89 90 91 91 93 94 93 92 88 72 71 57 56 54 54 56 58 59 61 56 54 56 57 56 57 59 60 61 60 66 70 73 75

GFSSGP_sfc_rhum_123.txt.gz
RH
59 59 58 43 28 31 35 34 38 38 64 67 58 56 62 67 65 61 59 43 64 62 71 74 81 77 77 80 80 82 80 80 77 77 77 77 71 70 69 69 70 72 71 71 72 71 69 73 77
58 55 51 45 32 25 30 36 42 38 62 56 50 53 58 67 46 47 50 41 42 39 60 70 84 78 78 78 80 80 78 78 79 79 78 78 76 72 72 70 71 73 74 78 79 76 76 79 81
55 51 52 44 31 22 37 43 37 35 59 40 48 43 48 50 39 38 37 43 36 30 37 52 69 83 81 81 80 80 79 78 80 80 78 78 78 78 75 75 75 76 76 79 80 79 81 84 82
62 55 45 34 37 42 43 38 34 33 35 44 47 50 40 38 38 38 37 39 35 31 26 48 57 61 74 85 87 82 78 78 80 81 81 79 77 78 78 80 84 86 84 78 80 80 82 84 82
55 47 50 55 52 45 34 32 32 30 39 44 43 51 43 37 39 36 37 34 37 29 31 35 54 54 54 61 74 82 85 84 81 79 80 78 80 80 80 84 86 86 83 78 80 80 80 85 82
59 45 50 55 51 37 32 32 28 32 30 32 45 44 43 37 36 36 36 36 39 39 43 43 51 56 56 57 62 63 73 82 87 84 81 78 76 77 79 84 85 85 82 81 79 82 83 85 83
57 50 51 59 49 39 33 31 30 30 28 29 44 44 40 35 38 37 36 38 46 58 60 57 54 56 58 58 62 61 62 64 73 85 87 88 88 85 82 83 84 83 84 85 86 87 87 87 86
52 52 56 53 47 44 35 33 31 27 28 25 31 42 38 34 30 36 41 46 58 64 68 68 64 62 61 55 70 67 63 62 64 74 86 90 92 90 87 90 86 86 87 87 86 86 87 88 89
42 54 61 55 50 42 35 32 28 27 25 23 24 29 30 25 31 40 49 61 64 65 68 69 71 66 67 59 62 69 68 68 64 64 77 80 69 76 78 89 94 92 89 88 88 88 87 89 92
48 55 50 44 40 42 35 30 28 26 26 24 23 24 26 33 39 50 61 72 73 70 69 69 73 72 70 56 68 68 60 61 59 55 52 46 70 80 83 87 94 90 90 90 87 89 92 92 66
53 50 48 42 37 35 33 32 28 29 29 26 24 24 28 39 50 66 73 77 78 75 70 71 74 74 73 71 69 65 66 69 63 61 59 55 56 67 76 80 81 81 83 70 72 73 72 74 76
53 52 46 44 38 33 32 30 29 28 25 24 25 26 34 48 67 76 77 76 74 73 73 72 73 75 73 73 72 70 69 68 66 63 65 68 74 65 54 56 73 87 85 78 79 80 77 78 77
54 51 42 41 39 36 31 35 28 26 28 26 32 40 46 69 80 80 75 72 70 71 75 76 75 74 72 75 75 73 73 75 71 68 66 65 62 64 65 60 70 73 78 88 92 91 85 79 81
52 48 41 42 42 45 30 36 37 26 26 28 38 49 64 74 78 78 73 71 70 70 73 74 72 74 72 75 78 76 75 74 76 78 76 72 67 66 66 62 61 60 64 74 91 92 92 90 88
44 41 43 46 41 46 47 31 31 27 29 31 46 68 80 82 77 76 76 72 72 70 73 73 68 72 74 75 76 75 76 76 78 82 80 78 79 82 80 80 75 73 76 74 79 82 93 92 90
40 40 38 43 45 53 31 24 32 30 34 45 58 78 84 82 78 77 72 69 71 72 74 73 69 71 73 74 74 71 74 73 80 80 87 84 78 77 83 83 80 77 77 76 82 85 86 93 95
49 61 44 44 47 49 39 28 30 35 32 34 52 74 82 83 81 76 70 72 72 74 76 75 72 72 72 73 73 75 71 79 81 82 83 81 80 79 83 82 85 80 83 88 91 92 93 90 91
51 57 47 47 50 53 55 47 42 40 35 33 41 53 81 82 78 74 70 71 73 73 75 73 70 69 69 74 76 73 69 82 87 82 81 77 78 80 85 83 84 86 87 90 89 88 87 92 91
55 47 55 62 57 61 57 60 49 44 48 48 42 43 62 83 77 76 72 73 75 73 75 73 71 68 68 76 79 76 82 81 82 84 73 73 73 77 81 87 84 86 87 85 86 88 89 93 83
54 56 72 67 62 63 69 63 52 53 54 50 46 45 50 82 84 78 74 74 76 78 78 74 68 66 66 73 78 81 85 83 85 78 68 65 64 70 64 74 81 84 86 83 83 89 91 88 87
76 60 63 63 64 62 67 45 38 55 63 64 64 60 60 74 84 80 76 74 80 80 81 74 69 64 65 71 80 83 81 78 75 71 68 61 56 63 69 70 70 73 78 83 84 84 87 94 84
69 70 71 70 58 57 61 59 41 47 58 67 68 76 76 83 81 78 77 77 80 82 82 75 65 62 57 67 72 79 80 76 78 76 69 62 56 57 59 60 65 72 76 82 81 71 81 86 90
76 71 74 72 75 70 59 75 44 61 54 54 66 75 79 82 81 80 80 78 79 81 81 75 62 58 60 62 67 71 67 71 68 67 62 60 58 55 54 54 56 60 64 74 73 76 74 77 76
72 66 66 72 72 73 70 68 49 50 50 55 62 73 80 83 82 80 78 79 82 83 78 73 59 56 56 56 60 63 65 64 64 62 61 59 56 58 56 53 55 56 56 59 70 64 72 73 74
69 71 82 73 83 72 74 84 54 47 51 57 59 64 78 82 84 84 85 84 84 86 80 74 69 56 53 50 53 55 57 59 58 61 61 56 55 52 53 54 54 54 57 57 57 56 62 64 79
80 68 78 57 63 78 81 88 56 57 75 70 74 75 76 84 85 86 84 83 84 85 84 77 76 63 54 47 49 53 51 56 57 56 58 55 54 52 52 51 51 50 53 54 56 60 60 59 71
83 86 69 89 92 90 73 67 55 64 63 73 77 80 80 84 85 84 83 83 83 84 84 83 77 75 54 47 48 46 48 48 50 48 50 49 49 39 48 50 50 50 51 54 56 61 60 60 66
71 72 76 86 78 75 72 72 75 64 72 67 72 79 80 81 82 82 83 83 82 82 83 84 78 70 53 49 43 40 42 42 43 43 43 42 41 44 45 46 48 49 50 52 57 60 60 59 65
87 88 84 77 77 79 73 47 59 62 61 60 61 66 74 79 82 81 82 80 78 80 80 80 77 68 61 45 44 43 42 42 42 42 44 43 40 41 42 42 44 45 45 47 51 54 57 60 61
79 79 76 74 78 84 80 62 48 57 71 67 65 66 68 75 78 78 78 77 78 78 78 81 78 72 61 52 44 45 43 44 44 44 46 43 39 42 44 44 44 45 46 46 45 50 55 58 60

GFSSGP_sfc_rhum_126.txt.gz
RH
49 40 36 26 16 13 17 21 22 27 35 39 38 38 41 45 46 56 47 43 39 48 53 55 82 75 74 77 77 77 76 76 76 75 74 75 70 69 70 70 70 72 71 72 72 70 68 72 76
42 40 32 21 14 11 15 22 26 32 44 38 38 41 44 55 46 45 39 35 30 34 45 50 79 82 76 77 78 78 76 76 77 76 76 77 75 73 72 70 70 72 74 76 79 76 74 79 80
44 41 28 16 13 9 16 25 26 43 35 36 39 36 45 50 36 32 30 30 26 22 30 45 64 71 84 84 83 79 78 77 77 77 78 78 79 78 76 75 75 75 75 76 78 80 81 81 84
41 34 25 16 12 24 25 24 30 38 32 34 34 40 35 32 30 27 26 22 21 20 21 43 58 58 65 76 80 84 83 81 79 78 78 77 76 79 79 80 83 82 82 79 76 81 84 83 84
34 29 22 20 27 30 26 25 30 27 29 34 32 38 39 32 26 24 22 20 21 23 26 29 59 58 59 64 66 70 79 83 84 81 79 76 74 74 75 79 83 83 82 81 76 80 79 84 82
37 26 18 20 26 28 24 23 23 24 29 33 31 31 33 29 24 26 25 28 36 37 38 37 51 60 59 63 63 61 63 68 76 85 86 84 82 79 77 78 80 80 80 83 82 79 84 85 84
33 27 20 22 29 30 26 22 22 24 26 31 27 31 30 29 28 29 29 36 42 46 45 41 40 46 54 62 71 68 64 62 62 69 79 83 86 85 83 84 84 82 81 81 82 81 81 82 85
31 28 32 27 27 30 25 24 22 21 24 24 26 28 32 29 25 31 36 42 43 46 48 49 46 44 42 38 64 67 67 67 63 60 66 83 84 85 85 88 84 86 86 85 85 84 84 86 86
28 30 29 35 28 30 24 24 22 20 20 18 22 24 25 24 24 30 40 47 45 46 48 50 51 46 46 41 46 54 59 61 60 55 61 51 49 58 65 82 90 89 87 87 86 86 88 89 89
30 31 32 30 27 27 24 22 21 19 19 22 23 21 21 22 25 35 43 49 51 52 50 50 54 52 48 39 44 41 38 40 39 39 38 30 34 41 57 76 90 88 88 88 84 84 89 90 52
38 33 36 33 29 25 25 23 21 20 23 19 23 21 22 26 33 41 52 56 58 56 52 52 53 55 51 50 47 40 39 41 39 42 44 40 34 34 32 35 45 55 70 61 65 62 56 53 54
39 39 34 35 30 25 25 22 22 20 22 16 17 17 23 29 37 46 50 55 56 56 55 54 52 54 52 50 48 45 42 46 43 43 46 46 42 42 36 30 31 40 47 54 60 64 57 60 60
38 36 31 30 28 26 23 24 21 21 20 17 20 24 26 35 45 51 52 52 51 52 56 58 56 55 53 54 54 50 47 45 48 49 50 51 48 48 41 36 34 33 33 41 48 56 63 73 70
38 32 30 28 30 30 22 23 22 19 20 22 27 29 34 41 46 53 51 49 48 49 52 55 56 57 55 56 60 56 51 52 55 61 60 54 53 53 50 47 41 38 35 37 42 49 57 65 73
29 32 27 31 30 33 27 21 20 18 20 22 27 33 44 49 52 47 54 52 47 47 51 53 54 56 58 58 59 57 58 58 62 68 74 72 66 62 66 65 60 51 46 44 44 47 60 73 68
26 26 34 30 32 38 25 19 20 20 19 20 26 39 50 54 52 55 51 47 49 49 49 51 50 55 56 58 59 56 58 62 64 55 72 72 67 69 74 69 59 58 52 50 50 54 68 74 67
28 55 33 32 35 34 25 16 19 22 22 21 25 37 46 51 56 54 51 52 48 49 50 52 53 54 54 56 56 58 59 62 58 53 56 63 66 68 68 66 60 59 60 61 67 60 64 82 87
37 42 29 30 37 35 31 21 21 25 22 19 20 26 41 48 54 51 51 53 53 53 53 52 50 51 50 56 56 54 56 61 62 58 57 60 59 64 68 76 74 75 66 69 67 67 65 76 75
29 29 38 42 47 42 32 33 25 22 28 22 17 20 28 42 47 56 54 54 56 55 56 53 52 49 50 56 59 60 75 74 65 63 57 56 56 59 61 69 70 73 76 68 64 66 75 74 72
25 29 44 48 49 41 39 32 22 21 25 24 21 19 22 30 49 59 59 55 56 59 59 55 51 48 51 56 60 66 73 71 68 59 54 51 48 54 49 55 58 60 67 65 68 72 74 80 78
38 26 38 53 47 43 40 21 25 26 30 32 31 30 29 32 36 52 60 56 58 60 60 56 51 47 50 56 60 67 69 61 56 52 47 44 41 46 50 50 52 54 53 56 54 57 66 86 75
40 50 45 44 34 39 41 40 22 21 26 40 39 43 41 44 41 49 58 58 60 60 62 56 50 48 42 51 54 61 60 58 53 49 44 43 40 42 45 45 45 49 54 56 52 49 56 56 60
56 50 48 45 41 44 37 59 18 29 21 24 30 40 44 50 52 55 59 57 58 62 64 57 47 44 43 46 50 49 49 48 45 44 44 44 41 41 41 40 39 42 42 51 52 52 52 54 53
51 46 49 46 46 60 50 43 23 25 28 35 39 38 48 53 55 56 55 58 58 62 64 59 47 44 42 41 43 46 48 46 43 42 40 38 35 36 36 35 36 36 38 41 41 43 46 47 51
49 49 94 88 96 61 58 54 23 28 32 37 41 41 47 53 56 58 62 62 61 65 66 60 52 47 40 38 38 40 41 42 41 40 38 38 36 34 37 38 38 35 39 41 41 43 43 43 47
56 50 79 90 47 53 60 58 31 39 50 40 46 49 53 54 58 60 62 63 64 63 66 60 56 50 40 33 34 38 39 38 38 39 39 36 34 33 37 37 36 36 36 38 40 42 43 44 49
59 64 49 69 62 57 40 38 34 39 42 38 48 55 52 56 58 60 61 62 62 61 63 64 57 54 45 35 32 30 31 35 36 37 37 34 35 28 32 37 36 36 37 39 41 43 43 44 49
53 50 60 65 69 46 44 45 57 58 54 42 43 45 46 52 56 58 59 59 59 58 58 62 60 50 44 34 28 27 27 29 31 32 32 32 30 31 32 33 34 35 36 37 40 42 44 45 48
60 61 58 50 56 51 33 25 32 40 44 43 38 40 42 46 50 53 54 53 53 53 52 54 56 54 47 38 28 28 28 30 29 29 30 31 29 26 27 28 29 29 30 30 34 38 41 44 46
56 53 43 43 57 52 48 29 29 36 44 46 40 41 41 44 44 45 47 46 47 49 48 50 52 54 52 42 33 28 28 30 30 30 30 30 30 27 28 29 29 29 31 31 31 32 36 42 45

GFSSGP_sfc_rhum_129.txt.gz
RH
49 36 26 23 16 13 13 14 12 22 24 25 30 31 35 42 45 61 43 37 37 44 44 55 84 80 76 77 76 76 75 75 75 74 75 73 69 68 68 67 68 71 72 73 74 70 66 70 75
32 32 30 19 21 11 11 15 19 23 30 31 33 33 35 50 41 44 39 34 29 34 42 52 73 83 81 78 78 78 76 75 74 73 74 75 76 72 72 70 69 70 72 75 79 78 78 75 79
37 34 24 20 12 10 16 16 20 33 29 27 34 32 38 46 33 31 30 30 26 25 34 48 64 70 76 81 84 83 81 78 78 77 77 75 75 76 76 76 76 76 77 77 74 77 81 80 83
36 32 24 18 11 19 18 15 29 30 30 28 28 39 35 31 29 24 21 23 24 24 26 49 60 62 68 70 72 78 83 83 81 79 77 76 75 76 74 76 80 81 82 81 78 76 82 84 82
37 21 16 16 11 20 16 18 28 26 27 29 27 36 40 29 23 20 19 20 23 25 27 32 59 59 63 64 64 66 68 74 82 83 82 80 78 74 74 76 79 80 80 81 80 76 80 83 82
34 22 18 17 17 19 20 21 24 20 25 27 27 31 34 25 23 24 23 29 32 33 32 31 49 54 57 65 66 65 63 62 66 73 82 83 83 82 81 79 79 79 78 78 78 78 80 80 82
43 23 18 13 19 23 21 19 20 21 24 25 22 26 31 27 26 26 28 31 36 39 38 36 34 40 55 62 66 65 65 63 60 59 61 68 79 82 82 82 83 81 83 83 83 81 80 82 82
33 25 22 12 21 22 21 19 17 19 23 24 22 26 32 28 25 29 33 35 36 39 42 43 40 37 37 34 62 60 56 60 57 57 61 63 71 82 81 86 83 85 85 86 86 85 84 86 88
25 28 23 20 19 24 21 23 19 17 22 19 21 22 23 22 24 30 38 40 38 39 42 44 47 42 40 35 38 52 58 59 63 53 59 52 33 38 52 77 85 86 86 84 83 83 86 89 91
30 24 17 18 20 23 22 20 20 19 20 22 23 22 22 21 24 31 36 43 44 45 43 43 48 48 43 33 40 35 32 34 32 33 36 29 28 29 41 57 82 81 83 85 84 85 87 89 57
28 26 30 28 25 20 22 20 18 19 23 20 23 23 22 22 24 31 40 45 49 49 47 46 46 48 45 45 42 36 34 37 35 35 38 38 34 33 32 27 29 39 66 50 54 59 60 57 63
36 32 27 31 28 22 24 20 20 19 21 15 18 19 21 23 26 33 39 45 48 50 50 49 46 49 47 46 43 40 36 40 39 40 42 45 43 44 39 32 31 32 29 33 42 44 47 51 56
32 33 30 28 26 23 22 22 20 20 17 15 16 19 20 24 30 36 39 42 43 46 49 52 50 50 49 49 50 46 41 40 42 46 48 50 49 50 44 40 37 34 33 31 32 34 41 42 44
31 31 29 26 25 23 24 22 21 19 17 20 20 22 23 28 32 39 40 40 40 42 45 48 49 50 50 51 54 52 47 46 48 57 64 60 57 55 53 51 48 45 41 40 42 42 44 44 48
30 33 29 27 25 26 19 23 20 17 17 21 22 23 27 31 35 36 43 44 40 41 44 45 45 49 51 51 53 52 53 51 55 53 67 65 57 60 69 65 57 51 47 42 42 42 44 49 50
27 28 38 28 26 31 26 28 16 15 18 18 20 24 32 36 38 39 42 40 42 42 41 43 42 47 49 50 53 51 52 60 59 46 54 59 56 56 59 60 52 53 50 49 50 50 50 53 54
29 51 29 32 28 28 23 20 18 16 16 15 16 22 30 34 40 42 41 43 40 40 42 44 45 46 48 49 50 52 56 64 55 49 51 54 53 56 57 67 63 66 58 57 61 59 61 67 67
34 40 28 32 28 29 23 20 16 20 17 15 14 16 26 31 40 39 42 44 46 45 44 45 42 44 45 50 50 50 63 67 59 56 53 53 52 55 58 67 67 68 67 60 59 59 63 81 68
23 28 30 34 38 31 25 21 15 17 20 19 13 13 17 29 33 40 44 46 49 47 49 45 46 45 46 51 54 55 69 68 67 60 53 51 50 54 54 54 54 56 63 60 59 64 66 72 72
23 24 33 37 36 32 26 27 18 15 17 18 16 13 13 19 29 42 50 49 49 50 52 50 46 46 46 52 56 59 67 71 61 54 49 45 44 48 43 49 50 51 52 50 49 54 61 70 76
22 24 34 52 35 31 28 21 17 14 13 15 16 16 15 18 22 33 48 51 51 54 54 50 48 45 46 52 56 62 68 62 55 51 46 42 39 43 46 45 45 48 53 55 53 54 56 64 53
35 30 29 33 32 36 26 38 18 14 21 22 23 26 25 27 26 26 38 49 52 53 55 53 49 47 40 47 52 57 58 57 50 47 45 41 39 40 43 44 42 48 48 52 50 46 52 56 56
45 33 31 26 28 30 26 50 13 20 16 17 21 27 30 34 38 36 42 48 49 53 59 56 48 46 42 44 48 50 49 46 44 42 42 42 39 37 37 38 37 38 39 45 45 48 48 49 52
38 33 33 29 33 55 36 31 18 19 20 28 31 26 37 40 42 43 44 49 51 55 59 59 50 46 42 42 41 45 49 46 44 41 40 38 34 35 35 35 35 35 38 41 45 47 46 47 47
40 36 97 88 99 60 43 39 17 22 26 30 35 34 38 42 44 48 52 54 55 57 60 58 53 46 41 39 38 38 39 40 39 38 37 37 34 35 37 36 37 35 38 40 42 46 45 45 47
42 42 84 88 47 54 46 48 29 30 35 35 33 39 43 44 46 48 51 53 56 56 58 56 54 51 44 38 35 35 37 39 37 37 37 35 33 32 34 35 34 34 34 37 39 45 47 46 55
45 54 42 50 40 45 36 31 26 30 34 32 38 44 42 44 46 48 50 52 55 56 56 57 56 55 48 40 32 29 30 33 36 36 36 35 34 30 27 34 34 34 35 36 39 44 44 46 50
47 39 50 59 76 41 41 35 50 51 46 34 38 37 36 38 44 47 49 50 52 53 52 53 55 52 46 42 31 27 25 27 30 31 31 31 30 31 31 31 31 32 32 34 36 41 42 43 48
47 47 44 40 44 49 23 32 26 37 37 36 32 33 34 36 37 39 42 43 44 45 47 47 50 52 44 39 32 26 25 26 26 28 28 29 28 26 26 24 25 24 25 26 30 32 37 40 43
46 38 30 37 44 38 38 29 23 32 37 37 31 26 25 30 34 33 33 34 36 39 41 44 45 48 48 42 36 29 26 26 28 27 28 27 30 28 27 25 25 24 25 27 27 29 30 35 41

GFSSGP_sfc_rhum_135.txt.gz
RH
62 60 70 46 27 40 42 24 30 38 48 51 51 62 73 75 78 83 63 49 58 64 69 79 84 83 83 83 82 84 84 83 81 77 74 72 71 71 70 69 68 70 71 72 75 77 78 71 73
64 50 58 56 45 27 24 26 42 50 48 48 48 54 62 73 61 60 57 54 56 58 64 76 80 81 81 84 85 84 83 82 81 80 79 77 75 75 75 74 73 73 75 77 76 75 76 81 79
60 53 59 47 35 36 28 36 53 54 48 46 50 48 51 55 52 54 51 48 52 62 60 67 74 75 76 77 78 80 83 84 84 82 80 78 76 75 75 75 78 81 82 82 81 80 77 83 84
61 60 56 44 31 21 30 54 44 46 39 43 48 57 44 38 41 43 38 40 50 58 60 62 60 62 65 67 69 70 72 75 80 84 84 83 81 76 75 77 83 85 86 83 82 82 81 86 86
70 65 48 37 34 33 59 42 41 45 44 45 48 57 49 35 33 41 46 42 44 50 57 54 55 57 58 57 59 61 60 60 63 69 73 76 81 82 81 82 84 84 82 80 80 80 80 85 85
76 60 39 35 28 34 47 36 39 42 42 47 48 52 50 37 39 50 51 54 56 56 56 55 59 59 61 58 55 56 55 53 54 53 52 53 54 68 80 82 82 82 81 81 81 82 82 83 83
76 62 52 31 33 34 34 38 38 43 40 47 43 56 47 40 43 52 54 57 61 63 62 64 61 57 59 59 60 55 54 52 54 55 54 57 61 58 68 81 82 82 84 84 85 84 83 84 84
65 58 40 46 37 36 31 30 35 38 46 33 36 56 52 42 47 55 57 60 62 64 70 67 66 63 62 58 64 69 60 62 62 62 67 68 66 65 70 82 84 79 80 83 83 83 84 85 86
45 58 48 38 37 37 32 31 28 35 32 39 43 44 41 41 51 56 62 66 69 62 66 68 69 66 65 56 55 63 59 65 64 62 69 65 61 57 52 62 70 70 75 78 80 83 87 86 88
56 61 48 41 41 35 32 30 29 32 36 42 42 39 38 44 54 62 67 72 72 70 68 70 72 72 66 50 69 67 55 62 61 60 64 67 65 67 63 68 70 69 76 82 81 81 81 85 92
53 54 43 37 41 31 33 31 28 32 40 38 43 41 41 45 52 60 71 73 72 73 72 70 70 72 71 72 78 76 71 70 74 79 79 80 76 78 73 72 70 67 64 68 56 55 62 70 75
47 41 38 40 39 33 33 30 32 31 33 31 37 35 37 41 51 65 69 73 71 71 73 70 72 70 72 78 81 80 74 75 84 85 81 88 89 89 86 84 81 78 75 71 71 70 64 62 61
47 45 38 37 34 33 29 32 30 29 36 33 33 33 37 42 51 63 65 65 69 70 71 69 70 71 70 74 81 80 79 80 85 85 83 86 90 92 92 90 86 82 78 75 76 74 70 70 68
44 43 39 36 32 32 32 31 31 30 31 32 32 36 38 48 57 61 61 61 58 62 65 65 63 68 68 74 76 81 84 84 85 89 86 81 86 88 88 89 86 86 82 80 80 78 81 80 77
43 44 41 38 35 36 34 35 35 27 27 29 30 31 40 49 53 53 55 58 60 61 60 61 60 65 68 71 74 82 83 77 84 87 86 82 79 82 92 92 92 88 85 81 76 76 81 84 83
46 49 56 42 39 38 37 49 31 28 29 32 30 32 38 47 51 60 60 59 58 60 61 61 53 64 65 67 74 80 83 81 84 82 81 75 71 78 90 89 89 85 83 77 77 82 88 95 88
58 76 58 49 42 39 39 41 30 27 28 33 33 35 43 50 53 62 57 61 59 60 61 62 60 62 62 66 73 87 86 85 79 76 75 69 68 69 82 84 74 81 80 73 75 80 91 97 91
67 67 51 54 40 42 40 37 26 25 26 27 30 34 43 51 57 58 59 59 60 62 63 63 61 62 62 72 79 90 87 85 77 67 68 65 65 66 70 76 73 74 72 72 68 71 77 92 90
43 52 60 56 44 39 41 35 29 26 26 26 25 29 40 48 52 59 61 63 66 67 65 64 63 63 68 78 86 93 93 86 70 68 58 62 62 63 63 70 69 75 75 72 64 72 75 86 66
43 54 65 53 44 46 40 35 33 29 30 27 27 27 29 44 54 60 67 69 69 69 70 68 63 62 67 77 82 90 90 79 75 69 59 61 59 63 52 64 68 67 77 69 69 71 78 79 76
46 52 59 57 48 44 39 35 34 35 29 28 29 28 26 38 56 64 66 74 76 76 77 71 65 61 65 69 77 87 89 94 85 72 68 58 56 61 60 58 62 66 72 70 66 71 71 80 76
48 46 48 52 60 61 39 59 40 32 34 31 31 31 31 37 54 68 71 78 79 77 80 72 67 64 58 64 74 78 86 89 77 71 68 62 52 54 59 58 58 62 69 67 64 61 68 73 79
47 42 46 49 47 54 46 61 25 36 36 34 36 35 37 47 41 50 74 73 76 78 84 79 73 68 61 64 67 76 75 74 72 69 64 65 58 52 53 54 53 57 65 64 64 66 64 72 68
43 43 61 69 67 71 59 51 43 43 43 54 48 56 58 60 63 58 66 71 75 86 86 86 75 70 65 62 63 66 74 72 71 68 70 67 62 61 52 51 53 54 58 60 65 64 61 67 66
48 70 87 62 70 66 66 51 36 50 56 51 58 64 65 64 69 68 71 75 77 82 85 84 83 76 68 64 63 63 67 69 66 67 66 63 61 62 57 52 54 55 54 56 59 64 61 64 69
66 79 76 55 77 80 60 58 38 52 54 54 57 63 63 70 66 71 71 76 78 77 84 88 84 84 71 65 64 63 61 68 67 63 67 64 63 59 55 52 51 49 50 52 56 66 66 63 72
55 82 60 66 72 78 75 62 53 56 57 55 62 62 70 65 65 68 71 77 80 82 82 87 87 84 78 68 65 61 59 61 66 63 62 63 61 51 51 50 50 50 50 51 52 62 62 63 67
58 54 55 81 64 64 82 66 78 71 60 61 59 56 56 68 70 65 68 71 76 80 82 86 86 84 82 78 72 58 56 56 58 60 60 60 58 56 47 48 51 51 51 51 52 56 61 62 66
57 66 62 65 81 82 75 69 53 63 62 55 53 51 53 57 53 58 62 66 73 78 83 84 86 84 86 82 78 68 56 51 52 54 55 56 54 52 50 47 46 45 44 46 50 52 55 59 61
69 66 51 68 64 67 68 58 54 56 54 45 42 36 39 37 36 37 38 40 44 68 78 82 81 82 80 80 78 72 64 50 48 49 50 50 50 49 47 44 42 39 38 38 39 42 40 47 53

GFSSGP_sfc_rhum_138.txt.gz
RH
68 64 73 47 25 41 42 25 32 46 63 62 61 66 79 83 77 76 66 65 67 76 80 80 83 84 84 84 83 83 82 82 82 79 75 74 73 72 72 71 70 71 72 72 73 74 76 78 73
68 57 61 54 32 28 25 28 51 54 59 60 52 61 68 78 67 64 71 62 62 70 76 82 81 81 82 84 85 86 84 83 83 81 79 77 76 76 77 77 76 76 77 78 78 78 75 78 82
65 61 56 49 46 20 21 36 60 60 56 54 54 50 52 69 60 60 67 61 64 67 68 76 76 77 77 77 78 79 81 84 85 85 83 80 77 76 76 76 79 81 82 83 82 82 80 79 84
69 66 54 47 31 26 29 50 61 49 46 47 52 57 41 38 48 50 52 55 58 66 63 64 60 60 62 64 66 67 67 70 74 79 79 81 83 82 78 79 82 84 84 82 81 83 83 83 84
75 65 58 50 37 30 66 48 51 50 51 52 52 58 48 39 50 48 48 48 57 63 61 59 58 59 58 56 55 56 55 56 55 54 56 58 60 71 80 83 83 83 82 81 80 82 82 83 84
82 56 48 40 32 54 53 44 45 51 52 51 51 52 51 41 53 59 59 62 62 62 62 61 62 60 59 54 55 55 53 52 53 54 54 54 55 55 59 81 82 82 81 81 81 82 81 81 82
77 66 43 35 39 50 46 40 49 46 50 54 47 56 51 46 58 61 62 65 69 69 68 68 66 62 61 60 61 61 54 56 54 56 58 59 61 60 60 70 83 78 77 81 83 82 82 82 82
73 59 50 41 44 43 38 35 45 40 44 39 44 53 51 42 59 64 66 69 70 70 72 70 70 68 66 63 64 65 63 62 61 61 67 69 66 65 58 62 64 59 64 72 76 80 82 84 85
49 63 49 39 40 37 34 33 32 36 39 42 46 50 44 48 62 66 73 74 72 67 71 73 74 71 69 62 64 67 65 65 68 72 75 76 76 72 65 72 74 68 65 69 74 76 75 86 88
56 64 47 45 44 38 36 34 34 37 44 47 50 46 49 57 61 68 74 77 76 76 74 76 78 74 72 57 77 76 64 75 82 82 84 85 86 84 75 78 75 70 70 66 63 63 64 76 86
55 51 48 42 42 36 33 34 34 38 44 47 49 48 53 60 64 70 75 76 75 78 76 74 76 75 77 79 84 84 82 87 89 85 86 88 86 91 90 90 86 82 75 73 71 71 68 71 74
50 44 42 41 41 36 34 32 34 34 37 35 42 44 50 58 64 75 77 78 74 75 75 73 75 73 78 84 87 87 87 89 90 86 84 92 95 94 95 96 93 90 86 84 82 82 77 73 72
52 46 38 39 37 35 32 36 30 36 45 41 39 40 46 52 64 71 72 73 74 74 73 73 73 75 74 79 86 88 91 91 90 87 85 87 92 95 96 96 96 96 93 88 87 86 85 85 81
47 46 42 37 36 35 32 33 32 33 44 39 38 42 44 50 64 72 71 71 68 68 71 68 66 71 71 78 82 91 92 88 88 89 88 86 89 94 96 96 94 94 95 90 88 89 93 94 92
45 44 43 39 38 36 37 36 38 33 39 40 39 40 46 59 64 65 65 66 65 64 66 64 65 69 71 74 81 90 85 81 88 88 85 81 81 94 94 94 94 93 92 81 84 85 92 93 82
48 51 54 42 41 37 39 48 34 32 36 40 37 40 52 60 59 59 62 60 63 66 66 65 56 67 68 71 81 87 86 87 85 82 79 75 71 79 93 87 87 84 78 72 79 86 94 92 87
60 77 61 51 41 40 36 42 33 32 32 35 35 40 48 56 60 64 62 62 64 65 67 65 64 65 66 70 83 90 86 87 84 76 74 68 66 69 80 78 77 76 74 73 72 75 91 89 80
72 70 54 56 43 41 40 36 33 30 32 34 37 39 48 56 59 63 65 65 65 67 68 67 66 65 67 80 93 90 89 88 83 71 69 63 64 63 71 73 76 78 74 73 70 73 75 90 78
51 51 56 58 45 44 44 36 30 30 31 32 34 37 44 52 53 64 65 66 69 72 70 69 67 66 71 81 93 95 94 92 85 67 62 61 63 63 66 71 70 79 73 70 64 73 79 81 75
54 59 69 54 48 44 44 41 34 30 30 28 28 30 34 44 50 63 71 74 75 73 73 72 67 65 69 81 88 94 94 92 84 68 62 62 60 62 54 65 68 71 71 61 68 72 79 78 80
55 53 63 58 49 42 41 42 38 37 33 30 29 29 28 35 48 63 71 78 80 78 79 73 70 66 68 72 82 94 94 95 82 74 70 62 57 61 60 60 62 68 71 69 70 69 71 77 74
56 48 51 54 53 66 40 61 38 38 36 35 32 33 32 30 45 68 73 80 81 80 83 78 72 69 63 69 78 85 94 96 90 76 72 65 54 55 60 58 60 65 71 67 68 61 71 78 69
50 50 49 52 52 50 49 61 26 40 36 37 36 36 37 50 59 75 77 73 80 80 86 83 76 72 67 68 73 82 83 82 77 75 69 69 62 54 55 54 55 60 67 66 66 66 66 72 67
46 54 55 59 58 69 52 43 27 43 41 55 61 52 58 67 65 60 70 80 82 87 89 88 83 77 72 67 68 73 81 78 77 74 75 75 69 65 55 54 55 57 60 62 67 68 63 69 68
54 60 82 65 72 66 76 51 30 49 60 53 64 70 71 69 72 76 80 82 83 88 90 89 87 82 75 71 69 69 72 78 75 72 73 71 68 68 64 55 57 57 56 60 63 67 64 67 71
68 61 76 50 66 72 64 64 34 58 61 63 65 72 72 75 71 74 74 79 82 83 88 90 88 89 84 74 70 69 69 78 77 72 75 73 69 65 62 58 56 55 55 57 60 69 70 68 74
57 80 63 68 80 75 78 60 55 61 61 65 70 67 72 73 70 72 73 78 80 83 84 88 90 90 88 80 73 70 68 68 70 68 69 69 67 58 59 58 55 54 55 56 57 63 65 67 69
53 52 63 82 65 54 83 70 74 72 64 66 68 66 68 70 72 70 70 74 78 83 86 87 89 89 88 87 80 68 67 63 63 65 65 66 63 63 58 57 56 55 56 56 57 61 62 68 73
61 64 66 67 77 79 78 66 62 65 62 68 57 53 53 55 59 59 54 49 52 72 85 87 89 90 90 90 88 84 72 63 60 59 58 59 61 60 59 54 49 51 52 53 56 58 59 63 66
77 69 57 60 55 73 66 59 60 65 60 56 52 40 42 41 41 43 44 46 46 49 56 82 88 89 89 89 89 89 84 71 61 55 54 55 56 57 56 56 53 50 48 46 47 50 44 53 57

GFSSGP_sfc_rhum_141.txt.gz
RH
70 67 77 43 29 39 32 25 33 66 68 72 71 64 73 88 76 78 80 74 79 88 85 84 84 85 84 84 84 84 84 83 82 79 76 75 74 74 74 73 73 73 75 76 75 74 74 78 77
72 61 59 52 25 28 25 29 48 59 66 67 57 61 72 85 71 83 85 70 74 82 84 77 82 83 83 83 85 86 85 85 85 83 81 80 77 77 78 78 78 80 79 80 80 80 78 76 81
70 61 54 45 40 20 18 25 61 66 65 60 55 49 62 74 59 70 79 70 70 75 77 80 78 77 77 77 77 78 79 82 84 84 84 84 82 78 77 78 79 81 82 82 82 83 83 81 82
73 69 57 42 37 34 20 44 64 58 56 50 51 54 42 41 52 65 63 61 67 70 67 67 62 61 60 60 62 63 63 63 64 64 67 66 67 74 80 82 82 84 84 82 80 81 82 85 84
75 61 64 62 44 30 54 53 59 54 57 55 52 54 48 50 54 55 58 59 66 66 64 66 62 60 57 56 56 56 54 53 54 55 55 56 58 58 60 80 84 83 82 82 81 82 82 83 83
85 53 60 51 38 47 66 52 49 59 55 53 48 50 49 51 58 63 63 66 66 66 65 64 64 63 61 60 60 56 55 55 55 57 57 58 60 60 61 69 82 80 74 77 81 81 81 81 81
82 58 47 37 36 71 53 45 52 52 54 59 48 55 50 53 64 68 70 72 73 71 69 70 70 65 63 64 66 63 58 60 59 62 65 67 67 64 60 64 63 59 61 62 73 77 79 79 81
76 58 47 37 59 64 48 42 43 46 54 46 46 51 52 48 66 72 73 73 72 72 75 74 74 71 71 71 68 67 67 68 69 73 76 77 76 72 70 74 71 66 66 68 72 75 65 71 82
57 68 55 39 54 45 44 38 36 40 40 45 51 50 45 56 70 73 76 75 74 70 76 78 76 74 75 70 69 72 71 76 77 79 79 83 88 87 80 79 76 71 69 68 65 64 66 76 82
62 71 46 39 44 43 40 39 36 40 46 51 54 56 58 64 68 75 78 78 76 77 78 81 79 78 78 64 83 83 75 88 86 84 88 89 92 90 82 84 79 76 74 71 70 68 68 72 82
60 57 47 44 43 43 37 38 38 42 47 49 53 62 64 66 72 75 78 79 76 80 78 79 77 79 82 84 90 91 92 94 90 87 91 92 88 94 95 96 93 92 82 82 79 81 79 80 81
54 47 43 42 43 38 36 34 35 36 43 40 47 55 61 67 73 76 78 78 77 77 78 78 77 76 82 88 92 94 94 94 93 91 89 95 97 97 97 98 97 97 96 92 91 93 90 88 84
54 47 40 40 42 38 34 36 33 39 48 46 49 52 63 66 72 77 76 76 77 77 76 76 75 77 77 83 90 94 95 95 94 93 90 92 96 97 97 97 97 97 96 94 93 95 94 94 89
49 48 43 41 38 37 34 33 36 43 50 47 48 53 59 60 73 78 80 77 75 72 74 71 70 74 73 82 88 94 94 92 95 94 91 85 95 96 97 96 94 94 93 88 90 92 97 96 90
47 46 46 41 40 37 39 36 40 44 46 47 46 46 51 55 70 74 74 74 72 72 70 66 67 71 73 79 86 93 90 85 91 86 85 78 82 94 94 93 91 87 79 74 82 85 93 85 78
49 52 58 44 43 40 40 49 36 41 44 48 44 44 48 61 68 70 69 69 71 70 68 65 60 70 70 76 85 90 88 90 86 81 79 72 72 86 84 80 82 77 72 71 74 83 90 80 84
63 75 58 52 41 40 35 46 33 36 41 44 43 44 52 62 67 65 66 67 68 68 69 68 68 68 68 75 90 92 88 92 82 75 73 66 67 72 78 79 81 75 73 72 73 74 90 82 78
73 68 57 58 47 39 38 38 37 34 37 39 40 43 52 61 63 63 67 66 68 69 72 71 70 68 72 91 95 94 92 92 79 71 69 64 66 65 71 74 80 76 69 68 67 74 77 88 80
56 51 55 58 47 43 45 39 35 33 35 37 38 40 45 53 58 67 68 70 72 75 75 73 71 70 75 87 96 96 94 95 86 69 63 62 63 64 68 71 72 77 65 66 63 74 79 78 80
53 57 68 57 49 44 48 44 35 31 32 32 34 37 40 46 53 64 73 76 76 74 76 76 72 70 72 83 92 95 95 95 90 72 63 63 61 63 55 64 69 70 65 62 66 70 76 73 82
63 52 66 58 51 43 41 45 39 36 33 31 31 32 32 39 44 56 72 80 83 81 81 76 75 71 70 77 85 96 95 96 86 77 74 65 58 62 60 61 64 68 70 68 71 68 72 76 69
56 49 54 56 58 69 43 59 38 39 39 37 32 32 32 32 34 47 67 83 84 83 85 81 78 74 68 74 83 90 96 96 96 83 76 68 57 56 59 58 61 66 70 65 69 61 73 78 61
53 51 53 50 53 55 48 64 36 43 36 35 35 35 35 35 40 49 72 74 82 82 87 88 84 78 72 72 77 87 89 91 85 82 74 72 68 57 55 56 56 60 67 67 67 65 66 72 67
54 46 48 55 61 68 58 51 34 41 45 55 60 47 42 61 67 70 80 82 84 86 88 91 86 82 78 72 72 78 86 86 83 80 79 79 76 72 62 58 57 59 62 62 68 70 65 69 69
51 60 83 74 77 73 74 48 34 48 69 52 59 72 75 76 76 76 77 83 87 88 90 90 90 88 82 79 75 74 75 82 82 79 79 77 77 73 68 61 61 61 58 62 66 69 69 68 72
68 53 77 60 67 71 64 59 35 56 73 72 68 70 70 75 75 78 79 81 84 85 89 91 90 91 89 86 78 76 74 80 83 81 81 80 76 72 66 66 62 58 58 60 63 68 72 70 77
57 79 60 71 81 77 79 56 54 63 66 73 72 69 73 73 72 77 80 80 82 85 87 89 90 90 90 90 86 79 75 75 77 76 79 77 75 65 67 65 63 59 58 60 61 66 66 71 73
58 56 68 83 68 47 80 73 71 75 67 65 72 70 71 73 74 73 71 73 75 81 87 88 90 90 89 90 92 83 79 74 71 71 69 70 68 68 66 64 62 60 59 59 61 65 65 67 76
58 66 70 68 74 75 71 57 60 68 65 72 68 60 57 66 62 58 48 47 50 53 68 86 89 90 91 91 92 92 88 78 72 68 66 65 64 64 64 64 61 58 57 58 61 63 64 65 67
77 66 62 59 54 77 66 56 53 65 64 68 59 57 48 50 47 46 48 51 53 55 57 62 77 88 90 90 91 92 92 91 82 73 66 63 61 60 59 61 61 57 54 54 55 56 49 59 61

GFSSGP_sfc_rhum_144.txt.gz
RH
70 70 74 38 23 37 34 27 50 73 73 79 75 74 78 91 81 84 78 89 85 89 88 87 84 85 84 84 84 85 84 85 84 81 80 78 77 77 77 76 75 75 76 77 77 76 73 73 79
74 66 56 49 24 25 24 33 38 65 76 71 59 68 77 88 78 88 82 80 85 88 85 80 84 83 82 81 83 83 84 84 85 84 83 82 80 78 78 78 78 78 78 78 80 80 81 78 77
75 60 51 41 32 20 16 22 51 76 69 60 59 52 69 77 74 83 84 76 80 83 83 78 76 75 74 74 73 73 73 75 75 74 73 71 72 76 80 80 81 82 82 81 80 81 82 83 82
78 70 59 40 36 29 14 51 72 70 61 51 53 61 46 47 58 77 74 70 72 74 73 70 65 62 60 59 59 58 58 58 58 59 59 62 62 62 64 81 84 83 84 82 81 82 81 82 82
74 64 67 68 43 30 31 59 68 64 62 58 52 57 55 57 61 63 65 66 69 72 73 71 65 61 61 61 58 56 57 56 57 59 59 59 60 61 64 74 83 80 76 78 81 80 80 81 80
85 58 62 61 44 32 71 64 54 61 60 53 48 49 54 57 60 65 68 69 68 68 68 67 66 63 63 65 63 58 60 58 60 63 64 64 65 63 64 70 67 62 61 61 69 75 78 78 79
84 59 50 45 33 71 61 56 58 58 58 57 44 52 57 58 67 72 74 74 74 72 71 73 72 68 66 68 68 67 65 66 68 71 72 74 74 69 68 71 66 64 65 65 69 76 65 66 77
80 52 48 39 50 52 57 51 49 51 58 46 44 56 67 55 73 76 74 73 74 76 78 77 76 75 76 77 70 71 73 76 74 77 78 79 80 76 75 78 73 70 68 67 66 63 67 78 75
66 75 55 35 64 53 51 45 43 44 43 45 50 47 48 67 75 74 75 75 75 74 81 80 78 79 80 76 74 78 78 76 75 78 79 86 92 92 85 82 79 73 71 70 68 67 69 72 77
66 83 56 38 54 51 48 45 42 43 47 54 58 67 65 71 73 74 74 76 76 78 83 84 81 83 83 69 88 89 83 90 87 89 92 93 93 94 85 87 82 78 77 74 73 73 72 76 85
66 67 52 46 44 46 43 43 44 46 53 50 54 74 72 74 75 74 76 76 74 82 81 82 79 84 87 91 95 97 97 96 94 93 94 94 90 97 98 98 97 96 84 88 87 89 89 90 88
68 48 48 43 44 42 42 39 42 41 50 43 54 67 68 70 73 75 78 78 78 77 82 81 79 81 88 93 96 96 97 96 97 95 92 96 98 98 98 98 97 97 97 94 96 98 95 93 90
58 50 44 43 45 42 37 42 38 45 56 57 62 60 67 72 73 76 76 77 78 78 79 79 79 81 83 87 95 96 95 96 95 95 91 96 97 97 97 97 97 96 94 95 94 96 96 94 88
50 49 46 44 42 40 36 37 40 53 57 60 59 66 68 68 76 81 81 79 76 75 76 74 76 78 78 87 91 96 95 95 95 94 89 83 96 96 96 96 91 85 82 82 89 95 94 86 84
46 46 50 44 43 38 40 38 45 55 54 57 56 61 63 64 73 76 78 78 76 77 74 70 74 74 77 82 90 95 92 86 90 86 85 79 84 94 90 86 84 79 74 72 78 86 78 76 80
50 54 60 46 45 41 44 51 44 52 53 57 52 53 56 60 70 74 77 74 75 75 73 69 63 72 73 80 90 94 93 90 87 82 80 72 73 82 82 82 82 78 72 71 75 83 85 76 88
63 76 65 53 45 43 40 48 38 46 50 54 51 49 51 57 66 72 73 71 74 73 73 72 70 69 72 80 92 93 90 94 85 77 75 68 67 71 77 82 84 74 70 66 70 77 88 82 89
70 68 60 61 46 42 41 41 38 40 46 49 50 48 52 58 64 67 69 70 72 72 75 74 72 72 79 94 96 95 95 95 81 74 70 65 68 67 72 74 78 72 62 64 64 76 75 86 78
54 53 58 58 47 45 41 39 37 37 42 46 46 44 50 58 61 66 69 71 73 75 76 75 74 73 79 92 96 96 95 95 93 73 65 64 64 63 67 69 69 72 59 64 60 72 73 78 76
49 53 66 56 47 44 47 40 35 36 38 39 41 43 43 49 58 66 74 77 76 74 76 78 75 74 76 86 94 95 96 96 95 78 65 64 60 61 55 62 66 66 61 60 63 70 70 72 82
65 49 64 58 51 43 45 47 42 36 34 31 34 36 37 43 48 57 74 80 81 79 80 78 77 76 74 80 89 96 96 96 94 82 78 69 60 61 59 60 62 66 68 67 70 67 71 70 66
55 51 52 55 59 69 48 59 37 42 41 37 32 33 33 34 37 47 61 82 83 82 83 81 81 79 72 78 84 89 95 95 95 92 81 73 61 56 59 58 60 64 70 63 69 62 73 76 56
56 54 52 49 51 59 50 64 36 44 40 38 36 36 34 33 34 36 47 68 82 83 87 89 87 82 77 77 79 88 90 95 94 89 85 76 73 63 58 58 56 59 67 66 67 65 65 72 66
56 44 50 59 59 67 67 56 41 45 43 50 53 44 40 40 52 64 75 78 84 87 88 90 88 85 83 79 77 80 87 89 91 87 86 84 81 78 69 61 61 59 62 62 66 71 67 70 70
50 62 86 75 78 73 71 51 35 38 70 62 52 64 62 68 71 72 77 84 87 88 89 89 90 88 88 87 82 78 80 84 88 87 86 83 82 79 74 68 64 63 59 61 66 68 71 69 73
60 56 80 67 74 73 66 57 36 50 76 76 68 73 74 74 74 77 79 80 83 86 87 89 90 91 89 90 88 85 80 83 83 85 87 86 83 79 72 69 68 64 61 61 64 70 72 73 77
58 80 56 73 81 79 81 56 47 67 76 78 78 76 78 78 76 77 80 80 81 83 84 88 90 90 90 90 92 91 88 82 81 79 84 86 82 73 75 72 69 67 63 62 64 69 66 70 76
61 59 67 82 65 53 73 68 68 76 70 69 75 72 74 75 76 74 72 62 61 63 74 86 90 90 89 90 92 91 92 87 82 79 77 76 74 73 71 69 69 67 65 63 65 68 67 67 74
58 65 72 68 73 66 54 46 62 64 67 69 72 69 68 70 68 55 53 53 54 58 62 71 82 88 90 91 92 93 94 92 88 83 77 73 70 69 68 67 67 66 64 63 65 66 67 68 68
78 67 58 59 58 78 62 52 64 70 68 69 71 60 64 65 52 52 53 56 58 61 65 68 70 76 83 88 91 92 92 93 94 93 86 78 74 70 68 66 66 65 62 61 60 59 52 61 63

GFSSGP_sfc_rhum_150.txt.gz
RH
54 42 34 26 17 14 15 14 14 18 23 35 34 38 34 34 37 43 80 63 59 56 55 60 84 83 83 83 84 83 83 83 82 81 80 79 79 79 78 77 77 76 76 75 75 76 76 76 73
44 38 32 22 16 15 12 10 16 15 27 43 42 42 41 49 57 88 86 79 62 64 66 69 84 83 82 82 80 80 79 77 75 72 70 70 69 71 77 79 78 78 78 78 78 78 79 78 79
46 44 29 21 14 13 12 11 9 25 40 42 43 41 46 56 64 77 84 79 69 70 68 69 78 76 73 71 69 68 67 66 66 67 66 66 65 66 70 81 82 82 80 79 79 79 78 78 77
42 40 29 19 14 11 8 8 9 40 44 40 39 43 45 49 62 62 78 69 58 59 53 62 68 66 65 64 63 62 62 63 65 65 64 64 63 69 72 80 76 72 73 77 79 79 79 81 79
45 38 23 24 16 10 7 16 23 35 37 39 38 48 54 51 61 69 66 54 52 50 49 53 68 67 65 62 63 61 64 66 66 65 64 62 63 63 66 68 68 67 65 62 68 73 75 74 77
47 37 26 23 18 11 10 15 29 29 35 37 40 45 55 51 66 67 56 52 51 51 50 51 66 67 66 66 64 66 67 68 68 67 65 66 66 66 68 68 66 65 64 65 67 70 66 65 74
50 38 26 18 16 12 12 16 30 33 37 38 34 44 50 60 63 57 50 47 46 44 40 39 39 60 71 70 71 71 70 70 70 72 73 75 74 72 72 71 70 68 66 66 66 65 71 76 76
42 47 25 22 16 16 13 27 26 33 36 31 31 42 57 55 56 52 48 46 44 44 44 42 42 40 40 46 74 73 72 72 71 74 76 74 66 68 72 66 76 73 73 72 71 71 71 73 74
48 45 29 22 17 12 26 32 36 32 34 32 32 37 40 49 52 53 54 52 46 44 44 45 45 44 45 45 57 64 68 67 61 57 72 55 43 47 49 80 79 76 74 74 74 73 71 68 70
52 44 30 18 14 14 32 28 35 35 35 35 37 41 46 52 51 54 54 51 45 44 46 43 49 48 46 41 47 47 45 45 46 46 46 41 47 52 52 68 75 73 72 68 69 71 65 60 38
49 46 29 28 21 29 29 36 31 34 40 32 34 49 52 50 48 49 47 46 45 47 46 47 50 50 46 48 44 41 41 43 44 48 47 46 45 48 45 43 44 45 60 42 44 42 42 46 43
52 42 33 32 30 33 35 31 35 34 34 27 27 43 48 48 46 45 44 46 49 50 50 49 48 50 51 46 44 43 41 44 44 47 50 48 48 52 48 44 46 45 41 43 43 40 41 43 43
52 40 40 34 31 32 33 35 33 33 38 30 34 45 46 45 42 40 38 39 44 50 53 52 49 48 50 50 49 46 44 44 45 46 47 49 50 53 46 45 41 38 38 41 42 41 36 36 40
44 39 37 35 31 30 36 33 32 36 44 42 44 47 45 44 42 42 41 41 41 44 48 52 51 50 50 52 56 51 46 47 44 45 46 46 50 48 48 43 40 36 34 35 40 41 36 39 42
43 47 37 35 31 31 30 36 37 40 44 47 45 46 45 44 40 40 41 42 37 40 44 48 51 50 51 53 55 53 51 47 45 45 44 46 47 48 46 47 42 37 32 33 35 34 41 49 52
50 43 45 31 33 30 33 38 33 42 45 46 46 46 47 44 40 39 41 41 39 40 42 44 43 48 49 52 55 54 54 49 48 43 40 43 43 45 45 44 42 38 30 27 33 32 43 51 69
48 62 34 38 31 32 35 31 34 40 41 42 43 44 43 45 42 43 44 43 40 38 41 46 47 46 49 52 54 57 59 55 49 44 42 43 41 41 39 40 38 30 28 24 27 29 44 52 69
57 48 32 35 32 33 38 36 38 40 40 39 39 40 43 46 45 42 47 48 44 42 42 44 45 46 48 54 55 55 56 55 51 47 42 39 37 39 37 35 34 27 25 24 24 27 42 54 58
36 35 36 34 33 33 39 36 38 39 38 38 37 38 40 41 39 46 49 50 50 48 49 47 47 47 47 51 48 52 51 56 58 51 45 40 38 39 38 33 30 29 26 26 24 27 31 40 50
37 36 35 38 33 30 37 39 36 37 36 35 35 34 35 37 40 45 52 52 52 52 52 52 48 49 47 48 50 52 54 58 58 58 48 44 40 39 31 33 32 32 29 28 30 34 29 31 35
36 33 40 49 36 30 33 39 39 34 32 32 31 30 29 34 35 42 51 53 55 55 56 52 51 52 52 52 56 60 62 64 62 59 56 51 43 41 38 37 32 33 33 32 36 36 36 32 31
43 31 35 39 39 49 31 55 36 31 33 30 30 30 28 33 32 37 45 52 57 55 55 54 56 56 53 55 57 59 57 56 57 60 59 55 48 42 43 42 37 39 37 35 34 30 37 38 31
38 35 34 35 33 37 32 46 24 29 30 29 27 26 26 27 29 31 40 46 50 55 60 57 56 59 56 58 57 58 59 54 53 56 60 59 56 51 46 45 41 38 36 38 38 38 37 36 35
36 33 38 33 34 61 39 30 26 27 25 25 24 22 23 23 24 27 27 35 45 58 62 61 57 59 60 59 59 60 62 58 55 53 53 51 51 52 52 50 46 43 39 40 40 41 42 39 38
33 39 88 83 92 61 42 30 18 19 26 25 25 24 25 25 23 33 43 38 42 56 60 60 59 60 58 61 60 59 59 58 58 54 50 50 49 51 51 52 50 45 43 43 42 43 43 41 40
35 38 65 79 58 52 43 34 22 22 44 43 35 32 34 35 39 48 53 53 56 58 61 59 59 57 58 59 59 60 60 58 56 55 54 52 50 47 49 52 50 48 45 43 44 44 45 42 46
37 48 36 43 42 37 36 30 30 42 52 45 45 44 46 48 51 54 56 56 58 60 61 62 60 62 59 55 56 54 54 57 57 56 55 54 53 50 50 51 51 49 48 45 44 44 42 41 44
38 35 45 52 62 33 38 35 33 44 49 48 52 48 52 54 56 55 53 49 44 46 49 53 56 55 55 55 53 52 52 54 56 55 55 53 51 51 52 51 50 49 47 45 45 45 43 42 42
42 45 45 40 43 28 22 19 30 36 44 50 47 49 52 54 53 44 36 35 36 37 38 40 42 46 48 51 52 54 54 57 56 55 53 53 51 50 50 49 49 48 47 45 46 46 45 45 44
46 37 29 32 42 39 31 22 32 40 37 41 46 48 48 49 41 34 32 32 33 34 34 37 41 42 46 46 46 48 48 49 47 44 45 45 47 46 49 49 49 48 48 47 47 48 46 45 45

GFSSGP_sfc_rhum_153.txt.gz
RH
54 32 24 23 19 14 17 14 9 13 11 12 20 22 25 28 33 53 66 55 48 55 54 62 83 82 82 82 82 83 84 83 82 79 76 75 76 78 78 77 76 76 76 75 75 75 76 76 77
32 29 26 19 19 17 13 10 12 12 14 24 24 33 30 42 50 74 79 56 59 64 61 67 85 84 83 81 81 80 77 74 73 72 71 70 69 69 78 78 78 78 78 77 77 78 78 76 76
39 33 26 22 19 16 14 9 9 9 25 27 36 34 35 50 64 67 71 63 66 69 66 72 80 78 76 73 72 70 69 69 69 68 68 66 68 69 75 81 80 80 80 80 80 79 79 79 76
33 32 30 26 16 12 10 8 7 10 26 25 28 38 44 51 58 62 77 62 57 58 58 66 72 70 68 67 66 66 67 68 67 66 65 65 65 67 74 75 72 70 68 68 73 77 78 78 79
37 26 26 24 19 11 7 7 8 15 27 29 30 42 51 52 61 72 73 60 56 53 53 58 70 67 65 66 64 66 68 68 66 64 63 62 62 65 67 68 68 66 66 64 67 72 68 66 72
36 27 28 27 16 11 8 6 12 16 18 23 34 39 54 55 70 70 67 52 48 52 54 56 69 69 68 66 68 68 67 67 67 68 69 69 69 69 69 69 68 66 64 65 67 65 69 71 75
43 30 31 20 17 14 9 6 10 15 18 26 28 41 49 66 68 64 55 50 49 46 44 42 46 63 73 73 72 70 69 70 71 72 72 69 70 68 66 69 70 70 69 69 69 69 71 75 74
39 38 30 22 18 16 10 8 8 14 20 22 27 38 56 59 65 60 51 48 45 42 40 37 35 33 36 48 73 72 70 68 67 68 69 67 65 60 64 64 76 73 73 72 72 70 68 68 70
36 48 40 31 20 14 10 9 16 15 26 30 30 30 37 58 60 58 54 51 45 41 40 39 37 37 38 40 53 66 66 63 60 60 63 60 39 42 44 77 75 72 70 70 70 69 67 66 68
53 51 39 24 14 14 10 15 20 29 31 32 34 34 47 59 61 59 58 54 48 42 40 39 41 40 38 34 40 39 37 39 40 41 40 36 42 44 46 63 68 63 64 62 60 62 64 69 36
53 54 28 23 15 14 20 18 18 26 30 30 36 44 54 59 56 56 52 50 46 41 40 41 43 42 38 40 38 36 36 38 40 42 43 40 41 44 40 39 41 41 55 39 42 40 38 41 40
64 39 35 24 25 26 24 19 18 26 24 24 28 41 51 55 52 50 47 46 44 45 44 43 43 44 42 40 37 37 36 40 40 41 42 43 44 48 44 40 41 39 37 39 40 38 35 36 37
67 45 31 30 27 28 24 24 22 27 31 26 28 42 49 48 44 42 40 39 41 45 48 47 44 43 44 43 43 40 38 38 40 41 41 44 47 50 42 41 37 35 35 36 39 36 33 34 38
60 53 38 31 31 30 29 28 27 23 31 28 36 44 46 44 41 40 37 36 38 41 46 48 46 44 45 46 49 45 41 42 40 42 42 40 46 46 46 41 39 35 32 33 36 37 37 42 43
61 83 51 34 31 31 26 32 35 27 32 36 38 40 43 41 38 37 36 36 32 36 41 43 46 45 46 48 49 48 47 43 42 42 40 41 43 45 43 46 42 36 30 30 32 29 42 48 58
73 78 95 34 31 29 31 31 27 34 36 39 38 40 43 42 38 36 33 32 32 34 38 39 38 45 45 48 49 48 50 46 45 40 39 40 39 41 43 42 41 36 29 24 27 29 40 50 66
94 97 93 39 27 29 34 30 27 34 36 37 38 41 43 44 38 36 34 34 32 32 34 40 41 42 45 47 47 50 53 51 48 43 41 41 39 38 37 38 34 28 29 24 26 29 42 48 60
85 79 60 36 26 30 34 28 34 36 35 36 36 41 44 44 41 37 36 38 35 33 36 40 41 42 43 49 48 51 53 53 49 46 42 38 37 37 37 35 34 27 26 25 26 26 38 49 54
91 82 44 26 26 31 33 32 35 36 34 34 34 39 40 44 40 38 42 44 41 39 41 42 43 43 45 49 47 48 51 52 53 50 44 40 38 38 38 34 29 28 27 26 23 26 29 36 46
94 86 36 25 29 26 24 35 33 35 35 32 34 36 38 41 41 44 48 47 47 46 47 46 44 45 43 45 46 47 51 52 53 57 50 45 40 39 31 33 32 31 31 28 31 36 33 34 36
84 50 34 45 34 24 24 38 41 35 32 31 30 32 34 38 40 44 49 50 52 52 53 49 47 47 48 48 54 56 56 58 59 60 59 53 44 42 39 38 32 33 35 37 38 40 40 44 38
55 30 28 35 40 42 27 51 42 37 37 34 32 32 31 34 33 36 45 49 55 53 55 51 51 52 51 53 56 57 56 55 54 58 58 57 49 46 44 44 39 40 41 39 38 30 42 45 46
60 31 39 31 32 25 33 51 35 33 38 33 32 30 28 29 31 34 40 43 47 53 61 56 53 55 52 58 55 58 57 52 53 55 57 59 57 54 49 47 45 43 41 42 44 44 43 44 45
35 35 38 32 30 58 29 33 34 36 31 30 28 26 26 26 27 29 33 40 46 56 63 62 54 58 58 57 57 59 60 58 58 56 55 55 53 54 54 52 51 48 45 44 48 50 50 49 47
36 47 88 83 96 63 30 32 21 24 23 25 26 24 24 24 24 27 29 36 45 60 62 61 57 58 56 57 57 57 59 60 60 57 55 52 50 50 52 52 54 51 50 50 49 51 52 50 50
36 51 75 82 60 55 35 41 22 23 26 29 21 22 23 25 22 28 34 35 40 50 60 57 56 51 51 53 56 57 59 62 58 56 56 54 51 49 48 52 53 51 49 49 50 53 54 53 57
37 54 39 47 37 43 39 26 29 33 41 33 31 29 31 28 33 44 47 48 48 50 53 55 53 54 52 51 52 52 54 56 56 55 54 54 53 51 52 52 53 52 51 50 50 52 50 49 53
36 28 58 59 68 44 39 31 41 38 42 37 40 37 37 38 45 49 50 52 51 54 54 54 52 51 51 50 50 49 48 48 51 51 52 51 49 50 51 52 52 52 51 51 52 53 52 51 53
35 36 38 36 37 36 32 30 26 31 33 40 38 38 42 46 48 48 45 39 37 37 38 40 41 44 46 47 46 49 49 51 50 50 47 46 46 45 46 46 47 47 47 47 50 52 53 54 54
42 34 30 35 30 28 25 29 28 29 29 35 36 40 42 46 45 38 33 30 31 31 32 35 36 38 40 40 42 44 45 44 43 38 38 38 40 39 41 42 43 42 42 43 45 48 48 50 52

GFSSGP_sfc_rhum_156.txt.gz
RH
57 44 38 44 49 36 33 26 15 20 19 14 28 26 34 60 53 78 70 55 59 65 74 76 86 83 82 82 84 85 85 82 78 76 74 73 74 78 79 78 78 77 77 76 76 76 77 76 77
55 33 44 47 40 32 23 16 18 18 16 28 30 35 38 68 70 84 78 72 62 63 70 80 86 85 84 83 82 79 77 75 74 72 71 70 70 72 79 81 81 80 79 78 78 78 78 77 77
54 34 56 48 38 26 25 17 13 14 26 31 45 42 46 76 74 85 82 80 76 80 78 82 84 81 79 77 74 73 72 72 71 70 69 68 70 74 74 78 75 74 74 78 80 81 81 80 79
45 52 52 52 27 24 18 14 12 21 30 29 38 55 57 61 69 82 76 73 72 71 73 77 77 74 72 71 71 71 71 70 68 66 64 64 65 67 68 71 71 70 69 67 70 75 74 74 76
52 52 46 39 37 22 14 11 13 17 32 31 33 58 77 77 77 81 73 66 64 67 70 69 72 71 70 68 70 71 70 67 65 65 66 65 65 66 68 68 68 67 66 67 68 68 67 66 73
63 47 48 40 28 20 16 11 13 12 30 32 35 59 73 81 83 83 72 63 60 67 70 69 73 72 71 71 71 69 68 68 69 68 67 66 65 65 65 68 68 67 66 67 66 67 72 75 76
73 61 46 38 31 22 16 11 14 16 25 29 34 64 79 81 79 75 73 60 61 66 65 67 70 73 75 74 71 70 69 68 67 66 65 65 64 63 64 74 72 72 72 71 70 69 70 71 71
61 60 64 47 31 30 16 12 10 14 20 25 31 61 84 76 74 70 60 56 58 56 56 56 67 67 75 79 72 70 67 65 63 61 60 63 65 65 65 70 74 71 72 71 70 68 65 63 65
57 73 70 54 42 25 17 15 11 12 24 39 38 44 58 76 68 64 68 68 63 55 54 52 50 50 62 68 71 68 65 65 66 66 68 67 65 58 72 73 70 65 64 63 62 61 62 69 72
77 79 64 40 30 27 19 17 13 30 35 46 43 71 77 71 66 67 73 72 65 60 57 56 56 55 51 41 66 63 52 60 58 58 57 56 62 60 57 71 72 62 60 64 59 61 64 70 62
69 82 54 35 32 27 27 21 22 31 38 41 47 86 79 72 66 66 70 67 64 58 57 58 58 56 54 58 62 61 60 63 63 59 60 60 62 67 67 73 68 71 61 62 58 63 58 56 57
77 59 52 45 34 29 32 26 25 30 34 32 37 70 75 75 67 68 65 64 60 59 60 59 59 58 58 63 61 59 60 64 65 60 57 67 74 72 66 62 61 59 57 56 62 58 48 49 50
69 62 50 42 37 36 32 33 30 29 36 34 42 63 72 72 66 62 57 55 58 63 63 64 61 62 59 61 65 62 63 61 60 62 58 66 72 71 66 61 58 55 54 56 59 57 51 56 56
55 57 59 54 50 34 37 34 32 30 37 39 51 61 65 67 61 57 52 53 54 58 65 63 61 61 60 68 68 69 64 62 62 63 61 58 67 67 68 65 60 55 49 50 55 52 58 73 80
62 74 64 59 58 46 34 40 37 29 38 44 51 56 61 58 53 51 49 49 50 56 59 61 62 59 64 68 69 72 66 62 63 61 57 56 58 63 64 67 63 57 44 37 49 42 60 85 79
73 76 89 60 61 61 43 55 33 31 41 48 51 54 57 55 52 47 44 45 48 53 56 54 48 61 62 68 71 68 71 69 66 60 59 51 50 55 61 64 58 50 45 41 44 46 61 87 86
89 93 84 69 59 64 54 48 33 40 41 49 51 54 55 54 50 47 43 44 46 49 53 55 57 60 62 64 68 72 72 74 67 63 60 51 50 49 55 56 50 43 45 41 41 46 63 84 86
85 90 70 71 57 53 62 41 33 43 43 48 50 54 55 55 54 45 45 46 47 47 52 55 58 59 60 69 70 75 79 75 69 65 57 50 51 50 55 52 46 43 43 44 40 39 49 71 76
70 72 73 62 51 74 64 40 41 46 47 48 50 55 57 56 52 49 50 51 51 54 56 57 58 58 68 73 76 78 82 78 76 70 54 52 52 51 52 52 45 45 43 40 38 44 41 54 54
78 87 89 66 58 70 50 40 36 45 47 46 49 55 56 55 53 54 61 58 57 60 59 59 57 59 62 67 69 72 73 75 78 74 62 58 52 52 42 46 47 45 51 45 48 53 55 51 52
95 95 83 78 65 64 38 43 42 46 45 42 44 48 51 55 54 57 60 66 65 68 67 62 62 61 64 67 75 72 74 78 82 79 79 67 56 54 52 50 50 50 53 55 53 54 53 60 56
99 78 86 94 61 71 34 71 67 52 50 44 44 48 52 54 52 58 62 69 71 72 70 66 65 66 65 70 76 77 81 79 78 82 81 76 62 59 56 58 54 54 59 56 55 41 56 57 61
92 58 70 72 50 54 40 71 57 51 53 48 49 48 50 49 50 57 63 62 68 72 76 73 71 71 69 73 74 79 78 73 76 78 79 81 78 70 64 63 63 60 60 59 56 58 59 60 59
70 55 77 74 60 77 47 45 64 57 50 48 46 44 43 46 48 50 58 61 69 79 81 78 76 75 73 75 74 75 76 77 78 78 79 79 79 81 73 67 69 68 65 60 62 63 62 64 64
70 68 99 100 92 89 48 48 45 43 40 39 42 41 42 44 46 51 58 64 72 84 85 80 76 77 75 76 77 75 79 81 79 79 81 76 72 74 74 74 75 74 70 66 63 65 67 68 69
55 66 92 81 90 91 56 66 41 50 40 33 34 36 39 43 41 48 55 62 75 81 84 78 76 74 73 76 75 76 76 84 83 79 79 78 75 73 66 69 72 71 68 68 66 71 73 72 75
55 84 52 74 80 89 74 50 42 52 45 40 36 38 44 42 44 48 51 53 63 79 81 78 75 70 69 69 72 75 77 80 80 76 76 78 75 67 70 69 71 71 70 69 70 74 71 70 71
50 44 72 88 96 79 81 59 82 60 55 49 51 50 48 51 64 68 70 69 69 71 74 72 70 69 67 69 70 69 73 73 75 74 74 73 73 71 72 72 72 72 71 70 71 76 73 72 75
50 54 55 59 69 93 68 59 40 52 52 53 53 50 54 65 68 72 73 70 71 72 73 73 66 65 67 66 68 70 71 70 74 76 72 68 64 62 62 62 63 64 65 66 72 76 75 76 76
54 44 52 73 62 72 49 58 43 43 49 50 50 52 62 65 68 62 55 52 53 53 53 55 56 58 58 59 63 67 67 66 68 60 54 53 57 54 55 56 57 58 57 59 62 65 64 68 71

GFSSGP_sfc_rhum_159.txt.gz
RH
62 61 70 49 48 53 56 33 25 21 18 24 34 43 62 88 62 63 77 72 81 86 81 80 86 84 82 83 84 85 83 80 78 76 74 73 74 79 80 80 79 78 77 76 76 76 76 77 77
69 60 50 60 53 52 36 30 22 19 19 36 42 50 62 89 89 91 91 70 76 84 86 87 87 84 81 82 83 80 78 76 75 73 72 73 73 76 79 79 79 80 81 81 80 80 80 79 78
65 55 65 65 62 39 36 21 19 16 24 36 54 58 66 95 90 95 94 80 79 89 90 86 87 84 82 79 77 76 75 74 72 71 70 70 71 71 70 75 74 72 71 74 77 81 80 80 81
62 60 65 86 52 36 24 20 19 26 34 42 52 74 76 73 86 92 87 81 84 84 83 84 83 79 77 76 75 75 73 71 68 66 65 66 68 69 69 70 70 70 69 69 71 73 69 69 75
60 71 69 70 66 44 32 18 17 22 40 47 49 74 89 92 88 82 78 73 78 76 73 74 76 74 74 75 75 73 70 67 67 66 65 64 65 65 67 68 67 66 66 68 67 67 70 73 76
83 65 77 64 39 31 29 24 18 14 39 39 62 84 91 91 91 85 71 72 71 76 75 75 77 74 74 75 72 70 68 67 66 64 64 62 62 63 67 68 70 69 69 68 68 67 71 71 71
88 92 87 67 50 38 23 17 22 18 41 38 61 86 96 97 89 82 71 70 72 74 77 82 80 77 77 73 71 69 67 64 62 60 60 64 63 62 70 70 69 69 69 70 68 65 64 65 65
84 84 86 81 69 56 29 22 20 16 18 32 58 90 92 90 83 75 64 68 70 73 77 79 88 84 87 84 71 67 64 62 61 59 60 64 68 68 65 68 67 65 64 63 63 61 60 61 63
72 95 88 79 62 55 34 31 20 13 24 46 66 69 71 82 74 64 63 61 59 62 65 73 78 78 82 82 74 70 67 68 67 66 68 69 71 72 69 73 67 60 60 59 59 59 60 70 73
88 97 80 61 54 45 34 34 32 24 33 61 96 85 77 82 70 69 68 65 62 64 62 59 62 71 69 53 78 79 68 73 66 65 67 67 69 68 65 73 71 64 63 64 62 63 68 63 64
82 86 63 59 50 42 41 38 30 30 40 50 96 91 88 78 68 68 68 70 68 64 63 64 61 59 61 64 74 72 72 75 69 63 68 71 70 74 73 80 73 65 66 62 63 55 56 59 61
81 66 62 62 55 52 52 40 42 33 31 36 86 85 82 78 72 68 70 71 68 65 67 66 65 64 64 69 69 69 70 72 74 67 66 78 81 76 71 66 65 60 64 60 66 58 55 61 83
78 65 57 56 57 55 50 52 43 37 28 45 80 82 82 77 72 65 68 65 64 68 69 68 68 67 65 67 71 69 69 70 71 68 66 75 77 77 72 68 63 58 54 61 62 58 63 86 84
68 66 66 60 60 57 58 54 44 37 36 66 81 87 83 76 69 66 64 60 60 66 70 69 68 68 69 75 74 73 69 70 69 69 67 67 74 74 71 67 63 56 47 46 56 52 85 92 86
76 84 75 70 63 63 58 62 51 39 34 69 79 83 82 75 64 62 65 60 60 66 67 67 69 70 74 73 76 73 71 67 69 67 62 62 64 68 71 69 62 57 46 42 47 47 87 92 81
83 87 95 58 60 59 71 77 54 41 43 68 76 78 80 74 63 58 60 62 60 66 66 62 55 70 75 75 79 74 75 75 71 70 65 58 55 60 67 62 57 51 47 44 46 55 80 92 91
94 97 95 78 56 61 72 77 50 41 42 64 72 75 74 72 59 55 55 59 62 63 64 64 65 69 75 74 77 78 76 76 74 70 66 57 52 53 58 56 51 49 49 46 45 49 73 90 92
96 95 83 76 57 62 71 68 56 50 42 57 76 75 71 66 58 52 55 60 60 62 63 66 68 70 70 79 81 83 83 79 76 68 61 55 53 52 57 53 48 48 48 48 45 43 48 76 72
85 89 89 68 51 62 72 69 54 46 46 59 70 74 70 63 60 52 56 60 60 60 66 68 69 69 76 80 84 88 88 85 80 69 57 55 54 53 55 55 49 53 48 48 48 53 51 53 58
83 90 88 70 58 59 76 75 58 49 47 59 62 71 71 68 58 58 61 57 57 61 65 68 64 69 72 76 76 79 82 84 83 74 63 60 54 54 46 52 53 51 55 52 54 58 58 63 59
86 85 81 78 65 61 70 83 73 53 42 62 58 62 61 61 58 62 62 62 62 65 69 66 67 66 70 74 78 80 82 84 85 82 79 68 59 55 55 55 55 56 59 59 59 56 57 56 62
98 71 76 74 96 93 72 94 65 54 54 66 62 64 65 63 60 65 62 67 64 69 72 68 69 69 70 77 78 79 86 87 87 86 84 79 66 61 58 61 58 58 64 59 60 48 60 62 58
94 80 98 96 92 94 96 91 44 46 64 63 61 64 63 60 64 68 67 61 66 72 76 74 74 74 74 79 81 85 83 80 81 84 84 88 82 73 65 65 66 63 66 63 60 59 62 67 64
81 90 85 96 89 99 79 74 64 74 56 64 59 61 61 60 63 65 70 70 77 76 78 79 78 76 77 78 81 82 82 78 78 80 83 85 87 88 79 72 72 72 72 66 64 65 66 67 69
94 97 99 99 99 93 64 53 54 50 50 54 58 59 60 58 63 69 73 74 75 80 82 81 79 81 79 81 81 81 82 81 78 80 85 84 81 83 85 82 80 78 75 74 70 69 69 70 73
86 71 97 97 89 84 62 73 36 53 47 42 47 54 56 57 56 64 69 73 77 82 84 79 84 83 82 83 83 81 80 85 85 81 85 84 81 80 74 77 81 79 77 76 74 75 76 76 80
58 88 64 74 90 89 81 57 44 64 54 50 51 52 55 54 56 64 71 77 84 87 86 84 84 82 83 83 84 82 81 85 86 83 82 84 82 73 74 73 74 76 77 76 77 80 77 77 78
54 58 84 92 93 84 92 63 75 68 63 52 58 53 53 56 59 62 64 75 86 88 90 85 81 80 80 80 81 79 83 84 83 85 84 83 82 79 78 79 80 79 79 78 80 83 82 82 83
57 76 69 81 97 97 84 65 47 52 69 51 52 48 52 55 63 70 76 77 82 87 87 83 82 80 79 76 78 77 79 80 81 82 80 76 68 66 65 64 65 66 67 68 75 79 81 84 86
60 55 59 82 86 97 97 67 55 49 54 57 54 62 72 72 80 81 83 85 88 88 86 80 76 75 74 71 76 78 79 76 75 64 61 60 60 60 60 60 61 63 63 65 67 69 69 71 73